<?xml version="1.0" encoding="UTF-8" standalone="no" ?>
<gpx xmlns="http://www.topografix.com/GPX/1/1" xmlns:xsi="http://www.w3.org/2001/XMLSchema-instance" xsi:schemaLocation="http://www.topografix.com/GPX/1/1 http://www.topografix.com/GPX/1/1/gpx.xsd" version="1.1" creator="VisuGPX - https://www.visugpx.com">
  <metadata>
    <name>de Angles sur l_Anglin à Chinon 131 km-15509925</name>
  </metadata>
  <trk>
    <name><![CDATA[de Angles sur l'Anglin à Chinon 131 km-15509925]]></name>
    <extensions>
      <line xmlns="http://www.topografix.com/GPX/gpx_style/0/2">
        <color>FF0000</color>
        <width>4</width>
      </line>
    </extensions>
    <trkseg>
      <trkpt lat="46.69421" lon="0.88225">
        <ele>75</ele>
        <time>2023-07-04T13:37:11Z</time>
      </trkpt>
      <trkpt lat="46.69425" lon="0.88228">
        <ele>76</ele>
        <time>2023-07-04T13:37:13Z</time>
      </trkpt>
      <trkpt lat="46.69417" lon="0.88216">
        <ele>74</ele>
        <time>2023-07-04T13:37:19Z</time>
      </trkpt>
      <trkpt lat="46.69412" lon="0.88195">
        <ele>73</ele>
        <time>2023-07-04T13:37:27Z</time>
      </trkpt>
      <trkpt lat="46.69419" lon="0.88169">
        <ele>73</ele>
        <time>2023-07-04T13:37:36Z</time>
      </trkpt>
      <trkpt lat="46.69437" lon="0.88123">
        <ele>75</ele>
        <time>2023-07-04T13:37:54Z</time>
      </trkpt>
      <trkpt lat="46.6953" lon="0.87984">
        <ele>74</ele>
        <time>2023-07-04T13:39:01Z</time>
      </trkpt>
      <trkpt lat="46.69555" lon="0.87969">
        <ele>76</ele>
        <time>2023-07-04T13:39:15Z</time>
      </trkpt>
      <trkpt lat="46.69576" lon="0.87924">
        <ele>73</ele>
        <time>2023-07-04T13:39:33Z</time>
      </trkpt>
      <trkpt lat="46.69621" lon="0.87843">
        <ele>74</ele>
        <time>2023-07-04T13:40:09Z</time>
      </trkpt>
      <trkpt lat="46.69697" lon="0.87726">
        <ele>73</ele>
        <time>2023-07-04T13:41:04Z</time>
      </trkpt>
      <trkpt lat="46.69727" lon="0.87697">
        <ele>73</ele>
        <time>2023-07-04T13:41:22Z</time>
      </trkpt>
      <trkpt lat="46.69764" lon="0.87685">
        <ele>74</ele>
        <time>2023-07-04T13:41:41Z</time>
      </trkpt>
      <trkpt lat="46.6979" lon="0.8769">
        <ele>74</ele>
        <time>2023-07-04T13:41:54Z</time>
      </trkpt>
      <trkpt lat="46.6982" lon="0.87724">
        <ele>76</ele>
        <time>2023-07-04T13:42:13Z</time>
      </trkpt>
      <trkpt lat="46.69851" lon="0.87751">
        <ele>77</ele>
        <time>2023-07-04T13:42:32Z</time>
      </trkpt>
      <trkpt lat="46.69896" lon="0.8778">
        <ele>78</ele>
        <time>2023-07-04T13:42:56Z</time>
      </trkpt>
      <trkpt lat="46.69957" lon="0.87813">
        <ele>78</ele>
        <time>2023-07-04T13:43:29Z</time>
      </trkpt>
      <trkpt lat="46.69997" lon="0.87828">
        <ele>79</ele>
        <time>2023-07-04T13:43:49Z</time>
      </trkpt>
      <trkpt lat="46.70053" lon="0.8784">
        <ele>76</ele>
        <time>2023-07-04T13:44:18Z</time>
      </trkpt>
      <trkpt lat="46.70112" lon="0.87885">
        <ele>77</ele>
        <time>2023-07-04T13:44:51Z</time>
      </trkpt>
      <trkpt lat="46.70161" lon="0.87907">
        <ele>77</ele>
        <time>2023-07-04T13:45:17Z</time>
      </trkpt>
      <trkpt lat="46.70232" lon="0.87902">
        <ele>78</ele>
        <time>2023-07-04T13:45:52Z</time>
      </trkpt>
      <trkpt lat="46.70266" lon="0.87915">
        <ele>80</ele>
        <time>2023-07-04T13:46:10Z</time>
      </trkpt>
      <trkpt lat="46.70287" lon="0.87918">
        <ele>81</ele>
        <time>2023-07-04T13:46:20Z</time>
      </trkpt>
      <trkpt lat="46.70318" lon="0.87932">
        <ele>85</ele>
        <time>2023-07-04T13:46:37Z</time>
      </trkpt>
      <trkpt lat="46.70383" lon="0.87909">
        <ele>87</ele>
        <time>2023-07-04T13:47:10Z</time>
      </trkpt>
      <trkpt lat="46.70396" lon="0.87917">
        <ele>90</ele>
        <time>2023-07-04T13:47:17Z</time>
      </trkpt>
      <trkpt lat="46.70429" lon="0.87963">
        <ele>101</ele>
        <time>2023-07-04T13:47:40Z</time>
      </trkpt>
      <trkpt lat="46.70453" lon="0.8794">
        <ele>100</ele>
        <time>2023-07-04T13:47:54Z</time>
      </trkpt>
      <trkpt lat="46.70487" lon="0.87901">
        <ele>100</ele>
        <time>2023-07-04T13:48:16Z</time>
      </trkpt>
      <trkpt lat="46.70515" lon="0.87863">
        <ele>100</ele>
        <time>2023-07-04T13:48:35Z</time>
      </trkpt>
      <trkpt lat="46.70626" lon="0.87807">
        <ele>104</ele>
        <time>2023-07-04T13:49:34Z</time>
      </trkpt>
      <trkpt lat="46.70672" lon="0.8777">
        <ele>102</ele>
        <time>2023-07-04T13:50:00Z</time>
      </trkpt>
      <trkpt lat="46.70747" lon="0.87716">
        <ele>100</ele>
        <time>2023-07-04T13:50:42Z</time>
      </trkpt>
      <trkpt lat="46.70809" lon="0.87703">
        <ele>99</ele>
        <time>2023-07-04T13:51:13Z</time>
      </trkpt>
      <trkpt lat="46.70954" lon="0.87661">
        <ele>98</ele>
        <time>2023-07-04T13:52:27Z</time>
      </trkpt>
      <trkpt lat="46.7106" lon="0.87637">
        <ele>97</ele>
        <time>2023-07-04T13:53:21Z</time>
      </trkpt>
      <trkpt lat="46.71125" lon="0.87617">
        <ele>95</ele>
        <time>2023-07-04T13:53:54Z</time>
      </trkpt>
      <trkpt lat="46.71203" lon="0.87586">
        <ele>95</ele>
        <time>2023-07-04T13:54:35Z</time>
      </trkpt>
      <trkpt lat="46.71222" lon="0.87521">
        <ele>94</ele>
        <time>2023-07-04T13:54:59Z</time>
      </trkpt>
      <trkpt lat="46.71265" lon="0.87417">
        <ele>92</ele>
        <time>2023-07-04T13:55:41Z</time>
      </trkpt>
      <trkpt lat="46.71296" lon="0.87361">
        <ele>90</ele>
        <time>2023-07-04T13:56:05Z</time>
      </trkpt>
      <trkpt lat="46.71415" lon="0.87256">
        <ele>85</ele>
        <time>2023-07-04T13:57:15Z</time>
      </trkpt>
      <trkpt lat="46.71441" lon="0.87236">
        <ele>84</ele>
        <time>2023-07-04T13:57:30Z</time>
      </trkpt>
      <trkpt lat="46.71482" lon="0.8723">
        <ele>85</ele>
        <time>2023-07-04T13:57:50Z</time>
      </trkpt>
      <trkpt lat="46.71518" lon="0.87127">
        <ele>80</ele>
        <time>2023-07-04T13:58:30Z</time>
      </trkpt>
      <trkpt lat="46.71531" lon="0.87109">
        <ele>80</ele>
        <time>2023-07-04T13:58:39Z</time>
      </trkpt>
      <trkpt lat="46.71574" lon="0.8709">
        <ele>81</ele>
        <time>2023-07-04T13:59:01Z</time>
      </trkpt>
      <trkpt lat="46.71624" lon="0.87076">
        <ele>81</ele>
        <time>2023-07-04T13:59:27Z</time>
      </trkpt>
      <trkpt lat="46.71669" lon="0.87073">
        <ele>81</ele>
        <time>2023-07-04T13:59:49Z</time>
      </trkpt>
      <trkpt lat="46.71688" lon="0.86799">
        <ele>74</ele>
        <time>2023-07-04T14:01:24Z</time>
      </trkpt>
      <trkpt lat="46.71689" lon="0.86794">
        <ele>74</ele>
        <time>2023-07-04T14:01:26Z</time>
      </trkpt>
      <trkpt lat="46.71718" lon="0.86794">
        <ele>73</ele>
        <time>2023-07-04T14:01:40Z</time>
      </trkpt>
      <trkpt lat="46.71722" lon="0.86761">
        <ele>73</ele>
        <time>2023-07-04T14:01:52Z</time>
      </trkpt>
      <trkpt lat="46.71745" lon="0.86723">
        <ele>70</ele>
        <time>2023-07-04T14:02:09Z</time>
      </trkpt>
      <trkpt lat="46.71756" lon="0.86664">
        <ele>68</ele>
        <time>2023-07-04T14:02:30Z</time>
      </trkpt>
      <trkpt lat="46.71758" lon="0.86547">
        <ele>65</ele>
        <time>2023-07-04T14:03:10Z</time>
      </trkpt>
      <trkpt lat="46.71767" lon="0.86539">
        <ele>65</ele>
        <time>2023-07-04T14:03:16Z</time>
      </trkpt>
      <trkpt lat="46.71946" lon="0.8653">
        <ele>65</ele>
        <time>2023-07-04T14:04:45Z</time>
      </trkpt>
      <trkpt lat="46.71981" lon="0.86541">
        <ele>65</ele>
        <time>2023-07-04T14:05:03Z</time>
      </trkpt>
      <trkpt lat="46.71991" lon="0.86538">
        <ele>65</ele>
        <time>2023-07-04T14:05:08Z</time>
      </trkpt>
      <trkpt lat="46.72009" lon="0.86543">
        <ele>65</ele>
        <time>2023-07-04T14:05:17Z</time>
      </trkpt>
      <trkpt lat="46.72023" lon="0.86556">
        <ele>65</ele>
        <time>2023-07-04T14:05:26Z</time>
      </trkpt>
      <trkpt lat="46.72033" lon="0.86581">
        <ele>65</ele>
        <time>2023-07-04T14:05:36Z</time>
      </trkpt>
      <trkpt lat="46.72019" lon="0.86751">
        <ele>66</ele>
        <time>2023-07-04T14:06:34Z</time>
      </trkpt>
      <trkpt lat="46.72028" lon="0.8674">
        <ele>65</ele>
        <time>2023-07-04T14:06:40Z</time>
      </trkpt>
      <trkpt lat="46.72045" lon="0.86711">
        <ele>65</ele>
        <time>2023-07-04T14:06:53Z</time>
      </trkpt>
      <trkpt lat="46.72057" lon="0.86683">
        <ele>64</ele>
        <time>2023-07-04T14:07:05Z</time>
      </trkpt>
      <trkpt lat="46.7207" lon="0.8662">
        <ele>64</ele>
        <time>2023-07-04T14:07:27Z</time>
      </trkpt>
      <trkpt lat="46.72099" lon="0.86306">
        <ele>70</ele>
        <time>2023-07-04T14:09:16Z</time>
      </trkpt>
      <trkpt lat="46.72117" lon="0.86206">
        <ele>76</ele>
        <time>2023-07-04T14:09:51Z</time>
      </trkpt>
      <trkpt lat="46.72104" lon="0.86205">
        <ele>76</ele>
        <time>2023-07-04T14:09:58Z</time>
      </trkpt>
      <trkpt lat="46.72073" lon="0.86197">
        <ele>75</ele>
        <time>2023-07-04T14:10:14Z</time>
      </trkpt>
      <trkpt lat="46.72056" lon="0.86187">
        <ele>76</ele>
        <time>2023-07-04T14:10:23Z</time>
      </trkpt>
      <trkpt lat="46.7203" lon="0.86158">
        <ele>77</ele>
        <time>2023-07-04T14:10:39Z</time>
      </trkpt>
      <trkpt lat="46.72001" lon="0.8614">
        <ele>77</ele>
        <time>2023-07-04T14:10:55Z</time>
      </trkpt>
      <trkpt lat="46.71988" lon="0.86125">
        <ele>77</ele>
        <time>2023-07-04T14:11:03Z</time>
      </trkpt>
      <trkpt lat="46.7198" lon="0.86141">
        <ele>77</ele>
        <time>2023-07-04T14:11:10Z</time>
      </trkpt>
      <trkpt lat="46.71958" lon="0.86261">
        <ele>71</ele>
        <time>2023-07-04T14:11:53Z</time>
      </trkpt>
      <trkpt lat="46.71946" lon="0.8628">
        <ele>69</ele>
        <time>2023-07-04T14:12:02Z</time>
      </trkpt>
      <trkpt lat="46.71896" lon="0.86305">
        <ele>67</ele>
        <time>2023-07-04T14:12:28Z</time>
      </trkpt>
      <trkpt lat="46.71806" lon="0.86397">
        <ele>64</ele>
        <time>2023-07-04T14:13:23Z</time>
      </trkpt>
      <trkpt lat="46.71796" lon="0.86401">
        <ele>64</ele>
        <time>2023-07-04T14:13:28Z</time>
      </trkpt>
      <trkpt lat="46.71744" lon="0.86406">
        <ele>65</ele>
        <time>2023-07-04T14:13:54Z</time>
      </trkpt>
      <trkpt lat="46.71682" lon="0.86383">
        <ele>64</ele>
        <time>2023-07-04T14:14:26Z</time>
      </trkpt>
      <trkpt lat="46.71538" lon="0.86406">
        <ele>64</ele>
        <time>2023-07-04T14:15:39Z</time>
      </trkpt>
      <trkpt lat="46.7147" lon="0.8643">
        <ele>65</ele>
        <time>2023-07-04T14:16:14Z</time>
      </trkpt>
      <trkpt lat="46.71449" lon="0.86428">
        <ele>65</ele>
        <time>2023-07-04T14:16:24Z</time>
      </trkpt>
      <trkpt lat="46.71403" lon="0.86438">
        <ele>65</ele>
        <time>2023-07-04T14:16:48Z</time>
      </trkpt>
      <trkpt lat="46.71396" lon="0.86431">
        <ele>65</ele>
        <time>2023-07-04T14:16:52Z</time>
      </trkpt>
      <trkpt lat="46.71354" lon="0.86074">
        <ele>63</ele>
        <time>2023-07-04T14:18:56Z</time>
      </trkpt>
      <trkpt lat="46.71201" lon="0.86126">
        <ele>65</ele>
        <time>2023-07-04T14:20:15Z</time>
      </trkpt>
      <trkpt lat="46.71176" lon="0.85949">
        <ele>65</ele>
        <time>2023-07-04T14:21:17Z</time>
      </trkpt>
      <trkpt lat="46.71209" lon="0.85912">
        <ele>65</ele>
        <time>2023-07-04T14:21:38Z</time>
      </trkpt>
      <trkpt lat="46.71267" lon="0.85765">
        <ele>70</ele>
        <time>2023-07-04T14:22:36Z</time>
      </trkpt>
      <trkpt lat="46.71278" lon="0.85729">
        <ele>73</ele>
        <time>2023-07-04T14:22:49Z</time>
      </trkpt>
      <trkpt lat="46.71304" lon="0.85678">
        <ele>75</ele>
        <time>2023-07-04T14:23:11Z</time>
      </trkpt>
      <trkpt lat="46.71328" lon="0.85652">
        <ele>75</ele>
        <time>2023-07-04T14:23:26Z</time>
      </trkpt>
      <trkpt lat="46.71332" lon="0.85637">
        <ele>75</ele>
        <time>2023-07-04T14:23:32Z</time>
      </trkpt>
      <trkpt lat="46.71327" lon="0.85558">
        <ele>77</ele>
        <time>2023-07-04T14:23:59Z</time>
      </trkpt>
      <trkpt lat="46.71336" lon="0.85491">
        <ele>77</ele>
        <time>2023-07-04T14:24:22Z</time>
      </trkpt>
      <trkpt lat="46.71344" lon="0.85455">
        <ele>79</ele>
        <time>2023-07-04T14:24:35Z</time>
      </trkpt>
      <trkpt lat="46.71417" lon="0.85452">
        <ele>78</ele>
        <time>2023-07-04T14:25:12Z</time>
      </trkpt>
      <trkpt lat="46.71435" lon="0.85458">
        <ele>78</ele>
        <time>2023-07-04T14:25:21Z</time>
      </trkpt>
      <trkpt lat="46.71457" lon="0.85456">
        <ele>78</ele>
        <time>2023-07-04T14:25:32Z</time>
      </trkpt>
      <trkpt lat="46.71532" lon="0.8544">
        <ele>79</ele>
        <time>2023-07-04T14:26:10Z</time>
      </trkpt>
      <trkpt lat="46.71518" lon="0.85393">
        <ele>81</ele>
        <time>2023-07-04T14:26:28Z</time>
      </trkpt>
      <trkpt lat="46.71496" lon="0.85338">
        <ele>83</ele>
        <time>2023-07-04T14:26:49Z</time>
      </trkpt>
      <trkpt lat="46.71476" lon="0.85319">
        <ele>85</ele>
        <time>2023-07-04T14:27:01Z</time>
      </trkpt>
      <trkpt lat="46.71387" lon="0.85319">
        <ele>88</ele>
        <time>2023-07-04T14:27:46Z</time>
      </trkpt>
      <trkpt lat="46.7136" lon="0.85314">
        <ele>88</ele>
        <time>2023-07-04T14:27:59Z</time>
      </trkpt>
      <trkpt lat="46.7134" lon="0.85281">
        <ele>90</ele>
        <time>2023-07-04T14:28:15Z</time>
      </trkpt>
      <trkpt lat="46.71322" lon="0.85287">
        <ele>90</ele>
        <time>2023-07-04T14:28:24Z</time>
      </trkpt>
      <trkpt lat="46.71305" lon="0.85299">
        <ele>89</ele>
        <time>2023-07-04T14:28:33Z</time>
      </trkpt>
      <trkpt lat="46.71269" lon="0.85209">
        <ele>93</ele>
        <time>2023-07-04T14:29:09Z</time>
      </trkpt>
      <trkpt lat="46.71257" lon="0.852">
        <ele>94</ele>
        <time>2023-07-04T14:29:16Z</time>
      </trkpt>
      <trkpt lat="46.71223" lon="0.85207">
        <ele>94</ele>
        <time>2023-07-04T14:29:33Z</time>
      </trkpt>
      <trkpt lat="46.71213" lon="0.85186">
        <ele>95</ele>
        <time>2023-07-04T14:29:42Z</time>
      </trkpt>
      <trkpt lat="46.71178" lon="0.85083">
        <ele>100</ele>
        <time>2023-07-04T14:30:21Z</time>
      </trkpt>
      <trkpt lat="46.7116" lon="0.85063">
        <ele>102</ele>
        <time>2023-07-04T14:30:33Z</time>
      </trkpt>
      <trkpt lat="46.7112" lon="0.85041">
        <ele>105</ele>
        <time>2023-07-04T14:30:54Z</time>
      </trkpt>
      <trkpt lat="46.71053" lon="0.84997">
        <ele>110</ele>
        <time>2023-07-04T14:31:31Z</time>
      </trkpt>
      <trkpt lat="46.71014" lon="0.84975">
        <ele>109</ele>
        <time>2023-07-04T14:31:52Z</time>
      </trkpt>
      <trkpt lat="46.71001" lon="0.84957">
        <ele>109</ele>
        <time>2023-07-04T14:32:01Z</time>
      </trkpt>
      <trkpt lat="46.70986" lon="0.84947">
        <ele>109</ele>
        <time>2023-07-04T14:32:09Z</time>
      </trkpt>
      <trkpt lat="46.70968" lon="0.84943">
        <ele>108</ele>
        <time>2023-07-04T14:32:18Z</time>
      </trkpt>
      <trkpt lat="46.709" lon="0.84937">
        <ele>107</ele>
        <time>2023-07-04T14:32:52Z</time>
      </trkpt>
      <trkpt lat="46.70859" lon="0.84942">
        <ele>108</ele>
        <time>2023-07-04T14:33:13Z</time>
      </trkpt>
      <trkpt lat="46.70849" lon="0.84863">
        <ele>108</ele>
        <time>2023-07-04T14:33:40Z</time>
      </trkpt>
      <trkpt lat="46.70852" lon="0.84809">
        <ele>108</ele>
        <time>2023-07-04T14:33:59Z</time>
      </trkpt>
      <trkpt lat="46.70858" lon="0.84787">
        <ele>109</ele>
        <time>2023-07-04T14:34:07Z</time>
      </trkpt>
      <trkpt lat="46.70877" lon="0.84754">
        <ele>111</ele>
        <time>2023-07-04T14:34:22Z</time>
      </trkpt>
      <trkpt lat="46.70885" lon="0.84728">
        <ele>113</ele>
        <time>2023-07-04T14:34:31Z</time>
      </trkpt>
      <trkpt lat="46.70877" lon="0.84492">
        <ele>121</ele>
        <time>2023-07-04T14:35:53Z</time>
      </trkpt>
      <trkpt lat="46.7088" lon="0.84431">
        <ele>121</ele>
        <time>2023-07-04T14:36:14Z</time>
      </trkpt>
      <trkpt lat="46.70903" lon="0.84383">
        <ele>122</ele>
        <time>2023-07-04T14:36:34Z</time>
      </trkpt>
      <trkpt lat="46.70923" lon="0.84351">
        <ele>125</ele>
        <time>2023-07-04T14:36:48Z</time>
      </trkpt>
      <trkpt lat="46.70978" lon="0.84248">
        <ele>133</ele>
        <time>2023-07-04T14:37:33Z</time>
      </trkpt>
      <trkpt lat="46.70994" lon="0.842">
        <ele>133</ele>
        <time>2023-07-04T14:37:52Z</time>
      </trkpt>
      <trkpt lat="46.71121" lon="0.84097">
        <ele>135</ele>
        <time>2023-07-04T14:39:04Z</time>
      </trkpt>
      <trkpt lat="46.71148" lon="0.84095">
        <ele>136</ele>
        <time>2023-07-04T14:39:18Z</time>
      </trkpt>
      <trkpt lat="46.71202" lon="0.84109">
        <ele>137</ele>
        <time>2023-07-04T14:39:45Z</time>
      </trkpt>
      <trkpt lat="46.7123" lon="0.84107">
        <ele>137</ele>
        <time>2023-07-04T14:39:59Z</time>
      </trkpt>
      <trkpt lat="46.7132" lon="0.83996">
        <ele>135</ele>
        <time>2023-07-04T14:40:58Z</time>
      </trkpt>
      <trkpt lat="46.71366" lon="0.83952">
        <ele>134</ele>
        <time>2023-07-04T14:41:26Z</time>
      </trkpt>
      <trkpt lat="46.71449" lon="0.83845">
        <ele>133</ele>
        <time>2023-07-04T14:42:21Z</time>
      </trkpt>
      <trkpt lat="46.71548" lon="0.83751">
        <ele>132</ele>
        <time>2023-07-04T14:43:20Z</time>
      </trkpt>
      <trkpt lat="46.71581" lon="0.83685">
        <ele>130</ele>
        <time>2023-07-04T14:43:48Z</time>
      </trkpt>
      <trkpt lat="46.71602" lon="0.83483">
        <ele>129</ele>
        <time>2023-07-04T14:44:59Z</time>
      </trkpt>
      <trkpt lat="46.71706" lon="0.83331">
        <ele>121</ele>
        <time>2023-07-04T14:46:12Z</time>
      </trkpt>
      <trkpt lat="46.71724" lon="0.83281">
        <ele>121</ele>
        <time>2023-07-04T14:46:32Z</time>
      </trkpt>
      <trkpt lat="46.7177" lon="0.83263">
        <ele>119</ele>
        <time>2023-07-04T14:46:55Z</time>
      </trkpt>
      <trkpt lat="46.71804" lon="0.83261">
        <ele>117</ele>
        <time>2023-07-04T14:47:12Z</time>
      </trkpt>
      <trkpt lat="46.71862" lon="0.83239">
        <ele>112</ele>
        <time>2023-07-04T14:47:42Z</time>
      </trkpt>
      <trkpt lat="46.71877" lon="0.83239">
        <ele>111</ele>
        <time>2023-07-04T14:47:50Z</time>
      </trkpt>
      <trkpt lat="46.7189" lon="0.83242">
        <ele>110</ele>
        <time>2023-07-04T14:47:57Z</time>
      </trkpt>
      <trkpt lat="46.71911" lon="0.83255">
        <ele>109</ele>
        <time>2023-07-04T14:48:08Z</time>
      </trkpt>
      <trkpt lat="46.71941" lon="0.83286">
        <ele>107</ele>
        <time>2023-07-04T14:48:26Z</time>
      </trkpt>
      <trkpt lat="46.71956" lon="0.8331">
        <ele>107</ele>
        <time>2023-07-04T14:48:37Z</time>
      </trkpt>
      <trkpt lat="46.71983" lon="0.83345">
        <ele>106</ele>
        <time>2023-07-04T14:48:56Z</time>
      </trkpt>
      <trkpt lat="46.71998" lon="0.83356">
        <ele>105</ele>
        <time>2023-07-04T14:49:04Z</time>
      </trkpt>
      <trkpt lat="46.72014" lon="0.83363">
        <ele>104</ele>
        <time>2023-07-04T14:49:12Z</time>
      </trkpt>
      <trkpt lat="46.72037" lon="0.83311">
        <ele>101</ele>
        <time>2023-07-04T14:49:34Z</time>
      </trkpt>
      <trkpt lat="46.72088" lon="0.83253">
        <ele>97</ele>
        <time>2023-07-04T14:50:06Z</time>
      </trkpt>
      <trkpt lat="46.72107" lon="0.83244">
        <ele>97</ele>
        <time>2023-07-04T14:50:16Z</time>
      </trkpt>
      <trkpt lat="46.72196" lon="0.83189">
        <ele>99</ele>
        <time>2023-07-04T14:51:04Z</time>
      </trkpt>
      <trkpt lat="46.72293" lon="0.83134">
        <ele>100</ele>
        <time>2023-07-04T14:51:56Z</time>
      </trkpt>
      <trkpt lat="46.72352" lon="0.83105">
        <ele>101</ele>
        <time>2023-07-04T14:52:27Z</time>
      </trkpt>
      <trkpt lat="46.72501" lon="0.82979">
        <ele>109</ele>
        <time>2023-07-04T14:53:54Z</time>
      </trkpt>
      <trkpt lat="46.72521" lon="0.83007">
        <ele>109</ele>
        <time>2023-07-04T14:54:08Z</time>
      </trkpt>
      <trkpt lat="46.72616" lon="0.82885">
        <ele>123</ele>
        <time>2023-07-04T14:55:11Z</time>
      </trkpt>
      <trkpt lat="46.72628" lon="0.82882">
        <ele>124</ele>
        <time>2023-07-04T14:55:17Z</time>
      </trkpt>
      <trkpt lat="46.72682" lon="0.829">
        <ele>128</ele>
        <time>2023-07-04T14:55:45Z</time>
      </trkpt>
      <trkpt lat="46.72694" lon="0.82915">
        <ele>128</ele>
        <time>2023-07-04T14:55:53Z</time>
      </trkpt>
      <trkpt lat="46.727" lon="0.82942">
        <ele>129</ele>
        <time>2023-07-04T14:56:02Z</time>
      </trkpt>
      <trkpt lat="46.72704" lon="0.83017">
        <ele>129</ele>
        <time>2023-07-04T14:56:28Z</time>
      </trkpt>
      <trkpt lat="46.72707" lon="0.83035">
        <ele>129</ele>
        <time>2023-07-04T14:56:35Z</time>
      </trkpt>
      <trkpt lat="46.72715" lon="0.83059">
        <ele>130</ele>
        <time>2023-07-04T14:56:44Z</time>
      </trkpt>
      <trkpt lat="46.72729" lon="0.83064">
        <ele>131</ele>
        <time>2023-07-04T14:56:51Z</time>
      </trkpt>
      <trkpt lat="46.72773" lon="0.8307">
        <ele>134</ele>
        <time>2023-07-04T14:57:13Z</time>
      </trkpt>
      <trkpt lat="46.72824" lon="0.83081">
        <ele>135</ele>
        <time>2023-07-04T14:57:39Z</time>
      </trkpt>
      <trkpt lat="46.72873" lon="0.83094">
        <ele>134</ele>
        <time>2023-07-04T14:58:04Z</time>
      </trkpt>
      <trkpt lat="46.72933" lon="0.83124">
        <ele>133</ele>
        <time>2023-07-04T14:58:35Z</time>
      </trkpt>
      <trkpt lat="46.72943" lon="0.83119">
        <ele>132</ele>
        <time>2023-07-04T14:58:41Z</time>
      </trkpt>
      <trkpt lat="46.73019" lon="0.82891">
        <ele>128</ele>
        <time>2023-07-04T15:00:08Z</time>
      </trkpt>
      <trkpt lat="46.73098" lon="0.82818">
        <ele>123</ele>
        <time>2023-07-04T15:00:55Z</time>
      </trkpt>
      <trkpt lat="46.73115" lon="0.82808">
        <ele>122</ele>
        <time>2023-07-04T15:01:04Z</time>
      </trkpt>
      <trkpt lat="46.73166" lon="0.82795">
        <ele>120</ele>
        <time>2023-07-04T15:01:30Z</time>
      </trkpt>
      <trkpt lat="46.73235" lon="0.8279">
        <ele>115</ele>
        <time>2023-07-04T15:02:04Z</time>
      </trkpt>
      <trkpt lat="46.73246" lon="0.82782">
        <ele>115</ele>
        <time>2023-07-04T15:02:10Z</time>
      </trkpt>
      <trkpt lat="46.73304" lon="0.82525">
        <ele>110</ele>
        <time>2023-07-04T15:03:43Z</time>
      </trkpt>
      <trkpt lat="46.73359" lon="0.82555">
        <ele>111</ele>
        <time>2023-07-04T15:04:12Z</time>
      </trkpt>
      <trkpt lat="46.73388" lon="0.82559">
        <ele>109</ele>
        <time>2023-07-04T15:04:27Z</time>
      </trkpt>
      <trkpt lat="46.73564" lon="0.8271">
        <ele>106</ele>
        <time>2023-07-04T15:06:09Z</time>
      </trkpt>
      <trkpt lat="46.73575" lon="0.8271">
        <ele>106</ele>
        <time>2023-07-04T15:06:15Z</time>
      </trkpt>
      <trkpt lat="46.73628" lon="0.8263">
        <ele>98</ele>
        <time>2023-07-04T15:06:53Z</time>
      </trkpt>
      <trkpt lat="46.73724" lon="0.82579">
        <ele>87</ele>
        <time>2023-07-04T15:07:44Z</time>
      </trkpt>
      <trkpt lat="46.73755" lon="0.82708">
        <ele>87</ele>
        <time>2023-07-04T15:08:31Z</time>
      </trkpt>
      <trkpt lat="46.73978" lon="0.82645">
        <ele>81</ele>
        <time>2023-07-04T15:10:25Z</time>
      </trkpt>
      <trkpt lat="46.73995" lon="0.82832">
        <ele>80</ele>
        <time>2023-07-04T15:11:29Z</time>
      </trkpt>
      <trkpt lat="46.74004" lon="0.82869">
        <ele>80</ele>
        <time>2023-07-04T15:11:43Z</time>
      </trkpt>
      <trkpt lat="46.74079" lon="0.83094">
        <ele>75</ele>
        <time>2023-07-04T15:13:09Z</time>
      </trkpt>
      <trkpt lat="46.74103" lon="0.83158">
        <ele>76</ele>
        <time>2023-07-04T15:13:34Z</time>
      </trkpt>
      <trkpt lat="46.74127" lon="0.83192">
        <ele>76</ele>
        <time>2023-07-04T15:13:50Z</time>
      </trkpt>
      <trkpt lat="46.74249" lon="0.83347">
        <ele>75</ele>
        <time>2023-07-04T15:15:11Z</time>
      </trkpt>
      <trkpt lat="46.74393" lon="0.83507">
        <ele>75</ele>
        <time>2023-07-04T15:16:42Z</time>
      </trkpt>
      <trkpt lat="46.74457" lon="0.83548">
        <ele>77</ele>
        <time>2023-07-04T15:17:17Z</time>
      </trkpt>
      <trkpt lat="46.74478" lon="0.83554">
        <ele>77</ele>
        <time>2023-07-04T15:17:28Z</time>
      </trkpt>
      <trkpt lat="46.74502" lon="0.83549">
        <ele>78</ele>
        <time>2023-07-04T15:17:40Z</time>
      </trkpt>
      <trkpt lat="46.74549" lon="0.83522">
        <ele>83</ele>
        <time>2023-07-04T15:18:05Z</time>
      </trkpt>
      <trkpt lat="46.74587" lon="0.83523">
        <ele>86</ele>
        <time>2023-07-04T15:18:24Z</time>
      </trkpt>
      <trkpt lat="46.74591" lon="0.83533">
        <ele>86</ele>
        <time>2023-07-04T15:18:28Z</time>
      </trkpt>
      <trkpt lat="46.74656" lon="0.8354">
        <ele>88</ele>
        <time>2023-07-04T15:19:01Z</time>
      </trkpt>
      <trkpt lat="46.7467" lon="0.83516">
        <ele>88</ele>
        <time>2023-07-04T15:19:11Z</time>
      </trkpt>
      <trkpt lat="46.74678" lon="0.83483">
        <ele>89</ele>
        <time>2023-07-04T15:19:23Z</time>
      </trkpt>
      <trkpt lat="46.74678" lon="0.83455">
        <ele>90</ele>
        <time>2023-07-04T15:19:33Z</time>
      </trkpt>
      <trkpt lat="46.74691" lon="0.83422">
        <ele>91</ele>
        <time>2023-07-04T15:19:46Z</time>
      </trkpt>
      <trkpt lat="46.74694" lon="0.83324">
        <ele>94</ele>
        <time>2023-07-04T15:20:20Z</time>
      </trkpt>
      <trkpt lat="46.74709" lon="0.8327">
        <ele>95</ele>
        <time>2023-07-04T15:20:40Z</time>
      </trkpt>
      <trkpt lat="46.74666" lon="0.83066">
        <ele>105</ele>
        <time>2023-07-04T15:21:53Z</time>
      </trkpt>
      <trkpt lat="46.74642" lon="0.82989">
        <ele>107</ele>
        <time>2023-07-04T15:22:22Z</time>
      </trkpt>
      <trkpt lat="46.74875" lon="0.82868">
        <ele>107</ele>
        <time>2023-07-04T15:24:26Z</time>
      </trkpt>
      <trkpt lat="46.74896" lon="0.82855">
        <ele>107</ele>
        <time>2023-07-04T15:24:37Z</time>
      </trkpt>
      <trkpt lat="46.74966" lon="0.82735">
        <ele>103</ele>
        <time>2023-07-04T15:25:31Z</time>
      </trkpt>
      <trkpt lat="46.74979" lon="0.8263">
        <ele>103</ele>
        <time>2023-07-04T15:26:08Z</time>
      </trkpt>
      <trkpt lat="46.74972" lon="0.8257">
        <ele>104</ele>
        <time>2023-07-04T15:26:28Z</time>
      </trkpt>
      <trkpt lat="46.75004" lon="0.82462">
        <ele>103</ele>
        <time>2023-07-04T15:27:09Z</time>
      </trkpt>
      <trkpt lat="46.75075" lon="0.82369">
        <ele>100</ele>
        <time>2023-07-04T15:27:57Z</time>
      </trkpt>
      <trkpt lat="46.75111" lon="0.82373">
        <ele>99</ele>
        <time>2023-07-04T15:28:15Z</time>
      </trkpt>
      <trkpt lat="46.7517" lon="0.82374">
        <ele>98</ele>
        <time>2023-07-04T15:28:44Z</time>
      </trkpt>
      <trkpt lat="46.75204" lon="0.82349">
        <ele>98</ele>
        <time>2023-07-04T15:29:03Z</time>
      </trkpt>
      <trkpt lat="46.75235" lon="0.82312">
        <ele>98</ele>
        <time>2023-07-04T15:29:23Z</time>
      </trkpt>
      <trkpt lat="46.75284" lon="0.82273">
        <ele>94</ele>
        <time>2023-07-04T15:29:51Z</time>
      </trkpt>
      <trkpt lat="46.75362" lon="0.82267">
        <ele>89</ele>
        <time>2023-07-04T15:30:30Z</time>
      </trkpt>
      <trkpt lat="46.75484" lon="0.82242">
        <ele>84</ele>
        <time>2023-07-04T15:31:32Z</time>
      </trkpt>
      <trkpt lat="46.75521" lon="0.82371">
        <ele>83</ele>
        <time>2023-07-04T15:32:20Z</time>
      </trkpt>
      <trkpt lat="46.75543" lon="0.82477">
        <ele>82</ele>
        <time>2023-07-04T15:32:58Z</time>
      </trkpt>
      <trkpt lat="46.75589" lon="0.8245">
        <ele>81</ele>
        <time>2023-07-04T15:33:23Z</time>
      </trkpt>
      <trkpt lat="46.75643" lon="0.82429">
        <ele>82</ele>
        <time>2023-07-04T15:33:51Z</time>
      </trkpt>
      <trkpt lat="46.75689" lon="0.82396">
        <ele>81</ele>
        <time>2023-07-04T15:34:16Z</time>
      </trkpt>
      <trkpt lat="46.75732" lon="0.8236">
        <ele>80</ele>
        <time>2023-07-04T15:34:41Z</time>
      </trkpt>
      <trkpt lat="46.75775" lon="0.82306">
        <ele>79</ele>
        <time>2023-07-04T15:35:09Z</time>
      </trkpt>
      <trkpt lat="46.75796" lon="0.82292">
        <ele>79</ele>
        <time>2023-07-04T15:35:21Z</time>
      </trkpt>
      <trkpt lat="46.7583" lon="0.82285">
        <ele>79</ele>
        <time>2023-07-04T15:35:38Z</time>
      </trkpt>
      <trkpt lat="46.75846" lon="0.82277">
        <ele>80</ele>
        <time>2023-07-04T15:35:47Z</time>
      </trkpt>
      <trkpt lat="46.75868" lon="0.82262">
        <ele>80</ele>
        <time>2023-07-04T15:35:59Z</time>
      </trkpt>
      <trkpt lat="46.75883" lon="0.82255">
        <ele>80</ele>
        <time>2023-07-04T15:36:07Z</time>
      </trkpt>
      <trkpt lat="46.75898" lon="0.82244">
        <ele>80</ele>
        <time>2023-07-04T15:36:15Z</time>
      </trkpt>
      <trkpt lat="46.75908" lon="0.82232">
        <ele>79</ele>
        <time>2023-07-04T15:36:22Z</time>
      </trkpt>
      <trkpt lat="46.75924" lon="0.82185">
        <ele>80</ele>
        <time>2023-07-04T15:36:40Z</time>
      </trkpt>
      <trkpt lat="46.75951" lon="0.8214">
        <ele>80</ele>
        <time>2023-07-04T15:37:00Z</time>
      </trkpt>
      <trkpt lat="46.75985" lon="0.82056">
        <ele>82</ele>
        <time>2023-07-04T15:37:34Z</time>
      </trkpt>
      <trkpt lat="46.76016" lon="0.81962">
        <ele>84</ele>
        <time>2023-07-04T15:38:09Z</time>
      </trkpt>
      <trkpt lat="46.76044" lon="0.81834">
        <ele>90</ele>
        <time>2023-07-04T15:38:55Z</time>
      </trkpt>
      <trkpt lat="46.76068" lon="0.81708">
        <ele>94</ele>
        <time>2023-07-04T15:39:40Z</time>
      </trkpt>
      <trkpt lat="46.76075" lon="0.81618">
        <ele>96</ele>
        <time>2023-07-04T15:40:11Z</time>
      </trkpt>
      <trkpt lat="46.76066" lon="0.81567">
        <ele>97</ele>
        <time>2023-07-04T15:40:29Z</time>
      </trkpt>
      <trkpt lat="46.75999" lon="0.815">
        <ele>96</ele>
        <time>2023-07-04T15:41:10Z</time>
      </trkpt>
      <trkpt lat="46.76001" lon="0.81481">
        <ele>97</ele>
        <time>2023-07-04T15:41:17Z</time>
      </trkpt>
      <trkpt lat="46.76017" lon="0.81454">
        <ele>98</ele>
        <time>2023-07-04T15:41:29Z</time>
      </trkpt>
      <trkpt lat="46.76015" lon="0.81427">
        <ele>99</ele>
        <time>2023-07-04T15:41:38Z</time>
      </trkpt>
      <trkpt lat="46.76005" lon="0.81394">
        <ele>99</ele>
        <time>2023-07-04T15:41:50Z</time>
      </trkpt>
      <trkpt lat="46.76005" lon="0.81373">
        <ele>100</ele>
        <time>2023-07-04T15:41:58Z</time>
      </trkpt>
      <trkpt lat="46.76043" lon="0.81302">
        <ele>102</ele>
        <time>2023-07-04T15:42:29Z</time>
      </trkpt>
      <trkpt lat="46.76144" lon="0.8119">
        <ele>109</ele>
        <time>2023-07-04T15:43:32Z</time>
      </trkpt>
      <trkpt lat="46.76283" lon="0.80974">
        <ele>127</ele>
        <time>2023-07-04T15:45:14Z</time>
      </trkpt>
      <trkpt lat="46.76303" lon="0.80978">
        <ele>129</ele>
        <time>2023-07-04T15:45:24Z</time>
      </trkpt>
      <trkpt lat="46.76342" lon="0.80923">
        <ele>133</ele>
        <time>2023-07-04T15:45:51Z</time>
      </trkpt>
      <trkpt lat="46.76382" lon="0.80978">
        <ele>133</ele>
        <time>2023-07-04T15:46:18Z</time>
      </trkpt>
      <trkpt lat="46.76484" lon="0.8081">
        <ele>139</ele>
        <time>2023-07-04T15:47:35Z</time>
      </trkpt>
      <trkpt lat="46.76516" lon="0.80735">
        <ele>138</ele>
        <time>2023-07-04T15:48:06Z</time>
      </trkpt>
      <trkpt lat="46.7652" lon="0.80705">
        <ele>137</ele>
        <time>2023-07-04T15:48:16Z</time>
      </trkpt>
      <trkpt lat="46.76511" lon="0.80678">
        <ele>137</ele>
        <time>2023-07-04T15:48:26Z</time>
      </trkpt>
      <trkpt lat="46.7657" lon="0.80728">
        <ele>137</ele>
        <time>2023-07-04T15:49:00Z</time>
      </trkpt>
      <trkpt lat="46.76618" lon="0.80794">
        <ele>137</ele>
        <time>2023-07-04T15:49:33Z</time>
      </trkpt>
      <trkpt lat="46.76806" lon="0.80989">
        <ele>136</ele>
        <time>2023-07-04T15:51:29Z</time>
      </trkpt>
      <trkpt lat="46.76898" lon="0.81022">
        <ele>133</ele>
        <time>2023-07-04T15:52:16Z</time>
      </trkpt>
      <trkpt lat="46.76964" lon="0.81064">
        <ele>132</ele>
        <time>2023-07-04T15:52:52Z</time>
      </trkpt>
      <trkpt lat="46.77071" lon="0.8114">
        <ele>134</ele>
        <time>2023-07-04T15:53:52Z</time>
      </trkpt>
      <trkpt lat="46.77178" lon="0.81181">
        <ele>125</ele>
        <time>2023-07-04T15:54:47Z</time>
      </trkpt>
      <trkpt lat="46.77225" lon="0.81191">
        <ele>122</ele>
        <time>2023-07-04T15:55:11Z</time>
      </trkpt>
      <trkpt lat="46.77347" lon="0.81206">
        <ele>119</ele>
        <time>2023-07-04T15:56:12Z</time>
      </trkpt>
      <trkpt lat="46.77432" lon="0.81234">
        <ele>115</ele>
        <time>2023-07-04T15:56:56Z</time>
      </trkpt>
      <trkpt lat="46.77464" lon="0.81237">
        <ele>114</ele>
        <time>2023-07-04T15:57:12Z</time>
      </trkpt>
      <trkpt lat="46.77484" lon="0.81245">
        <ele>113</ele>
        <time>2023-07-04T15:57:22Z</time>
      </trkpt>
      <trkpt lat="46.77503" lon="0.81256">
        <ele>113</ele>
        <time>2023-07-04T15:57:33Z</time>
      </trkpt>
      <trkpt lat="46.77544" lon="0.81298">
        <ele>109</ele>
        <time>2023-07-04T15:57:58Z</time>
      </trkpt>
      <trkpt lat="46.77632" lon="0.81364">
        <ele>105</ele>
        <time>2023-07-04T15:58:47Z</time>
      </trkpt>
      <trkpt lat="46.77649" lon="0.81371">
        <ele>104</ele>
        <time>2023-07-04T15:58:56Z</time>
      </trkpt>
      <trkpt lat="46.7776" lon="0.8139">
        <ele>103</ele>
        <time>2023-07-04T15:59:52Z</time>
      </trkpt>
      <trkpt lat="46.77781" lon="0.81396">
        <ele>103</ele>
        <time>2023-07-04T16:00:03Z</time>
      </trkpt>
      <trkpt lat="46.77858" lon="0.81431">
        <ele>103</ele>
        <time>2023-07-04T16:00:43Z</time>
      </trkpt>
      <trkpt lat="46.7788" lon="0.81429">
        <ele>103</ele>
        <time>2023-07-04T16:00:54Z</time>
      </trkpt>
      <trkpt lat="46.78036" lon="0.81342">
        <ele>102</ele>
        <time>2023-07-04T16:02:18Z</time>
      </trkpt>
      <trkpt lat="46.7806" lon="0.81326">
        <ele>101</ele>
        <time>2023-07-04T16:02:31Z</time>
      </trkpt>
      <trkpt lat="46.78105" lon="0.81402">
        <ele>102</ele>
        <time>2023-07-04T16:03:05Z</time>
      </trkpt>
      <trkpt lat="46.78155" lon="0.81479">
        <ele>103</ele>
        <time>2023-07-04T16:03:41Z</time>
      </trkpt>
      <trkpt lat="46.78195" lon="0.81533">
        <ele>104</ele>
        <time>2023-07-04T16:04:09Z</time>
      </trkpt>
      <trkpt lat="46.78214" lon="0.81548">
        <ele>104</ele>
        <time>2023-07-04T16:04:20Z</time>
      </trkpt>
      <trkpt lat="46.78265" lon="0.81573">
        <ele>102</ele>
        <time>2023-07-04T16:04:46Z</time>
      </trkpt>
      <trkpt lat="46.78313" lon="0.816">
        <ele>99</ele>
        <time>2023-07-04T16:05:12Z</time>
      </trkpt>
      <trkpt lat="46.78348" lon="0.81628">
        <ele>96</ele>
        <time>2023-07-04T16:05:32Z</time>
      </trkpt>
      <trkpt lat="46.78391" lon="0.81677">
        <ele>91</ele>
        <time>2023-07-04T16:05:59Z</time>
      </trkpt>
      <trkpt lat="46.78437" lon="0.81735">
        <ele>85</ele>
        <time>2023-07-04T16:06:30Z</time>
      </trkpt>
      <trkpt lat="46.78446" lon="0.81741">
        <ele>84</ele>
        <time>2023-07-04T16:06:35Z</time>
      </trkpt>
      <trkpt lat="46.78485" lon="0.81782">
        <ele>78</ele>
        <time>2023-07-04T16:06:59Z</time>
      </trkpt>
      <trkpt lat="46.78496" lon="0.81805">
        <ele>75</ele>
        <time>2023-07-04T16:07:09Z</time>
      </trkpt>
      <trkpt lat="46.78499" lon="0.81821">
        <ele>74</ele>
        <time>2023-07-04T16:07:14Z</time>
      </trkpt>
      <trkpt lat="46.7853" lon="0.81806">
        <ele>71</ele>
        <time>2023-07-04T16:07:31Z</time>
      </trkpt>
      <trkpt lat="46.78543" lon="0.81793">
        <ele>70</ele>
        <time>2023-07-04T16:07:38Z</time>
      </trkpt>
      <trkpt lat="46.78604" lon="0.81694">
        <ele>71</ele>
        <time>2023-07-04T16:08:24Z</time>
      </trkpt>
      <trkpt lat="46.78613" lon="0.81655">
        <ele>72</ele>
        <time>2023-07-04T16:08:38Z</time>
      </trkpt>
      <trkpt lat="46.78626" lon="0.81649">
        <ele>71</ele>
        <time>2023-07-04T16:08:45Z</time>
      </trkpt>
      <trkpt lat="46.78636" lon="0.81636">
        <ele>71</ele>
        <time>2023-07-04T16:08:52Z</time>
      </trkpt>
      <trkpt lat="46.78637" lon="0.81629">
        <ele>71</ele>
        <time>2023-07-04T16:08:54Z</time>
      </trkpt>
      <trkpt lat="46.7863" lon="0.816">
        <ele>74</ele>
        <time>2023-07-04T16:09:05Z</time>
      </trkpt>
      <trkpt lat="46.78629" lon="0.81581">
        <ele>75</ele>
        <time>2023-07-04T16:09:11Z</time>
      </trkpt>
      <trkpt lat="46.78631" lon="0.81567">
        <ele>75</ele>
        <time>2023-07-04T16:09:16Z</time>
      </trkpt>
      <trkpt lat="46.78636" lon="0.81557">
        <ele>75</ele>
        <time>2023-07-04T16:09:20Z</time>
      </trkpt>
      <trkpt lat="46.78634" lon="0.81553">
        <ele>75</ele>
        <time>2023-07-04T16:09:22Z</time>
      </trkpt>
      <trkpt lat="46.78639" lon="0.81506">
        <ele>77</ele>
        <time>2023-07-04T16:09:38Z</time>
      </trkpt>
      <trkpt lat="46.78648" lon="0.81464">
        <ele>76</ele>
        <time>2023-07-04T16:09:53Z</time>
      </trkpt>
      <trkpt lat="46.7866" lon="0.81431">
        <ele>75</ele>
        <time>2023-07-04T16:10:06Z</time>
      </trkpt>
      <trkpt lat="46.78679" lon="0.81409">
        <ele>74</ele>
        <time>2023-07-04T16:10:18Z</time>
      </trkpt>
      <trkpt lat="46.78703" lon="0.81387">
        <ele>72</ele>
        <time>2023-07-04T16:10:33Z</time>
      </trkpt>
      <trkpt lat="46.78716" lon="0.81428">
        <ele>73</ele>
        <time>2023-07-04T16:10:48Z</time>
      </trkpt>
      <trkpt lat="46.78742" lon="0.81476">
        <ele>70</ele>
        <time>2023-07-04T16:11:09Z</time>
      </trkpt>
      <trkpt lat="46.78945" lon="0.81774">
        <ele>59</ele>
        <time>2023-07-04T16:13:33Z</time>
      </trkpt>
      <trkpt lat="46.79091" lon="0.81958">
        <ele>59</ele>
        <time>2023-07-04T16:15:10Z</time>
      </trkpt>
      <trkpt lat="46.79147" lon="0.81919">
        <ele>58</ele>
        <time>2023-07-04T16:15:41Z</time>
      </trkpt>
      <trkpt lat="46.79156" lon="0.8191">
        <ele>58</ele>
        <time>2023-07-04T16:15:46Z</time>
      </trkpt>
      <trkpt lat="46.79159" lon="0.81897">
        <ele>58</ele>
        <time>2023-07-04T16:15:51Z</time>
      </trkpt>
      <trkpt lat="46.79158" lon="0.81864">
        <ele>58</ele>
        <time>2023-07-04T16:16:02Z</time>
      </trkpt>
      <trkpt lat="46.79162" lon="0.81853">
        <ele>58</ele>
        <time>2023-07-04T16:16:06Z</time>
      </trkpt>
      <trkpt lat="46.7917" lon="0.81846">
        <ele>58</ele>
        <time>2023-07-04T16:16:11Z</time>
      </trkpt>
      <trkpt lat="46.79188" lon="0.81842">
        <ele>58</ele>
        <time>2023-07-04T16:16:20Z</time>
      </trkpt>
      <trkpt lat="46.79206" lon="0.81843">
        <ele>58</ele>
        <time>2023-07-04T16:16:29Z</time>
      </trkpt>
      <trkpt lat="46.79361" lon="0.81894">
        <ele>58</ele>
        <time>2023-07-04T16:17:49Z</time>
      </trkpt>
      <trkpt lat="46.79436" lon="0.81914">
        <ele>59</ele>
        <time>2023-07-04T16:18:27Z</time>
      </trkpt>
      <trkpt lat="46.79583" lon="0.81945">
        <ele>58</ele>
        <time>2023-07-04T16:19:41Z</time>
      </trkpt>
      <trkpt lat="46.79602" lon="0.81942">
        <ele>58</ele>
        <time>2023-07-04T16:19:51Z</time>
      </trkpt>
      <trkpt lat="46.79621" lon="0.81933">
        <ele>58</ele>
        <time>2023-07-04T16:20:01Z</time>
      </trkpt>
      <trkpt lat="46.79643" lon="0.81914">
        <ele>58</ele>
        <time>2023-07-04T16:20:13Z</time>
      </trkpt>
      <trkpt lat="46.79653" lon="0.81914">
        <ele>58</ele>
        <time>2023-07-04T16:20:18Z</time>
      </trkpt>
      <trkpt lat="46.79659" lon="0.8192">
        <ele>58</ele>
        <time>2023-07-04T16:20:22Z</time>
      </trkpt>
      <trkpt lat="46.7967" lon="0.81923">
        <ele>58</ele>
        <time>2023-07-04T16:20:28Z</time>
      </trkpt>
      <trkpt lat="46.79693" lon="0.81912">
        <ele>58</ele>
        <time>2023-07-04T16:20:40Z</time>
      </trkpt>
      <trkpt lat="46.79748" lon="0.81892">
        <ele>59</ele>
        <time>2023-07-04T16:21:08Z</time>
      </trkpt>
      <trkpt lat="46.79935" lon="0.81841">
        <ele>60</ele>
        <time>2023-07-04T16:22:43Z</time>
      </trkpt>
      <trkpt lat="46.80056" lon="0.81799">
        <ele>58</ele>
        <time>2023-07-04T16:23:46Z</time>
      </trkpt>
      <trkpt lat="46.80127" lon="0.81778">
        <ele>58</ele>
        <time>2023-07-04T16:24:22Z</time>
      </trkpt>
      <trkpt lat="46.80192" lon="0.81775">
        <ele>58</ele>
        <time>2023-07-04T16:24:54Z</time>
      </trkpt>
      <trkpt lat="46.80221" lon="0.81784">
        <ele>58</ele>
        <time>2023-07-04T16:25:09Z</time>
      </trkpt>
      <trkpt lat="46.80261" lon="0.81778">
        <ele>58</ele>
        <time>2023-07-04T16:25:29Z</time>
      </trkpt>
      <trkpt lat="46.80293" lon="0.81762">
        <ele>58</ele>
        <time>2023-07-04T16:25:46Z</time>
      </trkpt>
      <trkpt lat="46.80321" lon="0.81764">
        <ele>58</ele>
        <time>2023-07-04T16:26:00Z</time>
      </trkpt>
      <trkpt lat="46.80384" lon="0.81798">
        <ele>58</ele>
        <time>2023-07-04T16:26:34Z</time>
      </trkpt>
      <trkpt lat="46.80469" lon="0.81848">
        <ele>58</ele>
        <time>2023-07-04T16:27:20Z</time>
      </trkpt>
      <trkpt lat="46.80524" lon="0.81873">
        <ele>59</ele>
        <time>2023-07-04T16:27:49Z</time>
      </trkpt>
      <trkpt lat="46.80603" lon="0.81982">
        <ele>58</ele>
        <time>2023-07-04T16:28:43Z</time>
      </trkpt>
      <trkpt lat="46.80633" lon="0.82031">
        <ele>59</ele>
        <time>2023-07-04T16:29:05Z</time>
      </trkpt>
      <trkpt lat="46.80641" lon="0.82017">
        <ele>59</ele>
        <time>2023-07-04T16:29:12Z</time>
      </trkpt>
      <trkpt lat="46.8065" lon="0.82009">
        <ele>59</ele>
        <time>2023-07-04T16:29:17Z</time>
      </trkpt>
      <trkpt lat="46.8075" lon="0.81944">
        <ele>59</ele>
        <time>2023-07-04T16:30:12Z</time>
      </trkpt>
      <trkpt lat="46.80872" lon="0.81884">
        <ele>58</ele>
        <time>2023-07-04T16:31:16Z</time>
      </trkpt>
      <trkpt lat="46.81011" lon="0.81858">
        <ele>59</ele>
        <time>2023-07-04T16:32:26Z</time>
      </trkpt>
      <trkpt lat="46.81149" lon="0.81828">
        <ele>59</ele>
        <time>2023-07-04T16:33:36Z</time>
      </trkpt>
      <trkpt lat="46.8119" lon="0.81829">
        <ele>60</ele>
        <time>2023-07-04T16:33:57Z</time>
      </trkpt>
      <trkpt lat="46.81267" lon="0.8186">
        <ele>59</ele>
        <time>2023-07-04T16:34:37Z</time>
      </trkpt>
      <trkpt lat="46.81319" lon="0.81867">
        <ele>59</ele>
        <time>2023-07-04T16:35:03Z</time>
      </trkpt>
      <trkpt lat="46.81516" lon="0.81882">
        <ele>60</ele>
        <time>2023-07-04T16:36:41Z</time>
      </trkpt>
      <trkpt lat="46.8155" lon="0.81877">
        <ele>60</ele>
        <time>2023-07-04T16:36:59Z</time>
      </trkpt>
      <trkpt lat="46.81611" lon="0.81855">
        <ele>60</ele>
        <time>2023-07-04T16:37:30Z</time>
      </trkpt>
      <trkpt lat="46.81702" lon="0.81818">
        <ele>58</ele>
        <time>2023-07-04T16:38:17Z</time>
      </trkpt>
      <trkpt lat="46.81741" lon="0.81796">
        <ele>58</ele>
        <time>2023-07-04T16:38:38Z</time>
      </trkpt>
      <trkpt lat="46.81799" lon="0.8197">
        <ele>60</ele>
        <time>2023-07-04T16:39:44Z</time>
      </trkpt>
      <trkpt lat="46.81906" lon="0.82369">
        <ele>65</ele>
        <time>2023-07-04T16:42:11Z</time>
      </trkpt>
      <trkpt lat="46.81943" lon="0.82562">
        <ele>71</ele>
        <time>2023-07-04T16:43:20Z</time>
      </trkpt>
      <trkpt lat="46.81947" lon="0.82571">
        <ele>71</ele>
        <time>2023-07-04T16:43:24Z</time>
      </trkpt>
      <trkpt lat="46.81956" lon="0.82573">
        <ele>71</ele>
        <time>2023-07-04T16:43:28Z</time>
      </trkpt>
      <trkpt lat="46.82006" lon="0.82554">
        <ele>70</ele>
        <time>2023-07-04T16:43:54Z</time>
      </trkpt>
      <trkpt lat="46.82056" lon="0.82542">
        <ele>70</ele>
        <time>2023-07-04T16:44:19Z</time>
      </trkpt>
      <trkpt lat="46.8208" lon="0.82539">
        <ele>69</ele>
        <time>2023-07-04T16:44:31Z</time>
      </trkpt>
      <trkpt lat="46.82091" lon="0.82541">
        <ele>70</ele>
        <time>2023-07-04T16:44:37Z</time>
      </trkpt>
      <trkpt lat="46.82099" lon="0.82546">
        <ele>70</ele>
        <time>2023-07-04T16:44:41Z</time>
      </trkpt>
      <trkpt lat="46.82124" lon="0.82587">
        <ele>72</ele>
        <time>2023-07-04T16:45:00Z</time>
      </trkpt>
      <trkpt lat="46.82131" lon="0.82594">
        <ele>73</ele>
        <time>2023-07-04T16:45:04Z</time>
      </trkpt>
      <trkpt lat="46.82156" lon="0.82601">
        <ele>74</ele>
        <time>2023-07-04T16:45:17Z</time>
      </trkpt>
      <trkpt lat="46.8217" lon="0.82599">
        <ele>74</ele>
        <time>2023-07-04T16:45:24Z</time>
      </trkpt>
      <trkpt lat="46.82225" lon="0.82566">
        <ele>72</ele>
        <time>2023-07-04T16:45:54Z</time>
      </trkpt>
      <trkpt lat="46.82245" lon="0.82558">
        <ele>71</ele>
        <time>2023-07-04T16:46:04Z</time>
      </trkpt>
      <trkpt lat="46.82266" lon="0.82553">
        <ele>71</ele>
        <time>2023-07-04T16:46:15Z</time>
      </trkpt>
      <trkpt lat="46.82303" lon="0.82551">
        <ele>70</ele>
        <time>2023-07-04T16:46:33Z</time>
      </trkpt>
      <trkpt lat="46.82341" lon="0.82542">
        <ele>69</ele>
        <time>2023-07-04T16:46:53Z</time>
      </trkpt>
      <trkpt lat="46.82363" lon="0.82531">
        <ele>70</ele>
        <time>2023-07-04T16:47:04Z</time>
      </trkpt>
      <trkpt lat="46.82412" lon="0.82487">
        <ele>70</ele>
        <time>2023-07-04T16:47:33Z</time>
      </trkpt>
      <trkpt lat="46.82488" lon="0.82409">
        <ele>70</ele>
        <time>2023-07-04T16:48:20Z</time>
      </trkpt>
      <trkpt lat="46.82506" lon="0.82401">
        <ele>70</ele>
        <time>2023-07-04T16:48:29Z</time>
      </trkpt>
      <trkpt lat="46.82561" lon="0.82388">
        <ele>71</ele>
        <time>2023-07-04T16:48:57Z</time>
      </trkpt>
      <trkpt lat="46.82583" lon="0.82388">
        <ele>72</ele>
        <time>2023-07-04T16:49:08Z</time>
      </trkpt>
      <trkpt lat="46.82664" lon="0.82426">
        <ele>73</ele>
        <time>2023-07-04T16:49:50Z</time>
      </trkpt>
      <trkpt lat="46.8268" lon="0.82425">
        <ele>73</ele>
        <time>2023-07-04T16:49:58Z</time>
      </trkpt>
      <trkpt lat="46.82701" lon="0.82414">
        <ele>73</ele>
        <time>2023-07-04T16:50:10Z</time>
      </trkpt>
      <trkpt lat="46.82807" lon="0.8237">
        <ele>73</ele>
        <time>2023-07-04T16:51:05Z</time>
      </trkpt>
      <trkpt lat="46.82891" lon="0.82293">
        <ele>69</ele>
        <time>2023-07-04T16:51:54Z</time>
      </trkpt>
      <trkpt lat="46.82951" lon="0.82261">
        <ele>69</ele>
        <time>2023-07-04T16:52:26Z</time>
      </trkpt>
      <trkpt lat="46.83023" lon="0.82213">
        <ele>67</ele>
        <time>2023-07-04T16:53:06Z</time>
      </trkpt>
      <trkpt lat="46.83058" lon="0.82193">
        <ele>67</ele>
        <time>2023-07-04T16:53:25Z</time>
      </trkpt>
      <trkpt lat="46.83165" lon="0.82153">
        <ele>66</ele>
        <time>2023-07-04T16:54:20Z</time>
      </trkpt>
      <trkpt lat="46.83179" lon="0.82192">
        <ele>67</ele>
        <time>2023-07-04T16:54:35Z</time>
      </trkpt>
      <trkpt lat="46.83195" lon="0.82261">
        <ele>71</ele>
        <time>2023-07-04T16:55:00Z</time>
      </trkpt>
      <trkpt lat="46.83201" lon="0.823">
        <ele>75</ele>
        <time>2023-07-04T16:55:14Z</time>
      </trkpt>
      <trkpt lat="46.83208" lon="0.8246">
        <ele>84</ele>
        <time>2023-07-04T16:56:09Z</time>
      </trkpt>
      <trkpt lat="46.83207" lon="0.82588">
        <ele>89</ele>
        <time>2023-07-04T16:56:52Z</time>
      </trkpt>
      <trkpt lat="46.83225" lon="0.82664">
        <ele>90</ele>
        <time>2023-07-04T16:57:20Z</time>
      </trkpt>
      <trkpt lat="46.83231" lon="0.82672">
        <ele>91</ele>
        <time>2023-07-04T16:57:24Z</time>
      </trkpt>
      <trkpt lat="46.83252" lon="0.8269">
        <ele>93</ele>
        <time>2023-07-04T16:57:36Z</time>
      </trkpt>
      <trkpt lat="46.8328" lon="0.8271">
        <ele>96</ele>
        <time>2023-07-04T16:57:52Z</time>
      </trkpt>
      <trkpt lat="46.83293" lon="0.82725">
        <ele>98</ele>
        <time>2023-07-04T16:58:00Z</time>
      </trkpt>
      <trkpt lat="46.83311" lon="0.82768">
        <ele>102</ele>
        <time>2023-07-04T16:58:17Z</time>
      </trkpt>
      <trkpt lat="46.83312" lon="0.82784">
        <ele>102</ele>
        <time>2023-07-04T16:58:23Z</time>
      </trkpt>
      <trkpt lat="46.83311" lon="0.82768">
        <ele>102</ele>
        <time>2023-07-04T16:58:28Z</time>
      </trkpt>
      <trkpt lat="46.83316" lon="0.82777">
        <ele>102</ele>
        <time>2023-07-04T16:58:32Z</time>
      </trkpt>
      <trkpt lat="46.83332" lon="0.82792">
        <ele>104</ele>
        <time>2023-07-04T16:58:42Z</time>
      </trkpt>
      <trkpt lat="46.83371" lon="0.82823">
        <ele>111</ele>
        <time>2023-07-04T16:59:04Z</time>
      </trkpt>
      <trkpt lat="46.83406" lon="0.82841">
        <ele>116</ele>
        <time>2023-07-04T16:59:23Z</time>
      </trkpt>
      <trkpt lat="46.83476" lon="0.82867">
        <ele>124</ele>
        <time>2023-07-04T16:59:59Z</time>
      </trkpt>
      <trkpt lat="46.835" lon="0.82892">
        <ele>126</ele>
        <time>2023-07-04T17:00:14Z</time>
      </trkpt>
      <trkpt lat="46.8351" lon="0.82915">
        <ele>126</ele>
        <time>2023-07-04T17:00:23Z</time>
      </trkpt>
      <trkpt lat="46.8352" lon="0.82929">
        <ele>127</ele>
        <time>2023-07-04T17:00:30Z</time>
      </trkpt>
      <trkpt lat="46.83528" lon="0.82936">
        <ele>128</ele>
        <time>2023-07-04T17:00:34Z</time>
      </trkpt>
      <trkpt lat="46.83561" lon="0.82955">
        <ele>130</ele>
        <time>2023-07-04T17:00:52Z</time>
      </trkpt>
      <trkpt lat="46.83596" lon="0.82988">
        <ele>132</ele>
        <time>2023-07-04T17:01:13Z</time>
      </trkpt>
      <trkpt lat="46.83705" lon="0.83191">
        <ele>135</ele>
        <time>2023-07-04T17:02:41Z</time>
      </trkpt>
      <trkpt lat="46.8372" lon="0.83212">
        <ele>135</ele>
        <time>2023-07-04T17:02:52Z</time>
      </trkpt>
      <trkpt lat="46.83729" lon="0.83223">
        <ele>135</ele>
        <time>2023-07-04T17:02:58Z</time>
      </trkpt>
      <trkpt lat="46.83854" lon="0.83344">
        <ele>134</ele>
        <time>2023-07-04T17:04:13Z</time>
      </trkpt>
      <trkpt lat="46.8393" lon="0.83397">
        <ele>131</ele>
        <time>2023-07-04T17:04:55Z</time>
      </trkpt>
      <trkpt lat="46.84025" lon="0.83384">
        <ele>128</ele>
        <time>2023-07-04T17:05:43Z</time>
      </trkpt>
      <trkpt lat="46.84086" lon="0.8334">
        <ele>125</ele>
        <time>2023-07-04T17:06:17Z</time>
      </trkpt>
      <trkpt lat="46.84159" lon="0.83322">
        <ele>123</ele>
        <time>2023-07-04T17:06:54Z</time>
      </trkpt>
      <trkpt lat="46.84241" lon="0.83294">
        <ele>126</ele>
        <time>2023-07-04T17:07:36Z</time>
      </trkpt>
      <trkpt lat="46.84265" lon="0.83314">
        <ele>127</ele>
        <time>2023-07-04T17:07:50Z</time>
      </trkpt>
      <trkpt lat="46.84276" lon="0.83315">
        <ele>127</ele>
        <time>2023-07-04T17:07:55Z</time>
      </trkpt>
      <trkpt lat="46.84335" lon="0.83353">
        <ele>128</ele>
        <time>2023-07-04T17:08:27Z</time>
      </trkpt>
      <trkpt lat="46.84421" lon="0.8304">
        <ele>130</ele>
        <time>2023-07-04T17:10:23Z</time>
      </trkpt>
      <trkpt lat="46.84425" lon="0.82885">
        <ele>131</ele>
        <time>2023-07-04T17:11:16Z</time>
      </trkpt>
      <trkpt lat="46.84445" lon="0.82804">
        <ele>132</ele>
        <time>2023-07-04T17:11:45Z</time>
      </trkpt>
      <trkpt lat="46.84482" lon="0.8274">
        <ele>132</ele>
        <time>2023-07-04T17:12:14Z</time>
      </trkpt>
      <trkpt lat="46.84641" lon="0.82595">
        <ele>129</ele>
        <time>2023-07-04T17:13:48Z</time>
      </trkpt>
      <trkpt lat="46.84657" lon="0.82576">
        <ele>129</ele>
        <time>2023-07-04T17:13:58Z</time>
      </trkpt>
      <trkpt lat="46.84685" lon="0.82508">
        <ele>128</ele>
        <time>2023-07-04T17:14:25Z</time>
      </trkpt>
      <trkpt lat="46.847" lon="0.82504">
        <ele>127</ele>
        <time>2023-07-04T17:14:33Z</time>
      </trkpt>
      <trkpt lat="46.84775" lon="0.82514">
        <ele>125</ele>
        <time>2023-07-04T17:15:11Z</time>
      </trkpt>
      <trkpt lat="46.84809" lon="0.82508">
        <ele>125</ele>
        <time>2023-07-04T17:15:28Z</time>
      </trkpt>
      <trkpt lat="46.84857" lon="0.82492">
        <ele>124</ele>
        <time>2023-07-04T17:15:52Z</time>
      </trkpt>
      <trkpt lat="46.84917" lon="0.82445">
        <ele>122</ele>
        <time>2023-07-04T17:16:26Z</time>
      </trkpt>
      <trkpt lat="46.84927" lon="0.82445">
        <ele>122</ele>
        <time>2023-07-04T17:16:31Z</time>
      </trkpt>
      <trkpt lat="46.85012" lon="0.8249">
        <ele>119</ele>
        <time>2023-07-04T17:17:17Z</time>
      </trkpt>
      <trkpt lat="46.85004" lon="0.82615">
        <ele>120</ele>
        <time>2023-07-04T17:18:00Z</time>
      </trkpt>
      <trkpt lat="46.85011" lon="0.82656">
        <ele>122</ele>
        <time>2023-07-04T17:18:14Z</time>
      </trkpt>
      <trkpt lat="46.85112" lon="0.82841">
        <ele>125</ele>
        <time>2023-07-04T17:19:35Z</time>
      </trkpt>
      <trkpt lat="46.8512" lon="0.83064">
        <ele>131</ele>
        <time>2023-07-04T17:20:52Z</time>
      </trkpt>
      <trkpt lat="46.85125" lon="0.83074">
        <ele>131</ele>
        <time>2023-07-04T17:20:56Z</time>
      </trkpt>
      <trkpt lat="46.85336" lon="0.83265">
        <ele>131</ele>
        <time>2023-07-04T17:23:00Z</time>
      </trkpt>
      <trkpt lat="46.85415" lon="0.83286">
        <ele>129</ele>
        <time>2023-07-04T17:23:40Z</time>
      </trkpt>
      <trkpt lat="46.85625" lon="0.83406">
        <ele>131</ele>
        <time>2023-07-04T17:25:33Z</time>
      </trkpt>
      <trkpt lat="46.85617" lon="0.83559">
        <ele>128</ele>
        <time>2023-07-04T17:26:26Z</time>
      </trkpt>
      <trkpt lat="46.85623" lon="0.83679">
        <ele>127</ele>
        <time>2023-07-04T17:27:07Z</time>
      </trkpt>
      <trkpt lat="46.85636" lon="0.83727">
        <ele>125</ele>
        <time>2023-07-04T17:27:24Z</time>
      </trkpt>
      <trkpt lat="46.85648" lon="0.83881">
        <ele>120</ele>
        <time>2023-07-04T17:28:17Z</time>
      </trkpt>
      <trkpt lat="46.85658" lon="0.83874">
        <ele>120</ele>
        <time>2023-07-04T17:28:23Z</time>
      </trkpt>
      <trkpt lat="46.85732" lon="0.83878">
        <ele>116</ele>
        <time>2023-07-04T17:29:00Z</time>
      </trkpt>
      <trkpt lat="46.85817" lon="0.83886">
        <ele>110</ele>
        <time>2023-07-04T17:29:43Z</time>
      </trkpt>
      <trkpt lat="46.8588" lon="0.83886">
        <ele>105</ele>
        <time>2023-07-04T17:30:14Z</time>
      </trkpt>
      <trkpt lat="46.85913" lon="0.83919">
        <ele>103</ele>
        <time>2023-07-04T17:30:34Z</time>
      </trkpt>
      <trkpt lat="46.85943" lon="0.83937">
        <ele>103</ele>
        <time>2023-07-04T17:30:50Z</time>
      </trkpt>
      <trkpt lat="46.8598" lon="0.83943">
        <ele>102</ele>
        <time>2023-07-04T17:31:09Z</time>
      </trkpt>
      <trkpt lat="46.86008" lon="0.83966">
        <ele>102</ele>
        <time>2023-07-04T17:31:25Z</time>
      </trkpt>
      <trkpt lat="46.8604" lon="0.83998">
        <ele>101</ele>
        <time>2023-07-04T17:31:45Z</time>
      </trkpt>
      <trkpt lat="46.86094" lon="0.8406">
        <ele>98</ele>
        <time>2023-07-04T17:32:19Z</time>
      </trkpt>
      <trkpt lat="46.8616" lon="0.84158">
        <ele>96</ele>
        <time>2023-07-04T17:33:06Z</time>
      </trkpt>
      <trkpt lat="46.86187" lon="0.84225">
        <ele>96</ele>
        <time>2023-07-04T17:33:33Z</time>
      </trkpt>
      <trkpt lat="46.86228" lon="0.84271">
        <ele>95</ele>
        <time>2023-07-04T17:33:58Z</time>
      </trkpt>
      <trkpt lat="46.86254" lon="0.84311">
        <ele>95</ele>
        <time>2023-07-04T17:34:17Z</time>
      </trkpt>
      <trkpt lat="46.86288" lon="0.84354">
        <ele>94</ele>
        <time>2023-07-04T17:34:40Z</time>
      </trkpt>
      <trkpt lat="46.86311" lon="0.84378">
        <ele>92</ele>
        <time>2023-07-04T17:34:54Z</time>
      </trkpt>
      <trkpt lat="46.86321" lon="0.84401">
        <ele>91</ele>
        <time>2023-07-04T17:35:03Z</time>
      </trkpt>
      <trkpt lat="46.86318" lon="0.84422">
        <ele>91</ele>
        <time>2023-07-04T17:35:11Z</time>
      </trkpt>
      <trkpt lat="46.86323" lon="0.84444">
        <ele>91</ele>
        <time>2023-07-04T17:35:19Z</time>
      </trkpt>
      <trkpt lat="46.86323" lon="0.84464">
        <ele>91</ele>
        <time>2023-07-04T17:35:25Z</time>
      </trkpt>
      <trkpt lat="46.86316" lon="0.84508">
        <ele>91</ele>
        <time>2023-07-04T17:35:41Z</time>
      </trkpt>
      <trkpt lat="46.8634" lon="0.84514">
        <ele>89</ele>
        <time>2023-07-04T17:35:53Z</time>
      </trkpt>
      <trkpt lat="46.86357" lon="0.84522">
        <ele>87</ele>
        <time>2023-07-04T17:36:02Z</time>
      </trkpt>
      <trkpt lat="46.86382" lon="0.84537">
        <ele>85</ele>
        <time>2023-07-04T17:36:15Z</time>
      </trkpt>
      <trkpt lat="46.864" lon="0.84556">
        <ele>83</ele>
        <time>2023-07-04T17:36:27Z</time>
      </trkpt>
      <trkpt lat="46.86412" lon="0.84573">
        <ele>82</ele>
        <time>2023-07-04T17:36:35Z</time>
      </trkpt>
      <trkpt lat="46.86454" lon="0.84657">
        <ele>78</ele>
        <time>2023-07-04T17:37:11Z</time>
      </trkpt>
      <trkpt lat="46.86471" lon="0.84685">
        <ele>78</ele>
        <time>2023-07-04T17:37:23Z</time>
      </trkpt>
      <trkpt lat="46.86495" lon="0.84703">
        <ele>78</ele>
        <time>2023-07-04T17:37:37Z</time>
      </trkpt>
      <trkpt lat="46.86567" lon="0.84724">
        <ele>80</ele>
        <time>2023-07-04T17:38:14Z</time>
      </trkpt>
      <trkpt lat="46.86604" lon="0.84739">
        <ele>82</ele>
        <time>2023-07-04T17:38:33Z</time>
      </trkpt>
      <trkpt lat="46.8662" lon="0.84749">
        <ele>82</ele>
        <time>2023-07-04T17:38:42Z</time>
      </trkpt>
      <trkpt lat="46.86661" lon="0.84783">
        <ele>86</ele>
        <time>2023-07-04T17:39:05Z</time>
      </trkpt>
      <trkpt lat="46.86706" lon="0.84835">
        <ele>89</ele>
        <time>2023-07-04T17:39:34Z</time>
      </trkpt>
      <trkpt lat="46.86754" lon="0.84885">
        <ele>90</ele>
        <time>2023-07-04T17:40:03Z</time>
      </trkpt>
      <trkpt lat="46.86781" lon="0.84926">
        <ele>91</ele>
        <time>2023-07-04T17:40:23Z</time>
      </trkpt>
      <trkpt lat="46.86799" lon="0.84969">
        <ele>91</ele>
        <time>2023-07-04T17:40:40Z</time>
      </trkpt>
      <trkpt lat="46.87138" lon="0.85184">
        <ele>73</ele>
        <time>2023-07-04T17:43:45Z</time>
      </trkpt>
      <trkpt lat="46.87009" lon="0.85446">
        <ele>78</ele>
        <time>2023-07-04T17:45:35Z</time>
      </trkpt>
      <trkpt lat="46.86998" lon="0.85552">
        <ele>77</ele>
        <time>2023-07-04T17:46:12Z</time>
      </trkpt>
      <trkpt lat="46.86987" lon="0.85595">
        <ele>77</ele>
        <time>2023-07-04T17:46:28Z</time>
      </trkpt>
      <trkpt lat="46.86948" lon="0.85719">
        <ele>79</ele>
        <time>2023-07-04T17:47:14Z</time>
      </trkpt>
      <trkpt lat="46.86942" lon="0.85851">
        <ele>74</ele>
        <time>2023-07-04T17:48:00Z</time>
      </trkpt>
      <trkpt lat="46.86943" lon="0.85986">
        <ele>73</ele>
        <time>2023-07-04T17:48:46Z</time>
      </trkpt>
      <trkpt lat="46.86939" lon="0.86011">
        <ele>73</ele>
        <time>2023-07-04T17:48:55Z</time>
      </trkpt>
      <trkpt lat="46.86922" lon="0.86068">
        <ele>72</ele>
        <time>2023-07-04T17:49:16Z</time>
      </trkpt>
      <trkpt lat="46.86921" lon="0.86082">
        <ele>72</ele>
        <time>2023-07-04T17:49:21Z</time>
      </trkpt>
      <trkpt lat="46.86926" lon="0.86088">
        <ele>72</ele>
        <time>2023-07-04T17:49:24Z</time>
      </trkpt>
      <trkpt lat="46.86926" lon="0.86098">
        <ele>71</ele>
        <time>2023-07-04T17:49:27Z</time>
      </trkpt>
      <trkpt lat="46.86928" lon="0.861">
        <ele>71</ele>
        <time>2023-07-04T17:49:29Z</time>
      </trkpt>
      <trkpt lat="46.87047" lon="0.86199">
        <ele>67</ele>
        <time>2023-07-04T17:50:37Z</time>
      </trkpt>
      <trkpt lat="46.87115" lon="0.86252">
        <ele>65</ele>
        <time>2023-07-04T17:51:16Z</time>
      </trkpt>
      <trkpt lat="46.87136" lon="0.86272">
        <ele>64</ele>
        <time>2023-07-04T17:51:28Z</time>
      </trkpt>
      <trkpt lat="46.8718" lon="0.86307">
        <ele>68</ele>
        <time>2023-07-04T17:51:53Z</time>
      </trkpt>
      <trkpt lat="46.87185" lon="0.86317">
        <ele>70</ele>
        <time>2023-07-04T17:51:58Z</time>
      </trkpt>
      <trkpt lat="46.87192" lon="0.86311">
        <ele>72</ele>
        <time>2023-07-04T17:52:02Z</time>
      </trkpt>
      <trkpt lat="46.87278" lon="0.86091">
        <ele>68</ele>
        <time>2023-07-04T17:53:28Z</time>
      </trkpt>
      <trkpt lat="46.87291" lon="0.86071">
        <ele>68</ele>
        <time>2023-07-04T17:53:38Z</time>
      </trkpt>
      <trkpt lat="46.8731" lon="0.86071">
        <ele>70</ele>
        <time>2023-07-04T17:53:47Z</time>
      </trkpt>
      <trkpt lat="46.87333" lon="0.86075">
        <ele>72</ele>
        <time>2023-07-04T17:53:59Z</time>
      </trkpt>
      <trkpt lat="46.87354" lon="0.86089">
        <ele>76</ele>
        <time>2023-07-04T17:54:10Z</time>
      </trkpt>
      <trkpt lat="46.87428" lon="0.86161">
        <ele>86</ele>
        <time>2023-07-04T17:54:55Z</time>
      </trkpt>
      <trkpt lat="46.87643" lon="0.86415">
        <ele>111</ele>
        <time>2023-07-04T17:57:13Z</time>
      </trkpt>
      <trkpt lat="46.87663" lon="0.86426">
        <ele>114</ele>
        <time>2023-07-04T17:57:24Z</time>
      </trkpt>
      <trkpt lat="46.87747" lon="0.86443">
        <ele>123</ele>
        <time>2023-07-04T17:58:06Z</time>
      </trkpt>
      <trkpt lat="46.8776" lon="0.86437">
        <ele>123</ele>
        <time>2023-07-04T17:58:13Z</time>
      </trkpt>
      <trkpt lat="46.8777" lon="0.86425">
        <ele>124</ele>
        <time>2023-07-04T17:58:20Z</time>
      </trkpt>
      <trkpt lat="46.87901" lon="0.86227">
        <ele>127</ele>
        <time>2023-07-04T17:59:54Z</time>
      </trkpt>
      <trkpt lat="46.87909" lon="0.86223">
        <ele>127</ele>
        <time>2023-07-04T17:59:58Z</time>
      </trkpt>
      <trkpt lat="46.87918" lon="0.86224">
        <ele>127</ele>
        <time>2023-07-04T18:00:03Z</time>
      </trkpt>
      <trkpt lat="46.87956" lon="0.86242">
        <ele>126</ele>
        <time>2023-07-04T18:00:23Z</time>
      </trkpt>
      <trkpt lat="46.88073" lon="0.86303">
        <ele>124</ele>
        <time>2023-07-04T18:01:25Z</time>
      </trkpt>
      <trkpt lat="46.88109" lon="0.86286">
        <ele>125</ele>
        <time>2023-07-04T18:01:44Z</time>
      </trkpt>
      <trkpt lat="46.88159" lon="0.86256">
        <ele>127</ele>
        <time>2023-07-04T18:02:11Z</time>
      </trkpt>
      <trkpt lat="46.88181" lon="0.86229">
        <ele>127</ele>
        <time>2023-07-04T18:02:25Z</time>
      </trkpt>
      <trkpt lat="46.88226" lon="0.86213">
        <ele>126</ele>
        <time>2023-07-04T18:02:48Z</time>
      </trkpt>
      <trkpt lat="46.88265" lon="0.86217">
        <ele>126</ele>
        <time>2023-07-04T18:03:08Z</time>
      </trkpt>
      <trkpt lat="46.88342" lon="0.86215">
        <ele>123</ele>
        <time>2023-07-04T18:03:46Z</time>
      </trkpt>
      <trkpt lat="46.88376" lon="0.86235">
        <ele>122</ele>
        <time>2023-07-04T18:04:05Z</time>
      </trkpt>
      <trkpt lat="46.88398" lon="0.86239">
        <ele>122</ele>
        <time>2023-07-04T18:04:16Z</time>
      </trkpt>
      <trkpt lat="46.8848" lon="0.86237">
        <ele>114</ele>
        <time>2023-07-04T18:04:57Z</time>
      </trkpt>
      <trkpt lat="46.88567" lon="0.86291">
        <ele>101</ele>
        <time>2023-07-04T18:05:44Z</time>
      </trkpt>
      <trkpt lat="46.8859" lon="0.86284">
        <ele>98</ele>
        <time>2023-07-04T18:05:56Z</time>
      </trkpt>
      <trkpt lat="46.88627" lon="0.8623">
        <ele>95</ele>
        <time>2023-07-04T18:06:22Z</time>
      </trkpt>
      <trkpt lat="46.88679" lon="0.86169">
        <ele>90</ele>
        <time>2023-07-04T18:06:55Z</time>
      </trkpt>
      <trkpt lat="46.88703" lon="0.86163">
        <ele>88</ele>
        <time>2023-07-04T18:07:08Z</time>
      </trkpt>
      <trkpt lat="46.88741" lon="0.86173">
        <ele>85</ele>
        <time>2023-07-04T18:07:27Z</time>
      </trkpt>
      <trkpt lat="46.88807" lon="0.86197">
        <ele>80</ele>
        <time>2023-07-04T18:08:01Z</time>
      </trkpt>
      <trkpt lat="46.88831" lon="0.86209">
        <ele>79</ele>
        <time>2023-07-04T18:08:14Z</time>
      </trkpt>
      <trkpt lat="46.88867" lon="0.86232">
        <ele>78</ele>
        <time>2023-07-04T18:08:33Z</time>
      </trkpt>
      <trkpt lat="46.88877" lon="0.86242">
        <ele>78</ele>
        <time>2023-07-04T18:08:39Z</time>
      </trkpt>
      <trkpt lat="46.88908" lon="0.86289">
        <ele>78</ele>
        <time>2023-07-04T18:09:02Z</time>
      </trkpt>
      <trkpt lat="46.88906" lon="0.86306">
        <ele>78</ele>
        <time>2023-07-04T18:09:08Z</time>
      </trkpt>
      <trkpt lat="46.88864" lon="0.86345">
        <ele>79</ele>
        <time>2023-07-04T18:09:32Z</time>
      </trkpt>
      <trkpt lat="46.88858" lon="0.86355">
        <ele>79</ele>
        <time>2023-07-04T18:09:37Z</time>
      </trkpt>
      <trkpt lat="46.88853" lon="0.86372">
        <ele>79</ele>
        <time>2023-07-04T18:09:43Z</time>
      </trkpt>
      <trkpt lat="46.88854" lon="0.86385">
        <ele>79</ele>
        <time>2023-07-04T18:09:48Z</time>
      </trkpt>
      <trkpt lat="46.8886" lon="0.86396">
        <ele>80</ele>
        <time>2023-07-04T18:09:53Z</time>
      </trkpt>
      <trkpt lat="46.88892" lon="0.86441">
        <ele>87</ele>
        <time>2023-07-04T18:10:15Z</time>
      </trkpt>
      <trkpt lat="46.88897" lon="0.86452">
        <ele>89</ele>
        <time>2023-07-04T18:10:19Z</time>
      </trkpt>
      <trkpt lat="46.88902" lon="0.86472">
        <ele>92</ele>
        <time>2023-07-04T18:10:27Z</time>
      </trkpt>
      <trkpt lat="46.88902" lon="0.86486">
        <ele>93</ele>
        <time>2023-07-04T18:10:31Z</time>
      </trkpt>
      <trkpt lat="46.88889" lon="0.86515">
        <ele>95</ele>
        <time>2023-07-04T18:10:43Z</time>
      </trkpt>
      <trkpt lat="46.88839" lon="0.8654">
        <ele>93</ele>
        <time>2023-07-04T18:11:10Z</time>
      </trkpt>
      <trkpt lat="46.88824" lon="0.86568">
        <ele>96</ele>
        <time>2023-07-04T18:11:22Z</time>
      </trkpt>
      <trkpt lat="46.88822" lon="0.86598">
        <ele>100</ele>
        <time>2023-07-04T18:11:32Z</time>
      </trkpt>
      <trkpt lat="46.88834" lon="0.86615">
        <ele>103</ele>
        <time>2023-07-04T18:11:41Z</time>
      </trkpt>
      <trkpt lat="46.88876" lon="0.86644">
        <ele>108</ele>
        <time>2023-07-04T18:12:04Z</time>
      </trkpt>
      <trkpt lat="46.88884" lon="0.86661">
        <ele>110</ele>
        <time>2023-07-04T18:12:11Z</time>
      </trkpt>
      <trkpt lat="46.889" lon="0.86718">
        <ele>113</ele>
        <time>2023-07-04T18:12:32Z</time>
      </trkpt>
      <trkpt lat="46.88928" lon="0.86753">
        <ele>117</ele>
        <time>2023-07-04T18:12:50Z</time>
      </trkpt>
      <trkpt lat="46.89078" lon="0.86868">
        <ele>123</ele>
        <time>2023-07-04T18:14:15Z</time>
      </trkpt>
      <trkpt lat="46.89126" lon="0.86868">
        <ele>125</ele>
        <time>2023-07-04T18:14:39Z</time>
      </trkpt>
      <trkpt lat="46.89153" lon="0.86879">
        <ele>126</ele>
        <time>2023-07-04T18:14:53Z</time>
      </trkpt>
      <trkpt lat="46.89188" lon="0.86877">
        <ele>126</ele>
        <time>2023-07-04T18:15:11Z</time>
      </trkpt>
      <trkpt lat="46.89244" lon="0.86861">
        <ele>127</ele>
        <time>2023-07-04T18:15:39Z</time>
      </trkpt>
      <trkpt lat="46.89338" lon="0.8686">
        <ele>127</ele>
        <time>2023-07-04T18:16:26Z</time>
      </trkpt>
      <trkpt lat="46.89538" lon="0.86912">
        <ele>130</ele>
        <time>2023-07-04T18:18:08Z</time>
      </trkpt>
      <trkpt lat="46.89578" lon="0.86627">
        <ele>131</ele>
        <time>2023-07-04T18:19:47Z</time>
      </trkpt>
      <trkpt lat="46.89559" lon="0.8625">
        <ele>131</ele>
        <time>2023-07-04T18:21:57Z</time>
      </trkpt>
      <trkpt lat="46.89556" lon="0.86061">
        <ele>131</ele>
        <time>2023-07-04T18:23:01Z</time>
      </trkpt>
      <trkpt lat="46.89565" lon="0.8577">
        <ele>134</ele>
        <time>2023-07-04T18:24:41Z</time>
      </trkpt>
      <trkpt lat="46.89592" lon="0.85617">
        <ele>134</ele>
        <time>2023-07-04T18:25:35Z</time>
      </trkpt>
      <trkpt lat="46.89613" lon="0.85537">
        <ele>132</ele>
        <time>2023-07-04T18:26:04Z</time>
      </trkpt>
      <trkpt lat="46.89644" lon="0.85431">
        <ele>128</ele>
        <time>2023-07-04T18:26:44Z</time>
      </trkpt>
      <trkpt lat="46.89799" lon="0.85113">
        <ele>123</ele>
        <time>2023-07-04T18:28:57Z</time>
      </trkpt>
      <trkpt lat="46.89933" lon="0.84887">
        <ele>118</ele>
        <time>2023-07-04T18:30:40Z</time>
      </trkpt>
      <trkpt lat="46.90049" lon="0.84798">
        <ele>113</ele>
        <time>2023-07-04T18:31:45Z</time>
      </trkpt>
      <trkpt lat="46.90095" lon="0.84733">
        <ele>111</ele>
        <time>2023-07-04T18:32:17Z</time>
      </trkpt>
      <trkpt lat="46.90227" lon="0.84505">
        <ele>103</ele>
        <time>2023-07-04T18:33:59Z</time>
      </trkpt>
      <trkpt lat="46.90242" lon="0.84465">
        <ele>102</ele>
        <time>2023-07-04T18:34:15Z</time>
      </trkpt>
      <trkpt lat="46.90297" lon="0.84337">
        <ele>98</ele>
        <time>2023-07-04T18:35:07Z</time>
      </trkpt>
      <trkpt lat="46.90336" lon="0.84259">
        <ele>97</ele>
        <time>2023-07-04T18:35:40Z</time>
      </trkpt>
      <trkpt lat="46.90363" lon="0.84193">
        <ele>95</ele>
        <time>2023-07-04T18:36:06Z</time>
      </trkpt>
      <trkpt lat="46.9048" lon="0.83709">
        <ele>86</ele>
        <time>2023-07-04T18:39:02Z</time>
      </trkpt>
      <trkpt lat="46.90496" lon="0.83661">
        <ele>87</ele>
        <time>2023-07-04T18:39:20Z</time>
      </trkpt>
      <trkpt lat="46.9056" lon="0.83379">
        <ele>83</ele>
        <time>2023-07-04T18:41:01Z</time>
      </trkpt>
      <trkpt lat="46.90582" lon="0.8332">
        <ele>86</ele>
        <time>2023-07-04T18:41:24Z</time>
      </trkpt>
      <trkpt lat="46.90617" lon="0.83108">
        <ele>90</ele>
        <time>2023-07-04T18:42:39Z</time>
      </trkpt>
      <trkpt lat="46.90614" lon="0.83063">
        <ele>92</ele>
        <time>2023-07-04T18:42:54Z</time>
      </trkpt>
      <trkpt lat="46.9065" lon="0.82837">
        <ele>95</ele>
        <time>2023-07-04T18:44:14Z</time>
      </trkpt>
      <trkpt lat="46.90736" lon="0.8267">
        <ele>93</ele>
        <time>2023-07-04T18:45:25Z</time>
      </trkpt>
      <trkpt lat="46.90827" lon="0.82445">
        <ele>96</ele>
        <time>2023-07-04T18:46:55Z</time>
      </trkpt>
      <trkpt lat="46.90896" lon="0.82154">
        <ele>91</ele>
        <time>2023-07-04T18:48:40Z</time>
      </trkpt>
      <trkpt lat="46.90946" lon="0.82029">
        <ele>94</ele>
        <time>2023-07-04T18:49:29Z</time>
      </trkpt>
      <trkpt lat="46.90992" lon="0.81898">
        <ele>95</ele>
        <time>2023-07-04T18:50:20Z</time>
      </trkpt>
      <trkpt lat="46.90967" lon="0.8163">
        <ele>90</ele>
        <time>2023-07-04T18:51:52Z</time>
      </trkpt>
      <trkpt lat="46.90981" lon="0.8138">
        <ele>90</ele>
        <time>2023-07-04T18:53:18Z</time>
      </trkpt>
      <trkpt lat="46.91055" lon="0.81122">
        <ele>93</ele>
        <time>2023-07-04T18:54:54Z</time>
      </trkpt>
      <trkpt lat="46.91122" lon="0.80998">
        <ele>84</ele>
        <time>2023-07-04T18:55:48Z</time>
      </trkpt>
      <trkpt lat="46.91212" lon="0.80852">
        <ele>75</ele>
        <time>2023-07-04T18:56:55Z</time>
      </trkpt>
      <trkpt lat="46.91227" lon="0.80807">
        <ele>74</ele>
        <time>2023-07-04T18:57:12Z</time>
      </trkpt>
      <trkpt lat="46.91207" lon="0.80708">
        <ele>71</ele>
        <time>2023-07-04T18:57:47Z</time>
      </trkpt>
      <trkpt lat="46.91357" lon="0.80617">
        <ele>70</ele>
        <time>2023-07-04T18:59:09Z</time>
      </trkpt>
      <trkpt lat="46.91375" lon="0.80612">
        <ele>71</ele>
        <time>2023-07-04T18:59:18Z</time>
      </trkpt>
      <trkpt lat="46.91392" lon="0.80612">
        <ele>71</ele>
        <time>2023-07-04T18:59:26Z</time>
      </trkpt>
      <trkpt lat="46.91405" lon="0.80615">
        <ele>72</ele>
        <time>2023-07-04T18:59:33Z</time>
      </trkpt>
      <trkpt lat="46.91438" lon="0.80631">
        <ele>70</ele>
        <time>2023-07-04T18:59:50Z</time>
      </trkpt>
      <trkpt lat="46.91455" lon="0.80636">
        <ele>69</ele>
        <time>2023-07-04T18:59:59Z</time>
      </trkpt>
      <trkpt lat="46.91469" lon="0.80637">
        <ele>68</ele>
        <time>2023-07-04T19:00:06Z</time>
      </trkpt>
      <trkpt lat="46.91479" lon="0.80635">
        <ele>68</ele>
        <time>2023-07-04T19:00:11Z</time>
      </trkpt>
      <trkpt lat="46.91493" lon="0.80629">
        <ele>68</ele>
        <time>2023-07-04T19:00:18Z</time>
      </trkpt>
      <trkpt lat="46.91619" lon="0.80543">
        <ele>63</ele>
        <time>2023-07-04T19:01:28Z</time>
      </trkpt>
      <trkpt lat="46.91633" lon="0.80537">
        <ele>62</ele>
        <time>2023-07-04T19:01:35Z</time>
      </trkpt>
      <trkpt lat="46.91652" lon="0.80541">
        <ele>61</ele>
        <time>2023-07-04T19:01:45Z</time>
      </trkpt>
      <trkpt lat="46.91842" lon="0.80655">
        <ele>61</ele>
        <time>2023-07-04T19:03:28Z</time>
      </trkpt>
      <trkpt lat="46.91865" lon="0.80586">
        <ele>61</ele>
        <time>2023-07-04T19:03:54Z</time>
      </trkpt>
      <trkpt lat="46.91901" lon="0.80521">
        <ele>62</ele>
        <time>2023-07-04T19:04:22Z</time>
      </trkpt>
      <trkpt lat="46.91912" lon="0.80453">
        <ele>62</ele>
        <time>2023-07-04T19:04:46Z</time>
      </trkpt>
      <trkpt lat="46.91932" lon="0.80376">
        <ele>62</ele>
        <time>2023-07-04T19:05:14Z</time>
      </trkpt>
      <trkpt lat="46.91937" lon="0.80367">
        <ele>62</ele>
        <time>2023-07-04T19:05:18Z</time>
      </trkpt>
      <trkpt lat="46.92032" lon="0.80345">
        <ele>67</ele>
        <time>2023-07-04T19:06:07Z</time>
      </trkpt>
      <trkpt lat="46.92036" lon="0.80339">
        <ele>67</ele>
        <time>2023-07-04T19:06:09Z</time>
      </trkpt>
      <trkpt lat="46.92036" lon="0.80328">
        <ele>67</ele>
        <time>2023-07-04T19:06:13Z</time>
      </trkpt>
      <trkpt lat="46.92057" lon="0.80327">
        <ele>69</ele>
        <time>2023-07-04T19:06:24Z</time>
      </trkpt>
      <trkpt lat="46.92089" lon="0.80308">
        <ele>73</ele>
        <time>2023-07-04T19:06:41Z</time>
      </trkpt>
      <trkpt lat="46.92103" lon="0.80305">
        <ele>75</ele>
        <time>2023-07-04T19:06:48Z</time>
      </trkpt>
      <trkpt lat="46.92133" lon="0.80249">
        <ele>80</ele>
        <time>2023-07-04T19:07:12Z</time>
      </trkpt>
      <trkpt lat="46.92144" lon="0.80238">
        <ele>82</ele>
        <time>2023-07-04T19:07:19Z</time>
      </trkpt>
      <trkpt lat="46.9216" lon="0.80213">
        <ele>85</ele>
        <time>2023-07-04T19:07:31Z</time>
      </trkpt>
      <trkpt lat="46.92162" lon="0.80224">
        <ele>85</ele>
        <time>2023-07-04T19:07:35Z</time>
      </trkpt>
      <trkpt lat="46.92169" lon="0.80221">
        <ele>86</ele>
        <time>2023-07-04T19:07:38Z</time>
      </trkpt>
      <trkpt lat="46.92169" lon="0.80209">
        <ele>87</ele>
        <time>2023-07-04T19:07:42Z</time>
      </trkpt>
      <trkpt lat="46.92154" lon="0.80175">
        <ele>85</ele>
        <time>2023-07-04T19:07:56Z</time>
      </trkpt>
      <trkpt lat="46.92153" lon="0.80168">
        <ele>85</ele>
        <time>2023-07-04T19:07:59Z</time>
      </trkpt>
      <trkpt lat="46.92157" lon="0.80161">
        <ele>85</ele>
        <time>2023-07-04T19:08:02Z</time>
      </trkpt>
      <trkpt lat="46.92187" lon="0.80126">
        <ele>88</ele>
        <time>2023-07-04T19:08:21Z</time>
      </trkpt>
      <trkpt lat="46.92235" lon="0.80084">
        <ele>89</ele>
        <time>2023-07-04T19:08:49Z</time>
      </trkpt>
      <trkpt lat="46.92459" lon="0.79903">
        <ele>85</ele>
        <time>2023-07-04T19:10:57Z</time>
      </trkpt>
      <trkpt lat="46.9261" lon="0.79652">
        <ele>66</ele>
        <time>2023-07-04T19:12:51Z</time>
      </trkpt>
      <trkpt lat="46.92599" lon="0.79608">
        <ele>64</ele>
        <time>2023-07-04T19:13:07Z</time>
      </trkpt>
      <trkpt lat="46.925" lon="0.79403">
        <ele>57</ele>
        <time>2023-07-04T19:14:33Z</time>
      </trkpt>
      <trkpt lat="46.92475" lon="0.79345">
        <ele>57</ele>
        <time>2023-07-04T19:14:57Z</time>
      </trkpt>
      <trkpt lat="46.92416" lon="0.79228">
        <ele>58</ele>
        <time>2023-07-04T19:15:46Z</time>
      </trkpt>
      <trkpt lat="46.92403" lon="0.7921">
        <ele>58</ele>
        <time>2023-07-04T19:15:55Z</time>
      </trkpt>
      <trkpt lat="46.92393" lon="0.79201">
        <ele>58</ele>
        <time>2023-07-04T19:16:01Z</time>
      </trkpt>
      <trkpt lat="46.92366" lon="0.79184">
        <ele>59</ele>
        <time>2023-07-04T19:16:16Z</time>
      </trkpt>
      <trkpt lat="46.92327" lon="0.79176">
        <ele>59</ele>
        <time>2023-07-04T19:16:36Z</time>
      </trkpt>
      <trkpt lat="46.92316" lon="0.79181">
        <ele>60</ele>
        <time>2023-07-04T19:16:41Z</time>
      </trkpt>
      <trkpt lat="46.92375" lon="0.79093">
        <ele>59</ele>
        <time>2023-07-04T19:17:23Z</time>
      </trkpt>
      <trkpt lat="46.92424" lon="0.79001">
        <ele>59</ele>
        <time>2023-07-04T19:18:03Z</time>
      </trkpt>
      <trkpt lat="46.92449" lon="0.78933">
        <ele>58</ele>
        <time>2023-07-04T19:18:30Z</time>
      </trkpt>
      <trkpt lat="46.92438" lon="0.78927">
        <ele>59</ele>
        <time>2023-07-04T19:18:36Z</time>
      </trkpt>
      <trkpt lat="46.92426" lon="0.78924">
        <ele>59</ele>
        <time>2023-07-04T19:18:42Z</time>
      </trkpt>
      <trkpt lat="46.92418" lon="0.78915">
        <ele>60</ele>
        <time>2023-07-04T19:18:47Z</time>
      </trkpt>
      <trkpt lat="46.92433" lon="0.7888">
        <ele>59</ele>
        <time>2023-07-04T19:19:01Z</time>
      </trkpt>
      <trkpt lat="46.92454" lon="0.78843">
        <ele>59</ele>
        <time>2023-07-04T19:19:17Z</time>
      </trkpt>
      <trkpt lat="46.92465" lon="0.7881">
        <ele>59</ele>
        <time>2023-07-04T19:19:30Z</time>
      </trkpt>
      <trkpt lat="46.92475" lon="0.78758">
        <ele>60</ele>
        <time>2023-07-04T19:19:48Z</time>
      </trkpt>
      <trkpt lat="46.92485" lon="0.78653">
        <ele>58</ele>
        <time>2023-07-04T19:20:25Z</time>
      </trkpt>
      <trkpt lat="46.9248" lon="0.78148">
        <ele>58</ele>
        <time>2023-07-04T19:23:17Z</time>
      </trkpt>
      <trkpt lat="46.92479" lon="0.7794">
        <ele>56</ele>
        <time>2023-07-04T19:24:28Z</time>
      </trkpt>
      <trkpt lat="46.92481" lon="0.77872">
        <ele>56</ele>
        <time>2023-07-04T19:24:51Z</time>
      </trkpt>
      <trkpt lat="46.92495" lon="0.77695">
        <ele>58</ele>
        <time>2023-07-04T19:25:52Z</time>
      </trkpt>
      <trkpt lat="46.92493" lon="0.77607">
        <ele>59</ele>
        <time>2023-07-04T19:26:22Z</time>
      </trkpt>
      <trkpt lat="46.92495" lon="0.77595">
        <ele>59</ele>
        <time>2023-07-04T19:26:27Z</time>
      </trkpt>
      <trkpt lat="46.92516" lon="0.77562">
        <ele>59</ele>
        <time>2023-07-04T19:26:42Z</time>
      </trkpt>
      <trkpt lat="46.92527" lon="0.7752">
        <ele>61</ele>
        <time>2023-07-04T19:26:57Z</time>
      </trkpt>
      <trkpt lat="46.92529" lon="0.77499">
        <ele>62</ele>
        <time>2023-07-04T19:27:05Z</time>
      </trkpt>
      <trkpt lat="46.92529" lon="0.77475">
        <ele>62</ele>
        <time>2023-07-04T19:27:13Z</time>
      </trkpt>
      <trkpt lat="46.92522" lon="0.77428">
        <ele>64</ele>
        <time>2023-07-04T19:27:29Z</time>
      </trkpt>
      <trkpt lat="46.92492" lon="0.7735">
        <ele>65</ele>
        <time>2023-07-04T19:28:00Z</time>
      </trkpt>
      <trkpt lat="46.92438" lon="0.77272">
        <ele>66</ele>
        <time>2023-07-04T19:28:38Z</time>
      </trkpt>
      <trkpt lat="46.92425" lon="0.77244">
        <ele>66</ele>
        <time>2023-07-04T19:28:49Z</time>
      </trkpt>
      <trkpt lat="46.92421" lon="0.77221">
        <ele>67</ele>
        <time>2023-07-04T19:28:58Z</time>
      </trkpt>
      <trkpt lat="46.92422" lon="0.77184">
        <ele>68</ele>
        <time>2023-07-04T19:29:10Z</time>
      </trkpt>
      <trkpt lat="46.9229" lon="0.7712">
        <ele>73</ele>
        <time>2023-07-04T19:30:20Z</time>
      </trkpt>
      <trkpt lat="46.92228" lon="0.77084">
        <ele>74</ele>
        <time>2023-07-04T19:30:53Z</time>
      </trkpt>
      <trkpt lat="46.92156" lon="0.7702">
        <ele>74</ele>
        <time>2023-07-04T19:31:35Z</time>
      </trkpt>
      <trkpt lat="46.91911" lon="0.76917">
        <ele>77</ele>
        <time>2023-07-04T19:33:43Z</time>
      </trkpt>
      <trkpt lat="46.91921" lon="0.76838">
        <ele>80</ele>
        <time>2023-07-04T19:34:10Z</time>
      </trkpt>
      <trkpt lat="46.91998" lon="0.7677">
        <ele>87</ele>
        <time>2023-07-04T19:34:55Z</time>
      </trkpt>
      <trkpt lat="46.92038" lon="0.7672">
        <ele>92</ele>
        <time>2023-07-04T19:35:22Z</time>
      </trkpt>
      <trkpt lat="46.92137" lon="0.76615">
        <ele>94</ele>
        <time>2023-07-04T19:36:23Z</time>
      </trkpt>
      <trkpt lat="46.92194" lon="0.76523">
        <ele>92</ele>
        <time>2023-07-04T19:37:05Z</time>
      </trkpt>
      <trkpt lat="46.92199" lon="0.76499">
        <ele>91</ele>
        <time>2023-07-04T19:37:14Z</time>
      </trkpt>
      <trkpt lat="46.92198" lon="0.76475">
        <ele>91</ele>
        <time>2023-07-04T19:37:22Z</time>
      </trkpt>
      <trkpt lat="46.9215" lon="0.7638">
        <ele>95</ele>
        <time>2023-07-04T19:38:03Z</time>
      </trkpt>
      <trkpt lat="46.92013" lon="0.76271">
        <ele>102</ele>
        <time>2023-07-04T19:39:21Z</time>
      </trkpt>
      <trkpt lat="46.91945" lon="0.76235">
        <ele>104</ele>
        <time>2023-07-04T19:39:57Z</time>
      </trkpt>
      <trkpt lat="46.91843" lon="0.76162">
        <ele>105</ele>
        <time>2023-07-04T19:40:54Z</time>
      </trkpt>
      <trkpt lat="46.91782" lon="0.76094">
        <ele>106</ele>
        <time>2023-07-04T19:41:32Z</time>
      </trkpt>
      <trkpt lat="46.91698" lon="0.76006">
        <ele>108</ele>
        <time>2023-07-04T19:42:24Z</time>
      </trkpt>
      <trkpt lat="46.91629" lon="0.75901">
        <ele>110</ele>
        <time>2023-07-04T19:43:13Z</time>
      </trkpt>
      <trkpt lat="46.9161" lon="0.75859">
        <ele>111</ele>
        <time>2023-07-04T19:43:31Z</time>
      </trkpt>
      <trkpt lat="46.91544" lon="0.75663">
        <ele>115</ele>
        <time>2023-07-04T19:44:45Z</time>
      </trkpt>
      <trkpt lat="46.91457" lon="0.75534">
        <ele>116</ele>
        <time>2023-07-04T19:45:47Z</time>
      </trkpt>
      <trkpt lat="46.91521" lon="0.75431">
        <ele>114</ele>
        <time>2023-07-04T19:46:35Z</time>
      </trkpt>
      <trkpt lat="46.9161" lon="0.75341">
        <ele>107</ele>
        <time>2023-07-04T19:47:29Z</time>
      </trkpt>
      <trkpt lat="46.9175" lon="0.75228">
        <ele>98</ele>
        <time>2023-07-04T19:48:49Z</time>
      </trkpt>
      <trkpt lat="46.91504" lon="0.74762">
        <ele>109</ele>
        <time>2023-07-04T19:52:10Z</time>
      </trkpt>
      <trkpt lat="46.91509" lon="0.74683">
        <ele>110</ele>
        <time>2023-07-04T19:52:37Z</time>
      </trkpt>
      <trkpt lat="46.91493" lon="0.74423">
        <ele>111</ele>
        <time>2023-07-04T19:54:07Z</time>
      </trkpt>
      <trkpt lat="46.91503" lon="0.74366">
        <ele>108</ele>
        <time>2023-07-04T19:54:27Z</time>
      </trkpt>
      <trkpt lat="46.91601" lon="0.74188">
        <ele>107</ele>
        <time>2023-07-04T19:55:45Z</time>
      </trkpt>
      <trkpt lat="46.91724" lon="0.74046">
        <ele>111</ele>
        <time>2023-07-04T19:57:03Z</time>
      </trkpt>
      <trkpt lat="46.91881" lon="0.73625">
        <ele>112</ele>
        <time>2023-07-04T19:59:47Z</time>
      </trkpt>
      <trkpt lat="46.92133" lon="0.73102">
        <ele>104</ele>
        <time>2023-07-04T20:03:26Z</time>
      </trkpt>
      <trkpt lat="46.92465" lon="0.72981">
        <ele>93</ele>
        <time>2023-07-04T20:06:17Z</time>
      </trkpt>
      <trkpt lat="46.92518" lon="0.72973">
        <ele>94</ele>
        <time>2023-07-04T20:06:44Z</time>
      </trkpt>
      <trkpt lat="46.92542" lon="0.72976">
        <ele>95</ele>
        <time>2023-07-04T20:06:56Z</time>
      </trkpt>
      <trkpt lat="46.92722" lon="0.72968">
        <ele>97</ele>
        <time>2023-07-04T20:08:26Z</time>
      </trkpt>
      <trkpt lat="46.92773" lon="0.72958">
        <ele>96</ele>
        <time>2023-07-04T20:08:52Z</time>
      </trkpt>
      <trkpt lat="46.92796" lon="0.72946">
        <ele>96</ele>
        <time>2023-07-04T20:09:04Z</time>
      </trkpt>
      <trkpt lat="46.9285" lon="0.73017">
        <ele>94</ele>
        <time>2023-07-04T20:09:40Z</time>
      </trkpt>
      <trkpt lat="46.92874" lon="0.73039">
        <ele>93</ele>
        <time>2023-07-04T20:09:55Z</time>
      </trkpt>
      <trkpt lat="46.92951" lon="0.73094">
        <ele>90</ele>
        <time>2023-07-04T20:10:37Z</time>
      </trkpt>
      <trkpt lat="46.93011" lon="0.73132">
        <ele>88</ele>
        <time>2023-07-04T20:11:10Z</time>
      </trkpt>
      <trkpt lat="46.9304" lon="0.73156">
        <ele>86</ele>
        <time>2023-07-04T20:11:27Z</time>
      </trkpt>
      <trkpt lat="46.93073" lon="0.73193">
        <ele>84</ele>
        <time>2023-07-04T20:11:48Z</time>
      </trkpt>
      <trkpt lat="46.93122" lon="0.73223">
        <ele>83</ele>
        <time>2023-07-04T20:12:14Z</time>
      </trkpt>
      <trkpt lat="46.93174" lon="0.73265">
        <ele>81</ele>
        <time>2023-07-04T20:12:44Z</time>
      </trkpt>
      <trkpt lat="46.93222" lon="0.73276">
        <ele>79</ele>
        <time>2023-07-04T20:13:08Z</time>
      </trkpt>
      <trkpt lat="46.9326" lon="0.73287">
        <ele>78</ele>
        <time>2023-07-04T20:13:28Z</time>
      </trkpt>
      <trkpt lat="46.9329" lon="0.73299">
        <ele>76</ele>
        <time>2023-07-04T20:13:43Z</time>
      </trkpt>
      <trkpt lat="46.9337" lon="0.73321">
        <ele>68</ele>
        <time>2023-07-04T20:14:24Z</time>
      </trkpt>
      <trkpt lat="46.93432" lon="0.73361">
        <ele>60</ele>
        <time>2023-07-04T20:14:58Z</time>
      </trkpt>
      <trkpt lat="46.93439" lon="0.73362">
        <ele>60</ele>
        <time>2023-07-04T20:15:01Z</time>
      </trkpt>
      <trkpt lat="46.93445" lon="0.73357">
        <ele>59</ele>
        <time>2023-07-04T20:15:05Z</time>
      </trkpt>
      <trkpt lat="46.9345" lon="0.73345">
        <ele>59</ele>
        <time>2023-07-04T20:15:10Z</time>
      </trkpt>
      <trkpt lat="46.9347" lon="0.73276">
        <ele>59</ele>
        <time>2023-07-04T20:15:35Z</time>
      </trkpt>
      <trkpt lat="46.93489" lon="0.73228">
        <ele>58</ele>
        <time>2023-07-04T20:15:54Z</time>
      </trkpt>
      <trkpt lat="46.93503" lon="0.73214">
        <ele>57</ele>
        <time>2023-07-04T20:16:03Z</time>
      </trkpt>
      <trkpt lat="46.9351" lon="0.73187">
        <ele>57</ele>
        <time>2023-07-04T20:16:13Z</time>
      </trkpt>
      <trkpt lat="46.9361" lon="0.73015">
        <ele>54</ele>
        <time>2023-07-04T20:17:30Z</time>
      </trkpt>
      <trkpt lat="46.93618" lon="0.72996">
        <ele>53</ele>
        <time>2023-07-04T20:17:37Z</time>
      </trkpt>
      <trkpt lat="46.93625" lon="0.72973">
        <ele>54</ele>
        <time>2023-07-04T20:17:46Z</time>
      </trkpt>
      <trkpt lat="46.93647" lon="0.72856">
        <ele>55</ele>
        <time>2023-07-04T20:18:27Z</time>
      </trkpt>
      <trkpt lat="46.93694" lon="0.72647">
        <ele>58</ele>
        <time>2023-07-04T20:19:43Z</time>
      </trkpt>
      <trkpt lat="46.93704" lon="0.72592">
        <ele>57</ele>
        <time>2023-07-04T20:20:02Z</time>
      </trkpt>
      <trkpt lat="46.93719" lon="0.7247">
        <ele>53</ele>
        <time>2023-07-04T20:20:44Z</time>
      </trkpt>
      <trkpt lat="46.9374" lon="0.72481">
        <ele>52</ele>
        <time>2023-07-04T20:20:56Z</time>
      </trkpt>
      <trkpt lat="46.93902" lon="0.72602">
        <ele>50</ele>
        <time>2023-07-04T20:22:27Z</time>
      </trkpt>
      <trkpt lat="46.94022" lon="0.72695">
        <ele>55</ele>
        <time>2023-07-04T20:23:34Z</time>
      </trkpt>
      <trkpt lat="46.94112" lon="0.72736">
        <ele>63</ele>
        <time>2023-07-04T20:24:22Z</time>
      </trkpt>
      <trkpt lat="46.94118" lon="0.72707">
        <ele>65</ele>
        <time>2023-07-04T20:24:32Z</time>
      </trkpt>
      <trkpt lat="46.94122" lon="0.72662">
        <ele>68</ele>
        <time>2023-07-04T20:24:48Z</time>
      </trkpt>
      <trkpt lat="46.94143" lon="0.72623">
        <ele>71</ele>
        <time>2023-07-04T20:25:04Z</time>
      </trkpt>
      <trkpt lat="46.94153" lon="0.72598">
        <ele>72</ele>
        <time>2023-07-04T20:25:14Z</time>
      </trkpt>
      <trkpt lat="46.94157" lon="0.72584">
        <ele>73</ele>
        <time>2023-07-04T20:25:20Z</time>
      </trkpt>
      <trkpt lat="46.94155" lon="0.72565">
        <ele>71</ele>
        <time>2023-07-04T20:25:26Z</time>
      </trkpt>
      <trkpt lat="46.94171" lon="0.72511">
        <ele>70</ele>
        <time>2023-07-04T20:25:46Z</time>
      </trkpt>
      <trkpt lat="46.94206" lon="0.72446">
        <ele>73</ele>
        <time>2023-07-04T20:26:15Z</time>
      </trkpt>
      <trkpt lat="46.94225" lon="0.7239">
        <ele>74</ele>
        <time>2023-07-04T20:26:36Z</time>
      </trkpt>
      <trkpt lat="46.94301" lon="0.72405">
        <ele>80</ele>
        <time>2023-07-04T20:27:14Z</time>
      </trkpt>
      <trkpt lat="46.94309" lon="0.72402">
        <ele>81</ele>
        <time>2023-07-04T20:27:18Z</time>
      </trkpt>
      <trkpt lat="46.94329" lon="0.72369">
        <ele>80</ele>
        <time>2023-07-04T20:27:33Z</time>
      </trkpt>
      <trkpt lat="46.94347" lon="0.72329">
        <ele>79</ele>
        <time>2023-07-04T20:27:50Z</time>
      </trkpt>
      <trkpt lat="46.94351" lon="0.72326">
        <ele>79</ele>
        <time>2023-07-04T20:27:52Z</time>
      </trkpt>
      <trkpt lat="46.94473" lon="0.72305">
        <ele>78</ele>
        <time>2023-07-04T20:28:54Z</time>
      </trkpt>
      <trkpt lat="46.94504" lon="0.72297">
        <ele>76</ele>
        <time>2023-07-04T20:29:09Z</time>
      </trkpt>
      <trkpt lat="46.94548" lon="0.72236">
        <ele>73</ele>
        <time>2023-07-04T20:29:40Z</time>
      </trkpt>
      <trkpt lat="46.94662" lon="0.72185">
        <ele>78</ele>
        <time>2023-07-04T20:30:39Z</time>
      </trkpt>
      <trkpt lat="46.94708" lon="0.72147">
        <ele>79</ele>
        <time>2023-07-04T20:31:06Z</time>
      </trkpt>
      <trkpt lat="46.94863" lon="0.72602">
        <ele>83</ele>
        <time>2023-07-04T20:33:59Z</time>
      </trkpt>
      <trkpt lat="46.94876" lon="0.72652">
        <ele>83</ele>
        <time>2023-07-04T20:34:18Z</time>
      </trkpt>
      <trkpt lat="46.94899" lon="0.7281">
        <ele>86</ele>
        <time>2023-07-04T20:35:13Z</time>
      </trkpt>
      <trkpt lat="46.94919" lon="0.73028">
        <ele>88</ele>
        <time>2023-07-04T20:36:28Z</time>
      </trkpt>
      <trkpt lat="46.94932" lon="0.73026">
        <ele>88</ele>
        <time>2023-07-04T20:36:35Z</time>
      </trkpt>
      <trkpt lat="46.95055" lon="0.73023">
        <ele>94</ele>
        <time>2023-07-04T20:37:36Z</time>
      </trkpt>
      <trkpt lat="46.95109" lon="0.7305">
        <ele>96</ele>
        <time>2023-07-04T20:38:05Z</time>
      </trkpt>
      <trkpt lat="46.95162" lon="0.73069">
        <ele>100</ele>
        <time>2023-07-04T20:38:32Z</time>
      </trkpt>
      <trkpt lat="46.95192" lon="0.7307">
        <ele>102</ele>
        <time>2023-07-04T20:38:47Z</time>
      </trkpt>
      <trkpt lat="46.956" lon="0.72841">
        <ele>105</ele>
        <time>2023-07-04T20:42:26Z</time>
      </trkpt>
      <trkpt lat="46.95614" lon="0.72847">
        <ele>105</ele>
        <time>2023-07-04T20:42:33Z</time>
      </trkpt>
      <trkpt lat="46.95788" lon="0.72465">
        <ele>112</ele>
        <time>2023-07-04T20:45:10Z</time>
      </trkpt>
      <trkpt lat="46.95808" lon="0.72403">
        <ele>114</ele>
        <time>2023-07-04T20:45:33Z</time>
      </trkpt>
      <trkpt lat="46.96057" lon="0.71538">
        <ele>104</ele>
        <time>2023-07-04T20:50:54Z</time>
      </trkpt>
      <trkpt lat="46.96131" lon="0.71194">
        <ele>89</ele>
        <time>2023-07-04T20:52:57Z</time>
      </trkpt>
      <trkpt lat="46.96147" lon="0.71148">
        <ele>86</ele>
        <time>2023-07-04T20:53:15Z</time>
      </trkpt>
      <trkpt lat="46.96187" lon="0.71062">
        <ele>81</ele>
        <time>2023-07-04T20:53:50Z</time>
      </trkpt>
      <trkpt lat="46.96262" lon="0.70971">
        <ele>75</ele>
        <time>2023-07-04T20:54:39Z</time>
      </trkpt>
      <trkpt lat="46.96292" lon="0.70919">
        <ele>70</ele>
        <time>2023-07-04T20:55:02Z</time>
      </trkpt>
      <trkpt lat="46.96299" lon="0.70899">
        <ele>68</ele>
        <time>2023-07-04T20:55:10Z</time>
      </trkpt>
      <trkpt lat="46.963" lon="0.70879">
        <ele>68</ele>
        <time>2023-07-04T20:55:17Z</time>
      </trkpt>
      <trkpt lat="46.96284" lon="0.70666">
        <ele>55</ele>
        <time>2023-07-04T20:56:30Z</time>
      </trkpt>
      <trkpt lat="46.96285" lon="0.70648">
        <ele>55</ele>
        <time>2023-07-04T20:56:36Z</time>
      </trkpt>
      <trkpt lat="46.96293" lon="0.70618">
        <ele>55</ele>
        <time>2023-07-04T20:56:47Z</time>
      </trkpt>
      <trkpt lat="46.96299" lon="0.70605">
        <ele>55</ele>
        <time>2023-07-04T20:56:52Z</time>
      </trkpt>
      <trkpt lat="46.96331" lon="0.70565">
        <ele>55</ele>
        <time>2023-07-04T20:57:14Z</time>
      </trkpt>
      <trkpt lat="46.96334" lon="0.70549">
        <ele>54</ele>
        <time>2023-07-04T20:57:19Z</time>
      </trkpt>
      <trkpt lat="46.96243" lon="0.70547">
        <ele>54</ele>
        <time>2023-07-04T20:58:05Z</time>
      </trkpt>
      <trkpt lat="46.96241" lon="0.70536">
        <ele>53</ele>
        <time>2023-07-04T20:58:09Z</time>
      </trkpt>
      <trkpt lat="46.96224" lon="0.70503">
        <ele>53</ele>
        <time>2023-07-04T20:58:23Z</time>
      </trkpt>
      <trkpt lat="46.96217" lon="0.70411">
        <ele>50</ele>
        <time>2023-07-04T20:58:54Z</time>
      </trkpt>
      <trkpt lat="46.96181" lon="0.70253">
        <ele>46</ele>
        <time>2023-07-04T20:59:51Z</time>
      </trkpt>
      <trkpt lat="46.96172" lon="0.70204">
        <ele>46</ele>
        <time>2023-07-04T21:00:09Z</time>
      </trkpt>
      <trkpt lat="46.96108" lon="0.69631">
        <ele>46</ele>
        <time>2023-07-04T21:03:27Z</time>
      </trkpt>
      <trkpt lat="46.96253" lon="0.69563">
        <ele>44</ele>
        <time>2023-07-04T21:04:43Z</time>
      </trkpt>
      <trkpt lat="46.9632" lon="0.69539">
        <ele>44</ele>
        <time>2023-07-04T21:05:18Z</time>
      </trkpt>
      <trkpt lat="46.96346" lon="0.69531">
        <ele>44</ele>
        <time>2023-07-04T21:05:31Z</time>
      </trkpt>
      <trkpt lat="46.96447" lon="0.6952">
        <ele>43</ele>
        <time>2023-07-04T21:06:22Z</time>
      </trkpt>
      <trkpt lat="46.96478" lon="0.69523">
        <ele>43</ele>
        <time>2023-07-04T21:06:37Z</time>
      </trkpt>
      <trkpt lat="46.96526" lon="0.69537">
        <ele>44</ele>
        <time>2023-07-04T21:07:02Z</time>
      </trkpt>
      <trkpt lat="46.96679" lon="0.69591">
        <ele>46</ele>
        <time>2023-07-04T21:08:20Z</time>
      </trkpt>
      <trkpt lat="46.96782" lon="0.69609">
        <ele>46</ele>
        <time>2023-07-04T21:09:12Z</time>
      </trkpt>
      <trkpt lat="46.96845" lon="0.69606">
        <ele>47</ele>
        <time>2023-07-04T21:09:44Z</time>
      </trkpt>
      <trkpt lat="46.97031" lon="0.6958">
        <ele>48</ele>
        <time>2023-07-04T21:11:17Z</time>
      </trkpt>
      <trkpt lat="46.97064" lon="0.69558">
        <ele>49</ele>
        <time>2023-07-04T21:11:35Z</time>
      </trkpt>
      <trkpt lat="46.97082" lon="0.69554">
        <ele>49</ele>
        <time>2023-07-04T21:11:45Z</time>
      </trkpt>
      <trkpt lat="46.97126" lon="0.69557">
        <ele>48</ele>
        <time>2023-07-04T21:12:07Z</time>
      </trkpt>
      <trkpt lat="46.97143" lon="0.69588">
        <ele>48</ele>
        <time>2023-07-04T21:12:20Z</time>
      </trkpt>
      <trkpt lat="46.9716" lon="0.69578">
        <ele>47</ele>
        <time>2023-07-04T21:12:29Z</time>
      </trkpt>
      <trkpt lat="46.97185" lon="0.69598">
        <ele>48</ele>
        <time>2023-07-04T21:12:44Z</time>
      </trkpt>
      <trkpt lat="46.97199" lon="0.69616">
        <ele>48</ele>
        <time>2023-07-04T21:12:53Z</time>
      </trkpt>
      <trkpt lat="46.97203" lon="0.69616">
        <ele>48</ele>
        <time>2023-07-04T21:12:55Z</time>
      </trkpt>
      <trkpt lat="46.97204" lon="0.69554">
        <ele>46</ele>
        <time>2023-07-04T21:13:16Z</time>
      </trkpt>
      <trkpt lat="46.9722" lon="0.69542">
        <ele>46</ele>
        <time>2023-07-04T21:13:25Z</time>
      </trkpt>
      <trkpt lat="46.97175" lon="0.69343">
        <ele>45</ele>
        <time>2023-07-04T21:14:37Z</time>
      </trkpt>
      <trkpt lat="46.97196" lon="0.69329">
        <ele>45</ele>
        <time>2023-07-04T21:14:48Z</time>
      </trkpt>
      <trkpt lat="46.972" lon="0.69331">
        <ele>45</ele>
        <time>2023-07-04T21:14:50Z</time>
      </trkpt>
      <trkpt lat="46.973" lon="0.6928">
        <ele>44</ele>
        <time>2023-07-04T21:15:43Z</time>
      </trkpt>
      <trkpt lat="46.97325" lon="0.69259">
        <ele>43</ele>
        <time>2023-07-04T21:15:58Z</time>
      </trkpt>
      <trkpt lat="46.97336" lon="0.69246">
        <ele>43</ele>
        <time>2023-07-04T21:16:05Z</time>
      </trkpt>
      <trkpt lat="46.97344" lon="0.69229">
        <ele>43</ele>
        <time>2023-07-04T21:16:12Z</time>
      </trkpt>
      <trkpt lat="46.97366" lon="0.69203">
        <ele>44</ele>
        <time>2023-07-04T21:16:26Z</time>
      </trkpt>
      <trkpt lat="46.97421" lon="0.69108">
        <ele>43</ele>
        <time>2023-07-04T21:17:09Z</time>
      </trkpt>
      <trkpt lat="46.97431" lon="0.69083">
        <ele>44</ele>
        <time>2023-07-04T21:17:18Z</time>
      </trkpt>
      <trkpt lat="46.97424" lon="0.6907">
        <ele>44</ele>
        <time>2023-07-04T21:17:24Z</time>
      </trkpt>
      <trkpt lat="46.9746" lon="0.68961">
        <ele>45</ele>
        <time>2023-07-04T21:18:05Z</time>
      </trkpt>
      <trkpt lat="46.97461" lon="0.68953">
        <ele>45</ele>
        <time>2023-07-04T21:18:08Z</time>
      </trkpt>
      <trkpt lat="46.97453" lon="0.68947">
        <ele>45</ele>
        <time>2023-07-04T21:18:13Z</time>
      </trkpt>
      <trkpt lat="46.97503" lon="0.68762">
        <ele>45</ele>
        <time>2023-07-04T21:19:21Z</time>
      </trkpt>
      <trkpt lat="46.97511" lon="0.68753">
        <ele>45</ele>
        <time>2023-07-04T21:19:26Z</time>
      </trkpt>
      <trkpt lat="46.97522" lon="0.68722">
        <ele>45</ele>
        <time>2023-07-04T21:19:38Z</time>
      </trkpt>
      <trkpt lat="46.9761" lon="0.68437">
        <ele>44</ele>
        <time>2023-07-04T21:21:24Z</time>
      </trkpt>
      <trkpt lat="46.97614" lon="0.68409">
        <ele>43</ele>
        <time>2023-07-04T21:21:34Z</time>
      </trkpt>
      <trkpt lat="46.97601" lon="0.68385">
        <ele>45</ele>
        <time>2023-07-04T21:21:45Z</time>
      </trkpt>
      <trkpt lat="46.97562" lon="0.6834">
        <ele>47</ele>
        <time>2023-07-04T21:22:10Z</time>
      </trkpt>
      <trkpt lat="46.97509" lon="0.68301">
        <ele>46</ele>
        <time>2023-07-04T21:22:39Z</time>
      </trkpt>
      <trkpt lat="46.97601" lon="0.67973">
        <ele>46</ele>
        <time>2023-07-04T21:24:40Z</time>
      </trkpt>
      <trkpt lat="46.97677" lon="0.67798">
        <ele>45</ele>
        <time>2023-07-04T21:25:51Z</time>
      </trkpt>
      <trkpt lat="46.97684" lon="0.67778">
        <ele>45</ele>
        <time>2023-07-04T21:25:59Z</time>
      </trkpt>
      <trkpt lat="46.97686" lon="0.67764">
        <ele>45</ele>
        <time>2023-07-04T21:26:04Z</time>
      </trkpt>
      <trkpt lat="46.97684" lon="0.67738">
        <ele>45</ele>
        <time>2023-07-04T21:26:13Z</time>
      </trkpt>
      <trkpt lat="46.97673" lon="0.67718">
        <ele>45</ele>
        <time>2023-07-04T21:26:21Z</time>
      </trkpt>
      <trkpt lat="46.97635" lon="0.67671">
        <ele>44</ele>
        <time>2023-07-04T21:26:46Z</time>
      </trkpt>
      <trkpt lat="46.97628" lon="0.67655">
        <ele>44</ele>
        <time>2023-07-04T21:26:53Z</time>
      </trkpt>
      <trkpt lat="46.97623" lon="0.67608">
        <ele>44</ele>
        <time>2023-07-04T21:27:09Z</time>
      </trkpt>
      <trkpt lat="46.97632" lon="0.6755">
        <ele>45</ele>
        <time>2023-07-04T21:27:29Z</time>
      </trkpt>
      <trkpt lat="46.97644" lon="0.67513">
        <ele>45</ele>
        <time>2023-07-04T21:27:43Z</time>
      </trkpt>
      <trkpt lat="46.97649" lon="0.67484">
        <ele>44</ele>
        <time>2023-07-04T21:27:54Z</time>
      </trkpt>
      <trkpt lat="46.97656" lon="0.67338">
        <ele>45</ele>
        <time>2023-07-04T21:28:43Z</time>
      </trkpt>
      <trkpt lat="46.9766" lon="0.67102">
        <ele>45</ele>
        <time>2023-07-04T21:30:04Z</time>
      </trkpt>
      <trkpt lat="46.97698" lon="0.66854">
        <ele>44</ele>
        <time>2023-07-04T21:31:31Z</time>
      </trkpt>
      <trkpt lat="46.977" lon="0.66793">
        <ele>44</ele>
        <time>2023-07-04T21:31:52Z</time>
      </trkpt>
      <trkpt lat="46.97698" lon="0.66723">
        <ele>45</ele>
        <time>2023-07-04T21:32:16Z</time>
      </trkpt>
      <trkpt lat="46.97702" lon="0.66678">
        <ele>45</ele>
        <time>2023-07-04T21:32:31Z</time>
      </trkpt>
      <trkpt lat="46.97737" lon="0.6644">
        <ele>44</ele>
        <time>2023-07-04T21:33:54Z</time>
      </trkpt>
      <trkpt lat="46.97745" lon="0.66361">
        <ele>43</ele>
        <time>2023-07-04T21:34:22Z</time>
      </trkpt>
      <trkpt lat="46.97752" lon="0.66187">
        <ele>46</ele>
        <time>2023-07-04T21:35:21Z</time>
      </trkpt>
      <trkpt lat="46.97732" lon="0.66104">
        <ele>47</ele>
        <time>2023-07-04T21:35:51Z</time>
      </trkpt>
      <trkpt lat="46.97705" lon="0.66016">
        <ele>47</ele>
        <time>2023-07-04T21:36:24Z</time>
      </trkpt>
      <trkpt lat="46.97729" lon="0.65951">
        <ele>47</ele>
        <time>2023-07-04T21:36:49Z</time>
      </trkpt>
      <trkpt lat="46.97756" lon="0.65892">
        <ele>48</ele>
        <time>2023-07-04T21:37:14Z</time>
      </trkpt>
      <trkpt lat="46.97715" lon="0.6585">
        <ele>47</ele>
        <time>2023-07-04T21:37:39Z</time>
      </trkpt>
      <trkpt lat="46.97704" lon="0.65832">
        <ele>48</ele>
        <time>2023-07-04T21:37:47Z</time>
      </trkpt>
      <trkpt lat="46.97697" lon="0.65813">
        <ele>48</ele>
        <time>2023-07-04T21:37:54Z</time>
      </trkpt>
      <trkpt lat="46.97694" lon="0.65795">
        <ele>48</ele>
        <time>2023-07-04T21:38:01Z</time>
      </trkpt>
      <trkpt lat="46.9769" lon="0.65682">
        <ele>50</ele>
        <time>2023-07-04T21:38:39Z</time>
      </trkpt>
      <trkpt lat="46.97668" lon="0.65577">
        <ele>52</ele>
        <time>2023-07-04T21:39:17Z</time>
      </trkpt>
      <trkpt lat="46.97665" lon="0.65549">
        <ele>53</ele>
        <time>2023-07-04T21:39:26Z</time>
      </trkpt>
      <trkpt lat="46.97666" lon="0.65514">
        <ele>53</ele>
        <time>2023-07-04T21:39:38Z</time>
      </trkpt>
      <trkpt lat="46.97675" lon="0.65455">
        <ele>52</ele>
        <time>2023-07-04T21:39:59Z</time>
      </trkpt>
      <trkpt lat="46.9758" lon="0.65299">
        <ele>63</ele>
        <time>2023-07-04T21:41:10Z</time>
      </trkpt>
      <trkpt lat="46.97575" lon="0.65268">
        <ele>64</ele>
        <time>2023-07-04T21:41:21Z</time>
      </trkpt>
      <trkpt lat="46.97511" lon="0.65182">
        <ele>78</ele>
        <time>2023-07-04T21:42:05Z</time>
      </trkpt>
      <trkpt lat="46.97488" lon="0.65166">
        <ele>80</ele>
        <time>2023-07-04T21:42:17Z</time>
      </trkpt>
      <trkpt lat="46.97454" lon="0.65153">
        <ele>82</ele>
        <time>2023-07-04T21:42:35Z</time>
      </trkpt>
      <trkpt lat="46.97417" lon="0.65146">
        <ele>84</ele>
        <time>2023-07-04T21:42:54Z</time>
      </trkpt>
      <trkpt lat="46.97374" lon="0.65156">
        <ele>87</ele>
        <time>2023-07-04T21:43:15Z</time>
      </trkpt>
      <trkpt lat="46.97205" lon="0.65287">
        <ele>95</ele>
        <time>2023-07-04T21:44:51Z</time>
      </trkpt>
      <trkpt lat="46.97147" lon="0.65242">
        <ele>98</ele>
        <time>2023-07-04T21:45:24Z</time>
      </trkpt>
      <trkpt lat="46.97119" lon="0.65227">
        <ele>99</ele>
        <time>2023-07-04T21:45:39Z</time>
      </trkpt>
      <trkpt lat="46.96865" lon="0.65121">
        <ele>103</ele>
        <time>2023-07-04T21:47:51Z</time>
      </trkpt>
      <trkpt lat="46.96534" lon="0.64919">
        <ele>109</ele>
        <time>2023-07-04T21:50:50Z</time>
      </trkpt>
      <trkpt lat="46.96527" lon="0.6491">
        <ele>109</ele>
        <time>2023-07-04T21:50:55Z</time>
      </trkpt>
      <trkpt lat="46.96399" lon="0.64683">
        <ele>109</ele>
        <time>2023-07-04T21:52:36Z</time>
      </trkpt>
      <trkpt lat="46.96391" lon="0.64676">
        <ele>109</ele>
        <time>2023-07-04T21:52:40Z</time>
      </trkpt>
      <trkpt lat="46.9638" lon="0.64676">
        <ele>109</ele>
        <time>2023-07-04T21:52:46Z</time>
      </trkpt>
      <trkpt lat="46.96417" lon="0.64635">
        <ele>109</ele>
        <time>2023-07-04T21:53:09Z</time>
      </trkpt>
      <trkpt lat="46.96459" lon="0.64601">
        <ele>108</ele>
        <time>2023-07-04T21:53:33Z</time>
      </trkpt>
      <trkpt lat="46.96476" lon="0.64584">
        <ele>108</ele>
        <time>2023-07-04T21:53:43Z</time>
      </trkpt>
      <trkpt lat="46.965" lon="0.64553">
        <ele>108</ele>
        <time>2023-07-04T21:53:59Z</time>
      </trkpt>
      <trkpt lat="46.96521" lon="0.64512">
        <ele>108</ele>
        <time>2023-07-04T21:54:17Z</time>
      </trkpt>
      <trkpt lat="46.96554" lon="0.64435">
        <ele>107</ele>
        <time>2023-07-04T21:54:48Z</time>
      </trkpt>
      <trkpt lat="46.96708" lon="0.64145">
        <ele>105</ele>
        <time>2023-07-04T21:56:53Z</time>
      </trkpt>
      <trkpt lat="46.96745" lon="0.64091">
        <ele>106</ele>
        <time>2023-07-04T21:57:20Z</time>
      </trkpt>
      <trkpt lat="46.96829" lon="0.63957">
        <ele>106</ele>
        <time>2023-07-04T21:58:22Z</time>
      </trkpt>
      <trkpt lat="46.96993" lon="0.63775">
        <ele>108</ele>
        <time>2023-07-04T22:00:05Z</time>
      </trkpt>
      <trkpt lat="46.97078" lon="0.63652">
        <ele>108</ele>
        <time>2023-07-04T22:01:04Z</time>
      </trkpt>
      <trkpt lat="46.97093" lon="0.6364">
        <ele>109</ele>
        <time>2023-07-04T22:01:13Z</time>
      </trkpt>
      <trkpt lat="46.97258" lon="0.63546">
        <ele>109</ele>
        <time>2023-07-04T22:02:42Z</time>
      </trkpt>
      <trkpt lat="46.97271" lon="0.63538">
        <ele>109</ele>
        <time>2023-07-04T22:02:49Z</time>
      </trkpt>
      <trkpt lat="46.97275" lon="0.63531">
        <ele>109</ele>
        <time>2023-07-04T22:02:52Z</time>
      </trkpt>
      <trkpt lat="46.97317" lon="0.634">
        <ele>110</ele>
        <time>2023-07-04T22:03:41Z</time>
      </trkpt>
      <trkpt lat="46.97333" lon="0.63293">
        <ele>109</ele>
        <time>2023-07-04T22:04:19Z</time>
      </trkpt>
      <trkpt lat="46.97363" lon="0.63155">
        <ele>111</ele>
        <time>2023-07-04T22:05:08Z</time>
      </trkpt>
      <trkpt lat="46.97392" lon="0.62875">
        <ele>113</ele>
        <time>2023-07-04T22:06:45Z</time>
      </trkpt>
      <trkpt lat="46.97398" lon="0.62836">
        <ele>111</ele>
        <time>2023-07-04T22:06:58Z</time>
      </trkpt>
      <trkpt lat="46.97422" lon="0.62748">
        <ele>112</ele>
        <time>2023-07-04T22:07:31Z</time>
      </trkpt>
      <trkpt lat="46.97423" lon="0.62738">
        <ele>112</ele>
        <time>2023-07-04T22:07:34Z</time>
      </trkpt>
      <trkpt lat="46.97414" lon="0.62671">
        <ele>112</ele>
        <time>2023-07-04T22:07:58Z</time>
      </trkpt>
      <trkpt lat="46.97413" lon="0.62645">
        <ele>112</ele>
        <time>2023-07-04T22:08:06Z</time>
      </trkpt>
      <trkpt lat="46.97421" lon="0.62607">
        <ele>112</ele>
        <time>2023-07-04T22:08:20Z</time>
      </trkpt>
      <trkpt lat="46.9744" lon="0.62564">
        <ele>112</ele>
        <time>2023-07-04T22:08:37Z</time>
      </trkpt>
      <trkpt lat="46.97487" lon="0.6247">
        <ele>110</ele>
        <time>2023-07-04T22:09:17Z</time>
      </trkpt>
      <trkpt lat="46.97525" lon="0.62626">
        <ele>111</ele>
        <time>2023-07-04T22:10:14Z</time>
      </trkpt>
      <trkpt lat="46.97692" lon="0.62374">
        <ele>109</ele>
        <time>2023-07-04T22:12:14Z</time>
      </trkpt>
      <trkpt lat="46.97728" lon="0.62307">
        <ele>109</ele>
        <time>2023-07-04T22:12:43Z</time>
      </trkpt>
      <trkpt lat="46.97754" lon="0.62241">
        <ele>110</ele>
        <time>2023-07-04T22:13:09Z</time>
      </trkpt>
      <trkpt lat="46.97813" lon="0.62002">
        <ele>102</ele>
        <time>2023-07-04T22:14:36Z</time>
      </trkpt>
      <trkpt lat="46.97841" lon="0.61905">
        <ele>101</ele>
        <time>2023-07-04T22:15:12Z</time>
      </trkpt>
      <trkpt lat="46.97852" lon="0.61883">
        <ele>101</ele>
        <time>2023-07-04T22:15:21Z</time>
      </trkpt>
      <trkpt lat="46.9791" lon="0.61795">
        <ele>101</ele>
        <time>2023-07-04T22:16:03Z</time>
      </trkpt>
      <trkpt lat="46.97964" lon="0.61738">
        <ele>101</ele>
        <time>2023-07-04T22:16:36Z</time>
      </trkpt>
      <trkpt lat="46.97931" lon="0.61739">
        <ele>102</ele>
        <time>2023-07-04T22:16:53Z</time>
      </trkpt>
      <trkpt lat="46.97913" lon="0.61735">
        <ele>102</ele>
        <time>2023-07-04T22:17:02Z</time>
      </trkpt>
      <trkpt lat="46.97867" lon="0.61691">
        <ele>98</ele>
        <time>2023-07-04T22:17:29Z</time>
      </trkpt>
      <trkpt lat="46.9783" lon="0.61677">
        <ele>96</ele>
        <time>2023-07-04T22:17:48Z</time>
      </trkpt>
      <trkpt lat="46.97797" lon="0.61671">
        <ele>94</ele>
        <time>2023-07-04T22:18:05Z</time>
      </trkpt>
      <trkpt lat="46.97584" lon="0.61601">
        <ele>83</ele>
        <time>2023-07-04T22:19:54Z</time>
      </trkpt>
      <trkpt lat="46.97559" lon="0.61589">
        <ele>82</ele>
        <time>2023-07-04T22:20:07Z</time>
      </trkpt>
      <trkpt lat="46.97503" lon="0.61554">
        <ele>78</ele>
        <time>2023-07-04T22:20:38Z</time>
      </trkpt>
      <trkpt lat="46.97486" lon="0.61548">
        <ele>77</ele>
        <time>2023-07-04T22:20:47Z</time>
      </trkpt>
      <trkpt lat="46.97447" lon="0.61538">
        <ele>76</ele>
        <time>2023-07-04T22:21:06Z</time>
      </trkpt>
      <trkpt lat="46.9742" lon="0.61535">
        <ele>75</ele>
        <time>2023-07-04T22:21:20Z</time>
      </trkpt>
      <trkpt lat="46.97339" lon="0.61539">
        <ele>75</ele>
        <time>2023-07-04T22:22:00Z</time>
      </trkpt>
      <trkpt lat="46.97282" lon="0.61407">
        <ele>71</ele>
        <time>2023-07-04T22:22:54Z</time>
      </trkpt>
      <trkpt lat="46.97278" lon="0.61227">
        <ele>69</ele>
        <time>2023-07-04T22:23:55Z</time>
      </trkpt>
      <trkpt lat="46.97282" lon="0.61171">
        <ele>69</ele>
        <time>2023-07-04T22:24:15Z</time>
      </trkpt>
      <trkpt lat="46.97291" lon="0.61119">
        <ele>67</ele>
        <time>2023-07-04T22:24:33Z</time>
      </trkpt>
      <trkpt lat="46.97313" lon="0.61054">
        <ele>64</ele>
        <time>2023-07-04T22:24:58Z</time>
      </trkpt>
      <trkpt lat="46.97358" lon="0.60901">
        <ele>54</ele>
        <time>2023-07-04T22:25:55Z</time>
      </trkpt>
      <trkpt lat="46.97369" lon="0.60847">
        <ele>51</ele>
        <time>2023-07-04T22:26:14Z</time>
      </trkpt>
      <trkpt lat="46.97374" lon="0.60801">
        <ele>49</ele>
        <time>2023-07-04T22:26:30Z</time>
      </trkpt>
      <trkpt lat="46.97368" lon="0.60715">
        <ele>47</ele>
        <time>2023-07-04T22:26:59Z</time>
      </trkpt>
      <trkpt lat="46.97323" lon="0.60427">
        <ele>48</ele>
        <time>2023-07-04T22:28:40Z</time>
      </trkpt>
      <trkpt lat="46.9731" lon="0.60284">
        <ele>47</ele>
        <time>2023-07-04T22:29:29Z</time>
      </trkpt>
      <trkpt lat="46.97179" lon="0.60308">
        <ele>45</ele>
        <time>2023-07-04T22:30:35Z</time>
      </trkpt>
      <trkpt lat="46.97145" lon="0.60317">
        <ele>45</ele>
        <time>2023-07-04T22:30:53Z</time>
      </trkpt>
      <trkpt lat="46.97125" lon="0.60324">
        <ele>45</ele>
        <time>2023-07-04T22:31:03Z</time>
      </trkpt>
      <trkpt lat="46.97051" lon="0.60361">
        <ele>45</ele>
        <time>2023-07-04T22:31:42Z</time>
      </trkpt>
      <trkpt lat="46.97052" lon="0.60374">
        <ele>45</ele>
        <time>2023-07-04T22:31:47Z</time>
      </trkpt>
      <trkpt lat="46.97022" lon="0.60012">
        <ele>42</ele>
        <time>2023-07-04T22:33:51Z</time>
      </trkpt>
      <trkpt lat="46.97018" lon="0.59994">
        <ele>43</ele>
        <time>2023-07-04T22:33:58Z</time>
      </trkpt>
      <trkpt lat="46.9696" lon="0.59816">
        <ele>42</ele>
        <time>2023-07-04T22:35:05Z</time>
      </trkpt>
      <trkpt lat="46.97177" lon="0.59688">
        <ele>42</ele>
        <time>2023-07-04T22:37:02Z</time>
      </trkpt>
      <trkpt lat="46.9719" lon="0.5967">
        <ele>42</ele>
        <time>2023-07-04T22:37:11Z</time>
      </trkpt>
      <trkpt lat="46.97242" lon="0.59546">
        <ele>42</ele>
        <time>2023-07-04T22:38:01Z</time>
      </trkpt>
      <trkpt lat="46.9741" lon="0.59315">
        <ele>41</ele>
        <time>2023-07-04T22:39:56Z</time>
      </trkpt>
      <trkpt lat="46.9744" lon="0.59252">
        <ele>42</ele>
        <time>2023-07-04T22:40:22Z</time>
      </trkpt>
      <trkpt lat="46.97475" lon="0.5917">
        <ele>41</ele>
        <time>2023-07-04T22:40:55Z</time>
      </trkpt>
      <trkpt lat="46.97519" lon="0.59052">
        <ele>40</ele>
        <time>2023-07-04T22:41:41Z</time>
      </trkpt>
      <trkpt lat="46.97537" lon="0.58978">
        <ele>41</ele>
        <time>2023-07-04T22:42:08Z</time>
      </trkpt>
      <trkpt lat="46.97594" lon="0.58787">
        <ele>42</ele>
        <time>2023-07-04T22:43:19Z</time>
      </trkpt>
      <trkpt lat="46.97682" lon="0.58398">
        <ele>41</ele>
        <time>2023-07-04T22:45:39Z</time>
      </trkpt>
      <trkpt lat="46.97787" lon="0.58037">
        <ele>46</ele>
        <time>2023-07-04T22:47:53Z</time>
      </trkpt>
      <trkpt lat="46.97788" lon="0.58005">
        <ele>48</ele>
        <time>2023-07-04T22:48:04Z</time>
      </trkpt>
      <trkpt lat="46.97781" lon="0.57977">
        <ele>48</ele>
        <time>2023-07-04T22:48:14Z</time>
      </trkpt>
      <trkpt lat="46.97774" lon="0.57957">
        <ele>48</ele>
        <time>2023-07-04T22:48:22Z</time>
      </trkpt>
      <trkpt lat="46.97757" lon="0.57923">
        <ele>47</ele>
        <time>2023-07-04T22:48:36Z</time>
      </trkpt>
      <trkpt lat="46.97793" lon="0.57888">
        <ele>49</ele>
        <time>2023-07-04T22:48:58Z</time>
      </trkpt>
      <trkpt lat="46.97848" lon="0.57856">
        <ele>51</ele>
        <time>2023-07-04T22:49:27Z</time>
      </trkpt>
      <trkpt lat="46.9787" lon="0.57794">
        <ele>53</ele>
        <time>2023-07-04T22:49:51Z</time>
      </trkpt>
      <trkpt lat="46.97874" lon="0.57787">
        <ele>54</ele>
        <time>2023-07-04T22:49:54Z</time>
      </trkpt>
      <trkpt lat="46.97885" lon="0.5778">
        <ele>54</ele>
        <time>2023-07-04T22:50:00Z</time>
      </trkpt>
      <trkpt lat="46.97883" lon="0.57736">
        <ele>57</ele>
        <time>2023-07-04T22:50:15Z</time>
      </trkpt>
      <trkpt lat="46.97857" lon="0.57742">
        <ele>57</ele>
        <time>2023-07-04T22:50:29Z</time>
      </trkpt>
      <trkpt lat="46.97848" lon="0.57738">
        <ele>57</ele>
        <time>2023-07-04T22:50:33Z</time>
      </trkpt>
      <trkpt lat="46.97826" lon="0.57737">
        <ele>57</ele>
        <time>2023-07-04T22:50:44Z</time>
      </trkpt>
      <trkpt lat="46.97808" lon="0.57739">
        <ele>57</ele>
        <time>2023-07-04T22:50:53Z</time>
      </trkpt>
      <trkpt lat="46.97752" lon="0.57758">
        <ele>54</ele>
        <time>2023-07-04T22:51:22Z</time>
      </trkpt>
      <trkpt lat="46.97732" lon="0.57768">
        <ele>53</ele>
        <time>2023-07-04T22:51:33Z</time>
      </trkpt>
      <trkpt lat="46.97732" lon="0.57755">
        <ele>54</ele>
        <time>2023-07-04T22:51:37Z</time>
      </trkpt>
      <trkpt lat="46.97715" lon="0.57639">
        <ele>61</ele>
        <time>2023-07-04T22:52:18Z</time>
      </trkpt>
      <trkpt lat="46.97709" lon="0.57606">
        <ele>64</ele>
        <time>2023-07-04T22:52:29Z</time>
      </trkpt>
      <trkpt lat="46.97699" lon="0.57573">
        <ele>66</ele>
        <time>2023-07-04T22:52:42Z</time>
      </trkpt>
      <trkpt lat="46.97673" lon="0.57537">
        <ele>66</ele>
        <time>2023-07-04T22:53:00Z</time>
      </trkpt>
      <trkpt lat="46.97652" lon="0.57516">
        <ele>67</ele>
        <time>2023-07-04T22:53:12Z</time>
      </trkpt>
      <trkpt lat="46.97608" lon="0.57485">
        <ele>66</ele>
        <time>2023-07-04T22:53:37Z</time>
      </trkpt>
      <trkpt lat="46.97532" lon="0.57451">
        <ele>66</ele>
        <time>2023-07-04T22:54:16Z</time>
      </trkpt>
      <trkpt lat="46.97503" lon="0.57424">
        <ele>66</ele>
        <time>2023-07-04T22:54:34Z</time>
      </trkpt>
      <trkpt lat="46.9747" lon="0.57386">
        <ele>68</ele>
        <time>2023-07-04T22:54:55Z</time>
      </trkpt>
      <trkpt lat="46.97463" lon="0.57373">
        <ele>69</ele>
        <time>2023-07-04T22:55:00Z</time>
      </trkpt>
      <trkpt lat="46.9745" lon="0.57259">
        <ele>81</ele>
        <time>2023-07-04T22:55:40Z</time>
      </trkpt>
      <trkpt lat="46.97438" lon="0.57223">
        <ele>84</ele>
        <time>2023-07-04T22:55:53Z</time>
      </trkpt>
      <trkpt lat="46.97428" lon="0.572">
        <ele>85</ele>
        <time>2023-07-04T22:56:03Z</time>
      </trkpt>
      <trkpt lat="46.97415" lon="0.57187">
        <ele>86</ele>
        <time>2023-07-04T22:56:11Z</time>
      </trkpt>
      <trkpt lat="46.97387" lon="0.57151">
        <ele>88</ele>
        <time>2023-07-04T22:56:29Z</time>
      </trkpt>
      <trkpt lat="46.97366" lon="0.57106">
        <ele>89</ele>
        <time>2023-07-04T22:56:48Z</time>
      </trkpt>
      <trkpt lat="46.97306" lon="0.56941">
        <ele>88</ele>
        <time>2023-07-04T22:57:52Z</time>
      </trkpt>
      <trkpt lat="46.97353" lon="0.56905">
        <ele>89</ele>
        <time>2023-07-04T22:58:18Z</time>
      </trkpt>
      <trkpt lat="46.9737" lon="0.56897">
        <ele>89</ele>
        <time>2023-07-04T22:58:27Z</time>
      </trkpt>
      <trkpt lat="46.97557" lon="0.56833">
        <ele>89</ele>
        <time>2023-07-04T23:00:03Z</time>
      </trkpt>
      <trkpt lat="46.97572" lon="0.56836">
        <ele>88</ele>
        <time>2023-07-04T23:00:11Z</time>
      </trkpt>
      <trkpt lat="46.97657" lon="0.56883">
        <ele>85</ele>
        <time>2023-07-04T23:00:56Z</time>
      </trkpt>
      <trkpt lat="46.97685" lon="0.56894">
        <ele>84</ele>
        <time>2023-07-04T23:01:11Z</time>
      </trkpt>
      <trkpt lat="46.97542" lon="0.56409">
        <ele>87</ele>
        <time>2023-07-04T23:04:11Z</time>
      </trkpt>
      <trkpt lat="46.97858" lon="0.56215">
        <ele>65</ele>
        <time>2023-07-04T23:07:03Z</time>
      </trkpt>
      <trkpt lat="46.97898" lon="0.56187">
        <ele>63</ele>
        <time>2023-07-04T23:07:25Z</time>
      </trkpt>
      <trkpt lat="46.9794" lon="0.56174">
        <ele>64</ele>
        <time>2023-07-04T23:07:46Z</time>
      </trkpt>
      <trkpt lat="46.97968" lon="0.56168">
        <ele>67</ele>
        <time>2023-07-04T23:08:01Z</time>
      </trkpt>
      <trkpt lat="46.97983" lon="0.56169">
        <ele>68</ele>
        <time>2023-07-04T23:08:08Z</time>
      </trkpt>
      <trkpt lat="46.97955" lon="0.56057">
        <ele>70</ele>
        <time>2023-07-04T23:08:49Z</time>
      </trkpt>
      <trkpt lat="46.97936" lon="0.55968">
        <ele>68</ele>
        <time>2023-07-04T23:09:21Z</time>
      </trkpt>
      <trkpt lat="46.97908" lon="0.55866">
        <ele>69</ele>
        <time>2023-07-04T23:09:58Z</time>
      </trkpt>
      <trkpt lat="46.97886" lon="0.55772">
        <ele>72</ele>
        <time>2023-07-04T23:10:32Z</time>
      </trkpt>
      <trkpt lat="46.97866" lon="0.55701">
        <ele>73</ele>
        <time>2023-07-04T23:10:58Z</time>
      </trkpt>
      <trkpt lat="46.97824" lon="0.55583">
        <ele>76</ele>
        <time>2023-07-04T23:11:44Z</time>
      </trkpt>
      <trkpt lat="46.97902" lon="0.55545">
        <ele>83</ele>
        <time>2023-07-04T23:12:25Z</time>
      </trkpt>
      <trkpt lat="46.9791" lon="0.55543">
        <ele>83</ele>
        <time>2023-07-04T23:12:29Z</time>
      </trkpt>
      <trkpt lat="46.97948" lon="0.5555">
        <ele>84</ele>
        <time>2023-07-04T23:12:48Z</time>
      </trkpt>
      <trkpt lat="46.98029" lon="0.55581">
        <ele>87</ele>
        <time>2023-07-04T23:13:30Z</time>
      </trkpt>
      <trkpt lat="46.98257" lon="0.55575">
        <ele>102</ele>
        <time>2023-07-04T23:15:24Z</time>
      </trkpt>
      <trkpt lat="46.98267" lon="0.55573">
        <ele>102</ele>
        <time>2023-07-04T23:15:29Z</time>
      </trkpt>
      <trkpt lat="46.98364" lon="0.55518">
        <ele>109</ele>
        <time>2023-07-04T23:16:21Z</time>
      </trkpt>
      <trkpt lat="46.98395" lon="0.55487">
        <ele>110</ele>
        <time>2023-07-04T23:16:40Z</time>
      </trkpt>
      <trkpt lat="46.98408" lon="0.55479">
        <ele>111</ele>
        <time>2023-07-04T23:16:47Z</time>
      </trkpt>
      <trkpt lat="46.9852" lon="0.5546">
        <ele>113</ele>
        <time>2023-07-04T23:17:43Z</time>
      </trkpt>
      <trkpt lat="46.98573" lon="0.55446">
        <ele>114</ele>
        <time>2023-07-04T23:18:10Z</time>
      </trkpt>
      <trkpt lat="46.98586" lon="0.55506">
        <ele>114</ele>
        <time>2023-07-04T23:18:32Z</time>
      </trkpt>
      <trkpt lat="46.98626" lon="0.55656">
        <ele>112</ele>
        <time>2023-07-04T23:19:27Z</time>
      </trkpt>
      <trkpt lat="46.98709" lon="0.55849">
        <ele>107</ele>
        <time>2023-07-04T23:20:45Z</time>
      </trkpt>
      <trkpt lat="46.98551" lon="0.55944">
        <ele>108</ele>
        <time>2023-07-04T23:22:10Z</time>
      </trkpt>
      <trkpt lat="46.98554" lon="0.55964">
        <ele>108</ele>
        <time>2023-07-04T23:22:17Z</time>
      </trkpt>
      <trkpt lat="46.98677" lon="0.56286">
        <ele>94</ele>
        <time>2023-07-04T23:24:23Z</time>
      </trkpt>
      <trkpt lat="46.98677" lon="0.56304">
        <ele>93</ele>
        <time>2023-07-04T23:24:29Z</time>
      </trkpt>
      <trkpt lat="46.9867" lon="0.56356">
        <ele>90</ele>
        <time>2023-07-04T23:24:47Z</time>
      </trkpt>
      <trkpt lat="46.98657" lon="0.56505">
        <ele>81</ele>
        <time>2023-07-04T23:25:39Z</time>
      </trkpt>
      <trkpt lat="46.98659" lon="0.56544">
        <ele>78</ele>
        <time>2023-07-04T23:25:52Z</time>
      </trkpt>
      <trkpt lat="46.98761" lon="0.57105">
        <ele>46</ele>
        <time>2023-07-04T23:29:10Z</time>
      </trkpt>
      <trkpt lat="46.98767" lon="0.57141">
        <ele>44</ele>
        <time>2023-07-04T23:29:23Z</time>
      </trkpt>
      <trkpt lat="46.98768" lon="0.5718">
        <ele>42</ele>
        <time>2023-07-04T23:29:36Z</time>
      </trkpt>
      <trkpt lat="46.98776" lon="0.57213">
        <ele>41</ele>
        <time>2023-07-04T23:29:48Z</time>
      </trkpt>
      <trkpt lat="46.98808" lon="0.57223">
        <ele>41</ele>
        <time>2023-07-04T23:30:05Z</time>
      </trkpt>
      <trkpt lat="46.98909" lon="0.57246">
        <ele>38</ele>
        <time>2023-07-04T23:30:56Z</time>
      </trkpt>
      <trkpt lat="46.99013" lon="0.57273">
        <ele>38</ele>
        <time>2023-07-04T23:31:49Z</time>
      </trkpt>
      <trkpt lat="46.99056" lon="0.5729">
        <ele>37</ele>
        <time>2023-07-04T23:32:11Z</time>
      </trkpt>
      <trkpt lat="46.99159" lon="0.57319">
        <ele>37</ele>
        <time>2023-07-04T23:33:03Z</time>
      </trkpt>
      <trkpt lat="46.99286" lon="0.5736">
        <ele>37</ele>
        <time>2023-07-04T23:34:08Z</time>
      </trkpt>
      <trkpt lat="46.99326" lon="0.57377">
        <ele>38</ele>
        <time>2023-07-04T23:34:29Z</time>
      </trkpt>
      <trkpt lat="46.99398" lon="0.57378">
        <ele>38</ele>
        <time>2023-07-04T23:35:05Z</time>
      </trkpt>
      <trkpt lat="46.99415" lon="0.57356">
        <ele>38</ele>
        <time>2023-07-04T23:35:17Z</time>
      </trkpt>
      <trkpt lat="46.99403" lon="0.57348">
        <ele>38</ele>
        <time>2023-07-04T23:35:23Z</time>
      </trkpt>
      <trkpt lat="46.99398" lon="0.57341">
        <ele>38</ele>
        <time>2023-07-04T23:35:27Z</time>
      </trkpt>
      <trkpt lat="46.99378" lon="0.57249">
        <ele>40</ele>
        <time>2023-07-04T23:36:00Z</time>
      </trkpt>
      <trkpt lat="46.99369" lon="0.57219">
        <ele>41</ele>
        <time>2023-07-04T23:36:11Z</time>
      </trkpt>
      <trkpt lat="46.99326" lon="0.57116">
        <ele>42</ele>
        <time>2023-07-04T23:36:52Z</time>
      </trkpt>
      <trkpt lat="46.99283" lon="0.57031">
        <ele>44</ele>
        <time>2023-07-04T23:37:28Z</time>
      </trkpt>
      <trkpt lat="46.99269" lon="0.5697">
        <ele>45</ele>
        <time>2023-07-04T23:37:50Z</time>
      </trkpt>
      <trkpt lat="46.99259" lon="0.56961">
        <ele>45</ele>
        <time>2023-07-04T23:37:56Z</time>
      </trkpt>
      <trkpt lat="46.99253" lon="0.56948">
        <ele>46</ele>
        <time>2023-07-04T23:38:01Z</time>
      </trkpt>
      <trkpt lat="46.99217" lon="0.56799">
        <ele>46</ele>
        <time>2023-07-04T23:38:55Z</time>
      </trkpt>
      <trkpt lat="46.99224" lon="0.5673">
        <ele>48</ele>
        <time>2023-07-04T23:39:19Z</time>
      </trkpt>
      <trkpt lat="46.99224" lon="0.56691">
        <ele>51</ele>
        <time>2023-07-04T23:39:32Z</time>
      </trkpt>
      <trkpt lat="46.99242" lon="0.56664">
        <ele>51</ele>
        <time>2023-07-04T23:39:45Z</time>
      </trkpt>
      <trkpt lat="46.99306" lon="0.56625">
        <ele>51</ele>
        <time>2023-07-04T23:40:20Z</time>
      </trkpt>
      <trkpt lat="46.99367" lon="0.56579">
        <ele>52</ele>
        <time>2023-07-04T23:40:54Z</time>
      </trkpt>
      <trkpt lat="46.99439" lon="0.5651">
        <ele>53</ele>
        <time>2023-07-04T23:41:37Z</time>
      </trkpt>
      <trkpt lat="46.99354" lon="0.56293">
        <ele>81</ele>
        <time>2023-07-04T23:43:03Z</time>
      </trkpt>
      <trkpt lat="46.99376" lon="0.56279">
        <ele>81</ele>
        <time>2023-07-04T23:43:15Z</time>
      </trkpt>
      <trkpt lat="46.9943" lon="0.56252">
        <ele>77</ele>
        <time>2023-07-04T23:43:43Z</time>
      </trkpt>
      <trkpt lat="46.99457" lon="0.56244">
        <ele>76</ele>
        <time>2023-07-04T23:43:57Z</time>
      </trkpt>
      <trkpt lat="46.99622" lon="0.56131">
        <ele>76</ele>
        <time>2023-07-04T23:45:28Z</time>
      </trkpt>
      <trkpt lat="46.99687" lon="0.56103">
        <ele>71</ele>
        <time>2023-07-04T23:46:02Z</time>
      </trkpt>
      <trkpt lat="46.99775" lon="0.56019">
        <ele>74</ele>
        <time>2023-07-04T23:46:55Z</time>
      </trkpt>
      <trkpt lat="46.99787" lon="0.55994">
        <ele>75</ele>
        <time>2023-07-04T23:47:05Z</time>
      </trkpt>
      <trkpt lat="46.99795" lon="0.55955">
        <ele>78</ele>
        <time>2023-07-04T23:47:19Z</time>
      </trkpt>
      <trkpt lat="46.99812" lon="0.5591">
        <ele>78</ele>
        <time>2023-07-04T23:47:37Z</time>
      </trkpt>
      <trkpt lat="46.99919" lon="0.55736">
        <ele>70</ele>
        <time>2023-07-04T23:48:57Z</time>
      </trkpt>
      <trkpt lat="46.99932" lon="0.55712">
        <ele>70</ele>
        <time>2023-07-04T23:49:07Z</time>
      </trkpt>
      <trkpt lat="46.99951" lon="0.55667">
        <ele>69</ele>
        <time>2023-07-04T23:49:25Z</time>
      </trkpt>
      <trkpt lat="46.99956" lon="0.55662">
        <ele>68</ele>
        <time>2023-07-04T23:49:28Z</time>
      </trkpt>
      <trkpt lat="47.00008" lon="0.55644">
        <ele>62</ele>
        <time>2023-07-04T23:49:55Z</time>
      </trkpt>
      <trkpt lat="47.00069" lon="0.55722">
        <ele>57</ele>
        <time>2023-07-04T23:50:35Z</time>
      </trkpt>
      <trkpt lat="47.00084" lon="0.55709">
        <ele>56</ele>
        <time>2023-07-04T23:50:44Z</time>
      </trkpt>
      <trkpt lat="47.00101" lon="0.55653">
        <ele>56</ele>
        <time>2023-07-04T23:51:05Z</time>
      </trkpt>
      <trkpt lat="47.00123" lon="0.55612">
        <ele>53</ele>
        <time>2023-07-04T23:51:23Z</time>
      </trkpt>
      <trkpt lat="47.0006" lon="0.55506">
        <ele>56</ele>
        <time>2023-07-04T23:52:11Z</time>
      </trkpt>
      <trkpt lat="47.00003" lon="0.55421">
        <ele>57</ele>
        <time>2023-07-04T23:52:51Z</time>
      </trkpt>
      <trkpt lat="46.99974" lon="0.55351">
        <ele>55</ele>
        <time>2023-07-04T23:53:19Z</time>
      </trkpt>
      <trkpt lat="46.99903" lon="0.54961">
        <ele>50</ele>
        <time>2023-07-04T23:55:37Z</time>
      </trkpt>
      <trkpt lat="46.99887" lon="0.54788">
        <ele>48</ele>
        <time>2023-07-04T23:56:37Z</time>
      </trkpt>
      <trkpt lat="47.00118" lon="0.547">
        <ele>54</ele>
        <time>2023-07-04T23:58:36Z</time>
      </trkpt>
      <trkpt lat="47.00495" lon="0.54549">
        <ele>83</ele>
        <time>2023-07-05T00:01:52Z</time>
      </trkpt>
      <trkpt lat="47.00507" lon="0.54547">
        <ele>84</ele>
        <time>2023-07-05T00:01:58Z</time>
      </trkpt>
      <trkpt lat="47.00529" lon="0.54557">
        <ele>87</ele>
        <time>2023-07-05T00:02:09Z</time>
      </trkpt>
      <trkpt lat="47.00613" lon="0.54635">
        <ele>93</ele>
        <time>2023-07-05T00:02:59Z</time>
      </trkpt>
      <trkpt lat="47.00633" lon="0.54638">
        <ele>94</ele>
        <time>2023-07-05T00:03:09Z</time>
      </trkpt>
      <trkpt lat="47.00641" lon="0.54631">
        <ele>95</ele>
        <time>2023-07-05T00:03:14Z</time>
      </trkpt>
      <trkpt lat="47.00696" lon="0.54523">
        <ele>101</ele>
        <time>2023-07-05T00:04:00Z</time>
      </trkpt>
      <trkpt lat="47.00853" lon="0.54336">
        <ele>108</ele>
        <time>2023-07-05T00:05:41Z</time>
      </trkpt>
      <trkpt lat="47.00899" lon="0.54293">
        <ele>110</ele>
        <time>2023-07-05T00:06:08Z</time>
      </trkpt>
      <trkpt lat="47.00932" lon="0.54288">
        <ele>110</ele>
        <time>2023-07-05T00:06:25Z</time>
      </trkpt>
      <trkpt lat="47.00968" lon="0.54274">
        <ele>110</ele>
        <time>2023-07-05T00:06:44Z</time>
      </trkpt>
      <trkpt lat="47.01058" lon="0.54217">
        <ele>108</ele>
        <time>2023-07-05T00:07:33Z</time>
      </trkpt>
      <trkpt lat="47.01079" lon="0.54214">
        <ele>106</ele>
        <time>2023-07-05T00:07:43Z</time>
      </trkpt>
      <trkpt lat="47.01104" lon="0.54185">
        <ele>105</ele>
        <time>2023-07-05T00:07:59Z</time>
      </trkpt>
      <trkpt lat="47.0115" lon="0.54101">
        <ele>104</ele>
        <time>2023-07-05T00:08:36Z</time>
      </trkpt>
      <trkpt lat="47.01272" lon="0.54272">
        <ele>101</ele>
        <time>2023-07-05T00:10:00Z</time>
      </trkpt>
      <trkpt lat="47.01298" lon="0.54318">
        <ele>98</ele>
        <time>2023-07-05T00:10:21Z</time>
      </trkpt>
      <trkpt lat="47.01325" lon="0.54406">
        <ele>87</ele>
        <time>2023-07-05T00:10:54Z</time>
      </trkpt>
      <trkpt lat="47.01333" lon="0.54554">
        <ele>68</ele>
        <time>2023-07-05T00:11:44Z</time>
      </trkpt>
      <trkpt lat="47.0133" lon="0.54685">
        <ele>61</ele>
        <time>2023-07-05T00:12:29Z</time>
      </trkpt>
      <trkpt lat="47.01376" lon="0.54927">
        <ele>50</ele>
        <time>2023-07-05T00:13:55Z</time>
      </trkpt>
      <trkpt lat="47.01387" lon="0.54963">
        <ele>47</ele>
        <time>2023-07-05T00:14:08Z</time>
      </trkpt>
      <trkpt lat="47.01419" lon="0.54935">
        <ele>49</ele>
        <time>2023-07-05T00:14:27Z</time>
      </trkpt>
      <trkpt lat="47.01435" lon="0.54909">
        <ele>51</ele>
        <time>2023-07-05T00:14:39Z</time>
      </trkpt>
      <trkpt lat="47.01447" lon="0.5488">
        <ele>55</ele>
        <time>2023-07-05T00:14:50Z</time>
      </trkpt>
      <trkpt lat="47.01495" lon="0.54829">
        <ele>63</ele>
        <time>2023-07-05T00:15:20Z</time>
      </trkpt>
      <trkpt lat="47.0151" lon="0.54809">
        <ele>65</ele>
        <time>2023-07-05T00:15:30Z</time>
      </trkpt>
      <trkpt lat="47.0152" lon="0.54815">
        <ele>64</ele>
        <time>2023-07-05T00:15:36Z</time>
      </trkpt>
      <trkpt lat="47.01555" lon="0.54897">
        <ele>55</ele>
        <time>2023-07-05T00:16:09Z</time>
      </trkpt>
      <trkpt lat="47.01565" lon="0.54913">
        <ele>53</ele>
        <time>2023-07-05T00:16:16Z</time>
      </trkpt>
      <trkpt lat="47.01574" lon="0.54916">
        <ele>52</ele>
        <time>2023-07-05T00:16:21Z</time>
      </trkpt>
      <trkpt lat="47.01651" lon="0.54896">
        <ele>51</ele>
        <time>2023-07-05T00:17:00Z</time>
      </trkpt>
      <trkpt lat="47.01671" lon="0.54888">
        <ele>51</ele>
        <time>2023-07-05T00:17:10Z</time>
      </trkpt>
      <trkpt lat="47.0176" lon="0.54817">
        <ele>52</ele>
        <time>2023-07-05T00:18:01Z</time>
      </trkpt>
      <trkpt lat="47.01852" lon="0.54736">
        <ele>50</ele>
        <time>2023-07-05T00:18:55Z</time>
      </trkpt>
      <trkpt lat="47.01919" lon="0.54701">
        <ele>46</ele>
        <time>2023-07-05T00:19:30Z</time>
      </trkpt>
      <trkpt lat="47.01969" lon="0.54683">
        <ele>47</ele>
        <time>2023-07-05T00:19:56Z</time>
      </trkpt>
      <trkpt lat="47.0198" lon="0.54683">
        <ele>47</ele>
        <time>2023-07-05T00:20:01Z</time>
      </trkpt>
      <trkpt lat="47.0199" lon="0.54689">
        <ele>47</ele>
        <time>2023-07-05T00:20:07Z</time>
      </trkpt>
      <trkpt lat="47.01997" lon="0.54633">
        <ele>52</ele>
        <time>2023-07-05T00:20:26Z</time>
      </trkpt>
      <trkpt lat="47.02042" lon="0.54558">
        <ele>64</ele>
        <time>2023-07-05T00:21:00Z</time>
      </trkpt>
      <trkpt lat="47.0206" lon="0.54522">
        <ele>67</ele>
        <time>2023-07-05T00:21:16Z</time>
      </trkpt>
      <trkpt lat="47.02078" lon="0.54509">
        <ele>71</ele>
        <time>2023-07-05T00:21:26Z</time>
      </trkpt>
      <trkpt lat="47.021" lon="0.54484">
        <ele>76</ele>
        <time>2023-07-05T00:21:40Z</time>
      </trkpt>
      <trkpt lat="47.0213" lon="0.54427">
        <ele>84</ele>
        <time>2023-07-05T00:22:04Z</time>
      </trkpt>
      <trkpt lat="47.02147" lon="0.54382">
        <ele>89</ele>
        <time>2023-07-05T00:22:22Z</time>
      </trkpt>
      <trkpt lat="47.02159" lon="0.54365">
        <ele>93</ele>
        <time>2023-07-05T00:22:30Z</time>
      </trkpt>
      <trkpt lat="47.02205" lon="0.54317">
        <ele>103</ele>
        <time>2023-07-05T00:22:58Z</time>
      </trkpt>
      <trkpt lat="47.0221" lon="0.54294">
        <ele>104</ele>
        <time>2023-07-05T00:23:06Z</time>
      </trkpt>
      <trkpt lat="47.02211" lon="0.54192">
        <ele>107</ele>
        <time>2023-07-05T00:23:41Z</time>
      </trkpt>
      <trkpt lat="47.02216" lon="0.5416">
        <ele>108</ele>
        <time>2023-07-05T00:23:52Z</time>
      </trkpt>
      <trkpt lat="47.02259" lon="0.54068">
        <ele>112</ele>
        <time>2023-07-05T00:24:31Z</time>
      </trkpt>
      <trkpt lat="47.02275" lon="0.54049">
        <ele>113</ele>
        <time>2023-07-05T00:24:41Z</time>
      </trkpt>
      <trkpt lat="47.02377" lon="0.5399">
        <ele>112</ele>
        <time>2023-07-05T00:25:36Z</time>
      </trkpt>
      <trkpt lat="47.02404" lon="0.53935">
        <ele>112</ele>
        <time>2023-07-05T00:25:59Z</time>
      </trkpt>
      <trkpt lat="47.02415" lon="0.53918">
        <ele>112</ele>
        <time>2023-07-05T00:26:07Z</time>
      </trkpt>
      <trkpt lat="47.02427" lon="0.53937">
        <ele>112</ele>
        <time>2023-07-05T00:26:16Z</time>
      </trkpt>
      <trkpt lat="47.02468" lon="0.53985">
        <ele>112</ele>
        <time>2023-07-05T00:26:42Z</time>
      </trkpt>
      <trkpt lat="47.02538" lon="0.54031">
        <ele>114</ele>
        <time>2023-07-05T00:27:20Z</time>
      </trkpt>
      <trkpt lat="47.02576" lon="0.54044">
        <ele>115</ele>
        <time>2023-07-05T00:27:40Z</time>
      </trkpt>
      <trkpt lat="47.02649" lon="0.54047">
        <ele>114</ele>
        <time>2023-07-05T00:28:16Z</time>
      </trkpt>
      <trkpt lat="47.02687" lon="0.54042">
        <ele>113</ele>
        <time>2023-07-05T00:28:35Z</time>
      </trkpt>
      <trkpt lat="47.02714" lon="0.5403">
        <ele>111</ele>
        <time>2023-07-05T00:28:50Z</time>
      </trkpt>
      <trkpt lat="47.02752" lon="0.53999">
        <ele>108</ele>
        <time>2023-07-05T00:29:11Z</time>
      </trkpt>
      <trkpt lat="47.02798" lon="0.53973">
        <ele>104</ele>
        <time>2023-07-05T00:29:36Z</time>
      </trkpt>
      <trkpt lat="47.02849" lon="0.53911">
        <ele>94</ele>
        <time>2023-07-05T00:30:09Z</time>
      </trkpt>
      <trkpt lat="47.02935" lon="0.53789">
        <ele>75</ele>
        <time>2023-07-05T00:31:09Z</time>
      </trkpt>
      <trkpt lat="47.02952" lon="0.53787">
        <ele>73</ele>
        <time>2023-07-05T00:31:18Z</time>
      </trkpt>
      <trkpt lat="47.02967" lon="0.53791">
        <ele>73</ele>
        <time>2023-07-05T00:31:25Z</time>
      </trkpt>
      <trkpt lat="47.03026" lon="0.53825">
        <ele>71</ele>
        <time>2023-07-05T00:31:57Z</time>
      </trkpt>
      <trkpt lat="47.03041" lon="0.53827">
        <ele>70</ele>
        <time>2023-07-05T00:32:04Z</time>
      </trkpt>
      <trkpt lat="47.03067" lon="0.53817">
        <ele>67</ele>
        <time>2023-07-05T00:32:18Z</time>
      </trkpt>
      <trkpt lat="47.03095" lon="0.53799">
        <ele>65</ele>
        <time>2023-07-05T00:32:33Z</time>
      </trkpt>
      <trkpt lat="47.03129" lon="0.53769">
        <ele>62</ele>
        <time>2023-07-05T00:32:53Z</time>
      </trkpt>
      <trkpt lat="47.03216" lon="0.53804">
        <ele>60</ele>
        <time>2023-07-05T00:33:38Z</time>
      </trkpt>
      <trkpt lat="47.03321" lon="0.53908">
        <ele>55</ele>
        <time>2023-07-05T00:34:42Z</time>
      </trkpt>
      <trkpt lat="47.03334" lon="0.53871">
        <ele>57</ele>
        <time>2023-07-05T00:34:56Z</time>
      </trkpt>
      <trkpt lat="47.03399" lon="0.53771">
        <ele>67</ele>
        <time>2023-07-05T00:35:43Z</time>
      </trkpt>
      <trkpt lat="47.03426" lon="0.53737">
        <ele>71</ele>
        <time>2023-07-05T00:36:01Z</time>
      </trkpt>
      <trkpt lat="47.03521" lon="0.53657">
        <ele>81</ele>
        <time>2023-07-05T00:36:56Z</time>
      </trkpt>
      <trkpt lat="47.03535" lon="0.53638">
        <ele>83</ele>
        <time>2023-07-05T00:37:05Z</time>
      </trkpt>
      <trkpt lat="47.03635" lon="0.53462">
        <ele>86</ele>
        <time>2023-07-05T00:38:23Z</time>
      </trkpt>
      <trkpt lat="47.03639" lon="0.53445">
        <ele>85</ele>
        <time>2023-07-05T00:38:29Z</time>
      </trkpt>
      <trkpt lat="47.03563" lon="0.53165">
        <ele>83</ele>
        <time>2023-07-05T00:40:12Z</time>
      </trkpt>
      <trkpt lat="47.03631" lon="0.53235">
        <ele>76</ele>
        <time>2023-07-05T00:40:54Z</time>
      </trkpt>
      <trkpt lat="47.03721" lon="0.53315">
        <ele>69</ele>
        <time>2023-07-05T00:41:46Z</time>
      </trkpt>
      <trkpt lat="47.03831" lon="0.53445">
        <ele>62</ele>
        <time>2023-07-05T00:42:57Z</time>
      </trkpt>
      <trkpt lat="47.03917" lon="0.5353">
        <ele>58</ele>
        <time>2023-07-05T00:43:49Z</time>
      </trkpt>
      <trkpt lat="47.04033" lon="0.53627">
        <ele>54</ele>
        <time>2023-07-05T00:44:56Z</time>
      </trkpt>
      <trkpt lat="47.04046" lon="0.53635">
        <ele>53</ele>
        <time>2023-07-05T00:45:03Z</time>
      </trkpt>
      <trkpt lat="47.04059" lon="0.53638">
        <ele>51</ele>
        <time>2023-07-05T00:45:09Z</time>
      </trkpt>
      <trkpt lat="47.04064" lon="0.53635">
        <ele>51</ele>
        <time>2023-07-05T00:45:12Z</time>
      </trkpt>
      <trkpt lat="47.04075" lon="0.53647">
        <ele>50</ele>
        <time>2023-07-05T00:45:19Z</time>
      </trkpt>
      <trkpt lat="47.04173" lon="0.53706">
        <ele>44</ele>
        <time>2023-07-05T00:46:12Z</time>
      </trkpt>
      <trkpt lat="47.04183" lon="0.53717">
        <ele>43</ele>
        <time>2023-07-05T00:46:18Z</time>
      </trkpt>
      <trkpt lat="47.04192" lon="0.53732">
        <ele>43</ele>
        <time>2023-07-05T00:46:25Z</time>
      </trkpt>
      <trkpt lat="47.04207" lon="0.53788">
        <ele>42</ele>
        <time>2023-07-05T00:46:46Z</time>
      </trkpt>
      <trkpt lat="47.04224" lon="0.53835">
        <ele>41</ele>
        <time>2023-07-05T00:47:04Z</time>
      </trkpt>
      <trkpt lat="47.04236" lon="0.53854">
        <ele>42</ele>
        <time>2023-07-05T00:47:13Z</time>
      </trkpt>
      <trkpt lat="47.04245" lon="0.53859">
        <ele>42</ele>
        <time>2023-07-05T00:47:17Z</time>
      </trkpt>
      <trkpt lat="47.0426" lon="0.53859">
        <ele>42</ele>
        <time>2023-07-05T00:47:25Z</time>
      </trkpt>
      <trkpt lat="47.04259" lon="0.54028">
        <ele>42</ele>
        <time>2023-07-05T00:48:23Z</time>
      </trkpt>
      <trkpt lat="47.04289" lon="0.5403">
        <ele>42</ele>
        <time>2023-07-05T00:48:38Z</time>
      </trkpt>
      <trkpt lat="47.04322" lon="0.54044">
        <ele>41</ele>
        <time>2023-07-05T00:48:55Z</time>
      </trkpt>
      <trkpt lat="47.04349" lon="0.54048">
        <ele>41</ele>
        <time>2023-07-05T00:49:08Z</time>
      </trkpt>
      <trkpt lat="47.04371" lon="0.5405">
        <ele>41</ele>
        <time>2023-07-05T00:49:19Z</time>
      </trkpt>
      <trkpt lat="47.04408" lon="0.54049">
        <ele>42</ele>
        <time>2023-07-05T00:49:38Z</time>
      </trkpt>
      <trkpt lat="47.04431" lon="0.54046">
        <ele>41</ele>
        <time>2023-07-05T00:49:49Z</time>
      </trkpt>
      <trkpt lat="47.04612" lon="0.53996">
        <ele>40</ele>
        <time>2023-07-05T00:51:22Z</time>
      </trkpt>
      <trkpt lat="47.04653" lon="0.53982">
        <ele>40</ele>
        <time>2023-07-05T00:51:43Z</time>
      </trkpt>
      <trkpt lat="47.04688" lon="0.53976">
        <ele>40</ele>
        <time>2023-07-05T00:52:00Z</time>
      </trkpt>
      <trkpt lat="47.04787" lon="0.54006">
        <ele>39</ele>
        <time>2023-07-05T00:52:51Z</time>
      </trkpt>
      <trkpt lat="47.04916" lon="0.54065">
        <ele>40</ele>
        <time>2023-07-05T00:53:58Z</time>
      </trkpt>
      <trkpt lat="47.05022" lon="0.54101">
        <ele>41</ele>
        <time>2023-07-05T00:54:53Z</time>
      </trkpt>
      <trkpt lat="47.05031" lon="0.54109">
        <ele>41</ele>
        <time>2023-07-05T00:54:58Z</time>
      </trkpt>
      <trkpt lat="47.05038" lon="0.54127">
        <ele>40</ele>
        <time>2023-07-05T00:55:05Z</time>
      </trkpt>
      <trkpt lat="47.05038" lon="0.54135">
        <ele>40</ele>
        <time>2023-07-05T00:55:08Z</time>
      </trkpt>
      <trkpt lat="47.05042" lon="0.54146">
        <ele>40</ele>
        <time>2023-07-05T00:55:12Z</time>
      </trkpt>
      <trkpt lat="47.05043" lon="0.54172">
        <ele>39</ele>
        <time>2023-07-05T00:55:21Z</time>
      </trkpt>
      <trkpt lat="47.04978" lon="0.54655">
        <ele>38</ele>
        <time>2023-07-05T00:58:09Z</time>
      </trkpt>
      <trkpt lat="47.04963" lon="0.54749">
        <ele>42</ele>
        <time>2023-07-05T00:58:42Z</time>
      </trkpt>
      <trkpt lat="47.04967" lon="0.54754">
        <ele>42</ele>
        <time>2023-07-05T00:58:45Z</time>
      </trkpt>
      <trkpt lat="47.04971" lon="0.54754">
        <ele>42</ele>
        <time>2023-07-05T00:58:47Z</time>
      </trkpt>
      <trkpt lat="47.05057" lon="0.54733">
        <ele>41</ele>
        <time>2023-07-05T00:59:30Z</time>
      </trkpt>
      <trkpt lat="47.05063" lon="0.54735">
        <ele>41</ele>
        <time>2023-07-05T00:59:33Z</time>
      </trkpt>
      <trkpt lat="47.05068" lon="0.5477">
        <ele>41</ele>
        <time>2023-07-05T00:59:45Z</time>
      </trkpt>
      <trkpt lat="47.05078" lon="0.54797">
        <ele>42</ele>
        <time>2023-07-05T00:59:56Z</time>
      </trkpt>
      <trkpt lat="47.05125" lon="0.54899">
        <ele>41</ele>
        <time>2023-07-05T01:00:38Z</time>
      </trkpt>
      <trkpt lat="47.05157" lon="0.54985">
        <ele>42</ele>
        <time>2023-07-05T01:01:11Z</time>
      </trkpt>
      <trkpt lat="47.05165" lon="0.54992">
        <ele>42</ele>
        <time>2023-07-05T01:01:16Z</time>
      </trkpt>
      <trkpt lat="47.05174" lon="0.54993">
        <ele>42</ele>
        <time>2023-07-05T01:01:20Z</time>
      </trkpt>
      <trkpt lat="47.05186" lon="0.54998">
        <ele>42</ele>
        <time>2023-07-05T01:01:27Z</time>
      </trkpt>
      <trkpt lat="47.05202" lon="0.55005">
        <ele>42</ele>
        <time>2023-07-05T01:01:35Z</time>
      </trkpt>
      <trkpt lat="47.05207" lon="0.5501">
        <ele>42</ele>
        <time>2023-07-05T01:01:38Z</time>
      </trkpt>
      <trkpt lat="47.0525" lon="0.55076">
        <ele>43</ele>
        <time>2023-07-05T01:02:09Z</time>
      </trkpt>
      <trkpt lat="47.05268" lon="0.55143">
        <ele>42</ele>
        <time>2023-07-05T01:02:34Z</time>
      </trkpt>
      <trkpt lat="47.05283" lon="0.55135">
        <ele>42</ele>
        <time>2023-07-05T01:02:42Z</time>
      </trkpt>
      <trkpt lat="47.05353" lon="0.55134">
        <ele>41</ele>
        <time>2023-07-05T01:03:17Z</time>
      </trkpt>
      <trkpt lat="47.05447" lon="0.55127">
        <ele>41</ele>
        <time>2023-07-05T01:04:04Z</time>
      </trkpt>
      <trkpt lat="47.05811" lon="0.55142">
        <ele>41</ele>
        <time>2023-07-05T01:07:06Z</time>
      </trkpt>
      <trkpt lat="47.05968" lon="0.55157">
        <ele>40</ele>
        <time>2023-07-05T01:08:25Z</time>
      </trkpt>
      <trkpt lat="47.06245" lon="0.55175">
        <ele>40</ele>
        <time>2023-07-05T01:10:44Z</time>
      </trkpt>
      <trkpt lat="47.06468" lon="0.552">
        <ele>41</ele>
        <time>2023-07-05T01:12:36Z</time>
      </trkpt>
      <trkpt lat="47.06537" lon="0.55204">
        <ele>41</ele>
        <time>2023-07-05T01:13:10Z</time>
      </trkpt>
      <trkpt lat="47.06553" lon="0.552">
        <ele>41</ele>
        <time>2023-07-05T01:13:18Z</time>
      </trkpt>
      <trkpt lat="47.06721" lon="0.55087">
        <ele>40</ele>
        <time>2023-07-05T01:14:51Z</time>
      </trkpt>
      <trkpt lat="47.06758" lon="0.55219">
        <ele>41</ele>
        <time>2023-07-05T01:15:39Z</time>
      </trkpt>
      <trkpt lat="47.06765" lon="0.5529">
        <ele>41</ele>
        <time>2023-07-05T01:16:04Z</time>
      </trkpt>
      <trkpt lat="47.06817" lon="0.55515">
        <ele>43</ele>
        <time>2023-07-05T01:17:25Z</time>
      </trkpt>
      <trkpt lat="47.06834" lon="0.55571">
        <ele>43</ele>
        <time>2023-07-05T01:17:46Z</time>
      </trkpt>
      <trkpt lat="47.06861" lon="0.55629">
        <ele>43</ele>
        <time>2023-07-05T01:18:10Z</time>
      </trkpt>
      <trkpt lat="47.06949" lon="0.55783">
        <ele>43</ele>
        <time>2023-07-05T01:19:18Z</time>
      </trkpt>
      <trkpt lat="47.06978" lon="0.55841">
        <ele>44</ele>
        <time>2023-07-05T01:19:43Z</time>
      </trkpt>
      <trkpt lat="47.06997" lon="0.55893">
        <ele>45</ele>
        <time>2023-07-05T01:20:03Z</time>
      </trkpt>
      <trkpt lat="47.07017" lon="0.56019">
        <ele>45</ele>
        <time>2023-07-05T01:20:47Z</time>
      </trkpt>
      <trkpt lat="47.07028" lon="0.56063">
        <ele>47</ele>
        <time>2023-07-05T01:21:03Z</time>
      </trkpt>
      <trkpt lat="47.07067" lon="0.56153">
        <ele>53</ele>
        <time>2023-07-05T01:21:39Z</time>
      </trkpt>
      <trkpt lat="47.0713" lon="0.5637">
        <ele>60</ele>
        <time>2023-07-05T01:23:00Z</time>
      </trkpt>
      <trkpt lat="47.07163" lon="0.56448">
        <ele>62</ele>
        <time>2023-07-05T01:23:31Z</time>
      </trkpt>
      <trkpt lat="47.07187" lon="0.56524">
        <ele>61</ele>
        <time>2023-07-05T01:23:59Z</time>
      </trkpt>
      <trkpt lat="47.07232" lon="0.56479">
        <ele>62</ele>
        <time>2023-07-05T01:24:27Z</time>
      </trkpt>
      <trkpt lat="47.0726" lon="0.56455">
        <ele>62</ele>
        <time>2023-07-05T01:24:43Z</time>
      </trkpt>
      <trkpt lat="47.073" lon="0.56426">
        <ele>62</ele>
        <time>2023-07-05T01:25:05Z</time>
      </trkpt>
      <trkpt lat="47.07324" lon="0.56419">
        <ele>62</ele>
        <time>2023-07-05T01:25:18Z</time>
      </trkpt>
      <trkpt lat="47.07379" lon="0.56425">
        <ele>61</ele>
        <time>2023-07-05T01:25:45Z</time>
      </trkpt>
      <trkpt lat="47.07417" lon="0.56435">
        <ele>61</ele>
        <time>2023-07-05T01:26:04Z</time>
      </trkpt>
      <trkpt lat="47.07508" lon="0.56473">
        <ele>58</ele>
        <time>2023-07-05T01:26:52Z</time>
      </trkpt>
      <trkpt lat="47.07536" lon="0.56478">
        <ele>57</ele>
        <time>2023-07-05T01:27:06Z</time>
      </trkpt>
      <trkpt lat="47.07569" lon="0.56477">
        <ele>55</ele>
        <time>2023-07-05T01:27:22Z</time>
      </trkpt>
      <trkpt lat="47.07587" lon="0.56469">
        <ele>54</ele>
        <time>2023-07-05T01:27:32Z</time>
      </trkpt>
      <trkpt lat="47.07622" lon="0.56434">
        <ele>51</ele>
        <time>2023-07-05T01:27:53Z</time>
      </trkpt>
      <trkpt lat="47.07652" lon="0.56409">
        <ele>48</ele>
        <time>2023-07-05T01:28:10Z</time>
      </trkpt>
      <trkpt lat="47.07671" lon="0.56398">
        <ele>47</ele>
        <time>2023-07-05T01:28:20Z</time>
      </trkpt>
      <trkpt lat="47.07683" lon="0.56399">
        <ele>46</ele>
        <time>2023-07-05T01:28:27Z</time>
      </trkpt>
      <trkpt lat="47.07698" lon="0.56416">
        <ele>46</ele>
        <time>2023-07-05T01:28:36Z</time>
      </trkpt>
      <trkpt lat="47.0771" lon="0.56438">
        <ele>46</ele>
        <time>2023-07-05T01:28:46Z</time>
      </trkpt>
      <trkpt lat="47.07745" lon="0.56447">
        <ele>46</ele>
        <time>2023-07-05T01:29:03Z</time>
      </trkpt>
      <trkpt lat="47.07877" lon="0.56427">
        <ele>47</ele>
        <time>2023-07-05T01:30:10Z</time>
      </trkpt>
      <trkpt lat="47.0786" lon="0.56282">
        <ele>47</ele>
        <time>2023-07-05T01:31:00Z</time>
      </trkpt>
      <trkpt lat="47.0785" lon="0.56242">
        <ele>47</ele>
        <time>2023-07-05T01:31:14Z</time>
      </trkpt>
      <trkpt lat="47.07849" lon="0.56222">
        <ele>47</ele>
        <time>2023-07-05T01:31:21Z</time>
      </trkpt>
      <trkpt lat="47.07852" lon="0.56207">
        <ele>48</ele>
        <time>2023-07-05T01:31:27Z</time>
      </trkpt>
      <trkpt lat="47.07949" lon="0.56097">
        <ele>55</ele>
        <time>2023-07-05T01:32:28Z</time>
      </trkpt>
      <trkpt lat="47.07973" lon="0.56059">
        <ele>57</ele>
        <time>2023-07-05T01:32:46Z</time>
      </trkpt>
      <trkpt lat="47.0804" lon="0.55925">
        <ele>61</ele>
        <time>2023-07-05T01:33:42Z</time>
      </trkpt>
      <trkpt lat="47.08071" lon="0.55695">
        <ele>64</ele>
        <time>2023-07-05T01:35:02Z</time>
      </trkpt>
      <trkpt lat="47.08076" lon="0.55633">
        <ele>64</ele>
        <time>2023-07-05T01:35:23Z</time>
      </trkpt>
      <trkpt lat="47.08073" lon="0.55591">
        <ele>63</ele>
        <time>2023-07-05T01:35:38Z</time>
      </trkpt>
      <trkpt lat="47.07986" lon="0.55235">
        <ele>61</ele>
        <time>2023-07-05T01:37:47Z</time>
      </trkpt>
      <trkpt lat="47.08117" lon="0.55216">
        <ele>59</ele>
        <time>2023-07-05T01:38:53Z</time>
      </trkpt>
      <trkpt lat="47.08189" lon="0.55199">
        <ele>59</ele>
        <time>2023-07-05T01:39:29Z</time>
      </trkpt>
      <trkpt lat="47.08299" lon="0.55164">
        <ele>57</ele>
        <time>2023-07-05T01:40:25Z</time>
      </trkpt>
      <trkpt lat="47.08358" lon="0.5514">
        <ele>55</ele>
        <time>2023-07-05T01:40:56Z</time>
      </trkpt>
      <trkpt lat="47.08374" lon="0.55129">
        <ele>54</ele>
        <time>2023-07-05T01:41:05Z</time>
      </trkpt>
      <trkpt lat="47.08441" lon="0.55006">
        <ele>47</ele>
        <time>2023-07-05T01:41:59Z</time>
      </trkpt>
      <trkpt lat="47.08457" lon="0.54979">
        <ele>47</ele>
        <time>2023-07-05T01:42:11Z</time>
      </trkpt>
      <trkpt lat="47.08472" lon="0.54959">
        <ele>47</ele>
        <time>2023-07-05T01:42:21Z</time>
      </trkpt>
      <trkpt lat="47.08544" lon="0.54821">
        <ele>49</ele>
        <time>2023-07-05T01:43:20Z</time>
      </trkpt>
      <trkpt lat="47.08666" lon="0.54623">
        <ele>58</ele>
        <time>2023-07-05T01:44:51Z</time>
      </trkpt>
      <trkpt lat="47.08645" lon="0.5454">
        <ele>59</ele>
        <time>2023-07-05T01:45:21Z</time>
      </trkpt>
      <trkpt lat="47.08562" lon="0.54316">
        <ele>56</ele>
        <time>2023-07-05T01:46:48Z</time>
      </trkpt>
      <trkpt lat="47.08548" lon="0.54285">
        <ele>56</ele>
        <time>2023-07-05T01:47:01Z</time>
      </trkpt>
      <trkpt lat="47.08526" lon="0.54246">
        <ele>56</ele>
        <time>2023-07-05T01:47:18Z</time>
      </trkpt>
      <trkpt lat="47.08498" lon="0.54206">
        <ele>55</ele>
        <time>2023-07-05T01:47:38Z</time>
      </trkpt>
      <trkpt lat="47.08447" lon="0.54124">
        <ele>53</ele>
        <time>2023-07-05T01:48:16Z</time>
      </trkpt>
      <trkpt lat="47.08438" lon="0.54105">
        <ele>52</ele>
        <time>2023-07-05T01:48:23Z</time>
      </trkpt>
      <trkpt lat="47.08424" lon="0.54062">
        <ele>51</ele>
        <time>2023-07-05T01:48:40Z</time>
      </trkpt>
      <trkpt lat="47.0842" lon="0.54037">
        <ele>50</ele>
        <time>2023-07-05T01:48:48Z</time>
      </trkpt>
      <trkpt lat="47.08417" lon="0.54005">
        <ele>48</ele>
        <time>2023-07-05T01:48:59Z</time>
      </trkpt>
      <trkpt lat="47.08422" lon="0.53944">
        <ele>46</ele>
        <time>2023-07-05T01:49:20Z</time>
      </trkpt>
      <trkpt lat="47.08437" lon="0.53889">
        <ele>45</ele>
        <time>2023-07-05T01:49:41Z</time>
      </trkpt>
      <trkpt lat="47.08448" lon="0.53866">
        <ele>44</ele>
        <time>2023-07-05T01:49:50Z</time>
      </trkpt>
      <trkpt lat="47.08467" lon="0.53839">
        <ele>44</ele>
        <time>2023-07-05T01:50:03Z</time>
      </trkpt>
      <trkpt lat="47.08486" lon="0.53828">
        <ele>44</ele>
        <time>2023-07-05T01:50:14Z</time>
      </trkpt>
      <trkpt lat="47.08542" lon="0.53811">
        <ele>45</ele>
        <time>2023-07-05T01:50:42Z</time>
      </trkpt>
      <trkpt lat="47.08547" lon="0.53806">
        <ele>45</ele>
        <time>2023-07-05T01:50:45Z</time>
      </trkpt>
      <trkpt lat="47.08503" lon="0.53756">
        <ele>43</ele>
        <time>2023-07-05T01:51:13Z</time>
      </trkpt>
      <trkpt lat="47.0846" lon="0.537">
        <ele>42</ele>
        <time>2023-07-05T01:51:42Z</time>
      </trkpt>
      <trkpt lat="47.08294" lon="0.53449">
        <ele>40</ele>
        <time>2023-07-05T01:53:41Z</time>
      </trkpt>
      <trkpt lat="47.08225" lon="0.53336">
        <ele>41</ele>
        <time>2023-07-05T01:54:33Z</time>
      </trkpt>
      <trkpt lat="47.08198" lon="0.53275">
        <ele>41</ele>
        <time>2023-07-05T01:54:58Z</time>
      </trkpt>
      <trkpt lat="47.08189" lon="0.53262">
        <ele>41</ele>
        <time>2023-07-05T01:55:04Z</time>
      </trkpt>
      <trkpt lat="47.08167" lon="0.53239">
        <ele>42</ele>
        <time>2023-07-05T01:55:17Z</time>
      </trkpt>
      <trkpt lat="47.08141" lon="0.53221">
        <ele>40</ele>
        <time>2023-07-05T01:55:32Z</time>
      </trkpt>
      <trkpt lat="47.08143" lon="0.53196">
        <ele>39</ele>
        <time>2023-07-05T01:55:40Z</time>
      </trkpt>
      <trkpt lat="47.08142" lon="0.5317">
        <ele>38</ele>
        <time>2023-07-05T01:55:49Z</time>
      </trkpt>
      <trkpt lat="47.08148" lon="0.53117">
        <ele>36</ele>
        <time>2023-07-05T01:56:08Z</time>
      </trkpt>
      <trkpt lat="47.0816" lon="0.53053">
        <ele>36</ele>
        <time>2023-07-05T01:56:30Z</time>
      </trkpt>
      <trkpt lat="47.08182" lon="0.52992">
        <ele>37</ele>
        <time>2023-07-05T01:56:54Z</time>
      </trkpt>
      <trkpt lat="47.08203" lon="0.52924">
        <ele>38</ele>
        <time>2023-07-05T01:57:19Z</time>
      </trkpt>
      <trkpt lat="47.08212" lon="0.52872">
        <ele>38</ele>
        <time>2023-07-05T01:57:37Z</time>
      </trkpt>
      <trkpt lat="47.08213" lon="0.52852">
        <ele>38</ele>
        <time>2023-07-05T01:57:44Z</time>
      </trkpt>
      <trkpt lat="47.08226" lon="0.52794">
        <ele>38</ele>
        <time>2023-07-05T01:58:05Z</time>
      </trkpt>
      <trkpt lat="47.08276" lon="0.52628">
        <ele>37</ele>
        <time>2023-07-05T01:59:07Z</time>
      </trkpt>
      <trkpt lat="47.0832" lon="0.52509">
        <ele>37</ele>
        <time>2023-07-05T01:59:53Z</time>
      </trkpt>
      <trkpt lat="47.08341" lon="0.5241">
        <ele>38</ele>
        <time>2023-07-05T02:00:28Z</time>
      </trkpt>
      <trkpt lat="47.08366" lon="0.52338">
        <ele>38</ele>
        <time>2023-07-05T02:00:56Z</time>
      </trkpt>
      <trkpt lat="47.08387" lon="0.52281">
        <ele>36</ele>
        <time>2023-07-05T02:01:18Z</time>
      </trkpt>
      <trkpt lat="47.08407" lon="0.52244">
        <ele>36</ele>
        <time>2023-07-05T02:01:34Z</time>
      </trkpt>
      <trkpt lat="47.08523" lon="0.52038">
        <ele>34</ele>
        <time>2023-07-05T02:03:05Z</time>
      </trkpt>
      <trkpt lat="47.08668" lon="0.51789">
        <ele>37</ele>
        <time>2023-07-05T02:04:57Z</time>
      </trkpt>
      <trkpt lat="47.08725" lon="0.51699">
        <ele>36</ele>
        <time>2023-07-05T02:05:39Z</time>
      </trkpt>
      <trkpt lat="47.08928" lon="0.51392">
        <ele>38</ele>
        <time>2023-07-05T02:08:04Z</time>
      </trkpt>
      <trkpt lat="47.0901" lon="0.51269">
        <ele>37</ele>
        <time>2023-07-05T02:09:03Z</time>
      </trkpt>
      <trkpt lat="47.09022" lon="0.51257">
        <ele>37</ele>
        <time>2023-07-05T02:09:10Z</time>
      </trkpt>
      <trkpt lat="47.09166" lon="0.5138">
        <ele>39</ele>
        <time>2023-07-05T02:10:34Z</time>
      </trkpt>
      <trkpt lat="47.09231" lon="0.51469">
        <ele>39</ele>
        <time>2023-07-05T02:11:18Z</time>
      </trkpt>
      <trkpt lat="47.09275" lon="0.51537">
        <ele>39</ele>
        <time>2023-07-05T02:11:50Z</time>
      </trkpt>
      <trkpt lat="47.09314" lon="0.51583">
        <ele>38</ele>
        <time>2023-07-05T02:12:15Z</time>
      </trkpt>
      <trkpt lat="47.09352" lon="0.51633">
        <ele>37</ele>
        <time>2023-07-05T02:12:41Z</time>
      </trkpt>
      <trkpt lat="47.09442" lon="0.51707">
        <ele>37</ele>
        <time>2023-07-05T02:13:32Z</time>
      </trkpt>
      <trkpt lat="47.09537" lon="0.51793">
        <ele>40</ele>
        <time>2023-07-05T02:14:28Z</time>
      </trkpt>
      <trkpt lat="47.09638" lon="0.51878">
        <ele>44</ele>
        <time>2023-07-05T02:15:26Z</time>
      </trkpt>
      <trkpt lat="47.09671" lon="0.51921">
        <ele>45</ele>
        <time>2023-07-05T02:15:49Z</time>
      </trkpt>
      <trkpt lat="47.09733" lon="0.5203">
        <ele>48</ele>
        <time>2023-07-05T02:16:37Z</time>
      </trkpt>
      <trkpt lat="47.09754" lon="0.52055">
        <ele>48</ele>
        <time>2023-07-05T02:16:50Z</time>
      </trkpt>
      <trkpt lat="47.09863" lon="0.52167">
        <ele>50</ele>
        <time>2023-07-05T02:17:57Z</time>
      </trkpt>
      <trkpt lat="47.09889" lon="0.5219">
        <ele>51</ele>
        <time>2023-07-05T02:18:12Z</time>
      </trkpt>
      <trkpt lat="47.09924" lon="0.52216">
        <ele>52</ele>
        <time>2023-07-05T02:18:32Z</time>
      </trkpt>
      <trkpt lat="47.09995" lon="0.52263">
        <ele>51</ele>
        <time>2023-07-05T02:19:11Z</time>
      </trkpt>
      <trkpt lat="47.10262" lon="0.52374">
        <ele>56</ele>
        <time>2023-07-05T02:21:30Z</time>
      </trkpt>
      <trkpt lat="47.1029" lon="0.52383">
        <ele>57</ele>
        <time>2023-07-05T02:21:44Z</time>
      </trkpt>
      <trkpt lat="47.10308" lon="0.52381">
        <ele>57</ele>
        <time>2023-07-05T02:21:53Z</time>
      </trkpt>
      <trkpt lat="47.10322" lon="0.52371">
        <ele>58</ele>
        <time>2023-07-05T02:22:01Z</time>
      </trkpt>
      <trkpt lat="47.10351" lon="0.52341">
        <ele>58</ele>
        <time>2023-07-05T02:22:19Z</time>
      </trkpt>
      <trkpt lat="47.1037" lon="0.52329">
        <ele>59</ele>
        <time>2023-07-05T02:22:29Z</time>
      </trkpt>
      <trkpt lat="47.10384" lon="0.52315">
        <ele>59</ele>
        <time>2023-07-05T02:22:37Z</time>
      </trkpt>
      <trkpt lat="47.10396" lon="0.52297">
        <ele>59</ele>
        <time>2023-07-05T02:22:46Z</time>
      </trkpt>
      <trkpt lat="47.10455" lon="0.52132">
        <ele>63</ele>
        <time>2023-07-05T02:23:49Z</time>
      </trkpt>
      <trkpt lat="47.10457" lon="0.52118">
        <ele>64</ele>
        <time>2023-07-05T02:23:54Z</time>
      </trkpt>
      <trkpt lat="47.10451" lon="0.52017">
        <ele>64</ele>
        <time>2023-07-05T02:24:29Z</time>
      </trkpt>
      <trkpt lat="47.10458" lon="0.51869">
        <ele>65</ele>
        <time>2023-07-05T02:25:19Z</time>
      </trkpt>
      <trkpt lat="47.10528" lon="0.51622">
        <ele>64</ele>
        <time>2023-07-05T02:26:51Z</time>
      </trkpt>
      <trkpt lat="47.10654" lon="0.5132">
        <ele>51</ele>
        <time>2023-07-05T02:28:51Z</time>
      </trkpt>
      <trkpt lat="47.10689" lon="0.51245">
        <ele>51</ele>
        <time>2023-07-05T02:29:22Z</time>
      </trkpt>
      <trkpt lat="47.10724" lon="0.51186">
        <ele>54</ele>
        <time>2023-07-05T02:29:49Z</time>
      </trkpt>
      <trkpt lat="47.10762" lon="0.51107">
        <ele>60</ele>
        <time>2023-07-05T02:30:22Z</time>
      </trkpt>
      <trkpt lat="47.10799" lon="0.5104">
        <ele>62</ele>
        <time>2023-07-05T02:30:51Z</time>
      </trkpt>
      <trkpt lat="47.10798" lon="0.51028">
        <ele>62</ele>
        <time>2023-07-05T02:30:55Z</time>
      </trkpt>
      <trkpt lat="47.10803" lon="0.51029">
        <ele>62</ele>
        <time>2023-07-05T02:30:58Z</time>
      </trkpt>
      <trkpt lat="47.1082" lon="0.51004">
        <ele>62</ele>
        <time>2023-07-05T02:31:10Z</time>
      </trkpt>
      <trkpt lat="47.1088" lon="0.50883">
        <ele>67</ele>
        <time>2023-07-05T02:32:01Z</time>
      </trkpt>
      <trkpt lat="47.11096" lon="0.50411">
        <ele>67</ele>
        <time>2023-07-05T02:35:15Z</time>
      </trkpt>
      <trkpt lat="47.11272" lon="0.50007">
        <ele>51</ele>
        <time>2023-07-05T02:37:58Z</time>
      </trkpt>
      <trkpt lat="47.1137" lon="0.4979">
        <ele>50</ele>
        <time>2023-07-05T02:39:27Z</time>
      </trkpt>
      <trkpt lat="47.11347" lon="0.49744">
        <ele>50</ele>
        <time>2023-07-05T02:39:46Z</time>
      </trkpt>
      <trkpt lat="47.1133" lon="0.49702">
        <ele>50</ele>
        <time>2023-07-05T02:40:03Z</time>
      </trkpt>
      <trkpt lat="47.11317" lon="0.49656">
        <ele>50</ele>
        <time>2023-07-05T02:40:20Z</time>
      </trkpt>
      <trkpt lat="47.11306" lon="0.49605">
        <ele>50</ele>
        <time>2023-07-05T02:40:38Z</time>
      </trkpt>
      <trkpt lat="47.11285" lon="0.49534">
        <ele>49</ele>
        <time>2023-07-05T02:41:04Z</time>
      </trkpt>
      <trkpt lat="47.11306" lon="0.49504">
        <ele>51</ele>
        <time>2023-07-05T02:41:19Z</time>
      </trkpt>
      <trkpt lat="47.11334" lon="0.49453">
        <ele>53</ele>
        <time>2023-07-05T02:41:41Z</time>
      </trkpt>
      <trkpt lat="47.11396" lon="0.49312">
        <ele>50</ele>
        <time>2023-07-05T02:42:38Z</time>
      </trkpt>
      <trkpt lat="47.11458" lon="0.4916">
        <ele>44</ele>
        <time>2023-07-05T02:43:39Z</time>
      </trkpt>
      <trkpt lat="47.11545" lon="0.48973">
        <ele>43</ele>
        <time>2023-07-05T02:44:56Z</time>
      </trkpt>
      <trkpt lat="47.11598" lon="0.48808">
        <ele>44</ele>
        <time>2023-07-05T02:45:58Z</time>
      </trkpt>
      <trkpt lat="47.11601" lon="0.48804">
        <ele>44</ele>
        <time>2023-07-05T02:46:00Z</time>
      </trkpt>
      <trkpt lat="47.11607" lon="0.48802">
        <ele>45</ele>
        <time>2023-07-05T02:46:03Z</time>
      </trkpt>
      <trkpt lat="47.11617" lon="0.48808">
        <ele>46</ele>
        <time>2023-07-05T02:46:09Z</time>
      </trkpt>
      <trkpt lat="47.11691" lon="0.48873">
        <ele>55</ele>
        <time>2023-07-05T02:46:52Z</time>
      </trkpt>
      <trkpt lat="47.11748" lon="0.48931">
        <ele>59</ele>
        <time>2023-07-05T02:47:26Z</time>
      </trkpt>
      <trkpt lat="47.11797" lon="0.48736">
        <ele>63</ele>
        <time>2023-07-05T02:48:37Z</time>
      </trkpt>
      <trkpt lat="47.11815" lon="0.48631">
        <ele>64</ele>
        <time>2023-07-05T02:49:14Z</time>
      </trkpt>
      <trkpt lat="47.1194" lon="0.47789">
        <ele>50</ele>
        <time>2023-07-05T02:54:07Z</time>
      </trkpt>
      <trkpt lat="47.11829" lon="0.47724">
        <ele>45</ele>
        <time>2023-07-05T02:55:07Z</time>
      </trkpt>
      <trkpt lat="47.11801" lon="0.47698">
        <ele>44</ele>
        <time>2023-07-05T02:55:24Z</time>
      </trkpt>
      <trkpt lat="47.11758" lon="0.47622">
        <ele>43</ele>
        <time>2023-07-05T02:55:58Z</time>
      </trkpt>
      <trkpt lat="47.11706" lon="0.47494">
        <ele>40</ele>
        <time>2023-07-05T02:56:48Z</time>
      </trkpt>
      <trkpt lat="47.11631" lon="0.47487">
        <ele>40</ele>
        <time>2023-07-05T02:57:26Z</time>
      </trkpt>
      <trkpt lat="47.11556" lon="0.47488">
        <ele>36</ele>
        <time>2023-07-05T02:58:03Z</time>
      </trkpt>
      <trkpt lat="47.11548" lon="0.47473">
        <ele>35</ele>
        <time>2023-07-05T02:58:10Z</time>
      </trkpt>
      <trkpt lat="47.11538" lon="0.47436">
        <ele>34</ele>
        <time>2023-07-05T02:58:23Z</time>
      </trkpt>
      <trkpt lat="47.11547" lon="0.47356">
        <ele>36</ele>
        <time>2023-07-05T02:58:51Z</time>
      </trkpt>
      <trkpt lat="47.11553" lon="0.47237">
        <ele>37</ele>
        <time>2023-07-05T02:59:32Z</time>
      </trkpt>
      <trkpt lat="47.11549" lon="0.47189">
        <ele>36</ele>
        <time>2023-07-05T02:59:48Z</time>
      </trkpt>
      <trkpt lat="47.1152" lon="0.47043">
        <ele>35</ele>
        <time>2023-07-05T03:00:40Z</time>
      </trkpt>
      <trkpt lat="47.11518" lon="0.46957">
        <ele>35</ele>
        <time>2023-07-05T03:01:09Z</time>
      </trkpt>
      <trkpt lat="47.11519" lon="0.4694">
        <ele>35</ele>
        <time>2023-07-05T03:01:15Z</time>
      </trkpt>
      <trkpt lat="47.1155" lon="0.46812">
        <ele>33</ele>
        <time>2023-07-05T03:02:01Z</time>
      </trkpt>
      <trkpt lat="47.11586" lon="0.46642">
        <ele>34</ele>
        <time>2023-07-05T03:03:02Z</time>
      </trkpt>
      <trkpt lat="47.11583" lon="0.46629">
        <ele>34</ele>
        <time>2023-07-05T03:03:07Z</time>
      </trkpt>
      <trkpt lat="47.11518" lon="0.46603">
        <ele>33</ele>
        <time>2023-07-05T03:03:40Z</time>
      </trkpt>
      <trkpt lat="47.11513" lon="0.46591">
        <ele>32</ele>
        <time>2023-07-05T03:03:45Z</time>
      </trkpt>
      <trkpt lat="47.11513" lon="0.46577">
        <ele>32</ele>
        <time>2023-07-05T03:03:50Z</time>
      </trkpt>
      <trkpt lat="47.11525" lon="0.46487">
        <ele>31</ele>
        <time>2023-07-05T03:04:21Z</time>
      </trkpt>
      <trkpt lat="47.11545" lon="0.46425">
        <ele>31</ele>
        <time>2023-07-05T03:04:45Z</time>
      </trkpt>
      <trkpt lat="47.11588" lon="0.46325">
        <ele>32</ele>
        <time>2023-07-05T03:05:25Z</time>
      </trkpt>
      <trkpt lat="47.11612" lon="0.4628">
        <ele>32</ele>
        <time>2023-07-05T03:05:44Z</time>
      </trkpt>
      <trkpt lat="47.11763" lon="0.4607">
        <ele>33</ele>
        <time>2023-07-05T03:07:28Z</time>
      </trkpt>
      <trkpt lat="47.11889" lon="0.45916">
        <ele>33</ele>
        <time>2023-07-05T03:08:50Z</time>
      </trkpt>
      <trkpt lat="47.11953" lon="0.45829">
        <ele>32</ele>
        <time>2023-07-05T03:09:34Z</time>
      </trkpt>
      <trkpt lat="47.11968" lon="0.45804">
        <ele>33</ele>
        <time>2023-07-05T03:09:45Z</time>
      </trkpt>
      <trkpt lat="47.1206" lon="0.45605">
        <ele>35</ele>
        <time>2023-07-05T03:11:07Z</time>
      </trkpt>
      <trkpt lat="47.12065" lon="0.45573">
        <ele>35</ele>
        <time>2023-07-05T03:11:18Z</time>
      </trkpt>
      <trkpt lat="47.12101" lon="0.45458">
        <ele>35</ele>
        <time>2023-07-05T03:12:02Z</time>
      </trkpt>
      <trkpt lat="47.12112" lon="0.45431">
        <ele>35</ele>
        <time>2023-07-05T03:12:12Z</time>
      </trkpt>
      <trkpt lat="47.12094" lon="0.45412">
        <ele>34</ele>
        <time>2023-07-05T03:12:23Z</time>
      </trkpt>
      <trkpt lat="47.12096" lon="0.45391">
        <ele>34</ele>
        <time>2023-07-05T03:12:31Z</time>
      </trkpt>
      <trkpt lat="47.12118" lon="0.45275">
        <ele>33</ele>
        <time>2023-07-05T03:13:12Z</time>
      </trkpt>
      <trkpt lat="47.12131" lon="0.45147">
        <ele>33</ele>
        <time>2023-07-05T03:13:56Z</time>
      </trkpt>
      <trkpt lat="47.12134" lon="0.45103">
        <ele>33</ele>
        <time>2023-07-05T03:14:11Z</time>
      </trkpt>
      <trkpt lat="47.12133" lon="0.44936">
        <ele>32</ele>
        <time>2023-07-05T03:15:08Z</time>
      </trkpt>
      <trkpt lat="47.12117" lon="0.44793">
        <ele>32</ele>
        <time>2023-07-05T03:15:57Z</time>
      </trkpt>
      <trkpt lat="47.12107" lon="0.44751">
        <ele>32</ele>
        <time>2023-07-05T03:16:12Z</time>
      </trkpt>
      <trkpt lat="47.12092" lon="0.44711">
        <ele>32</ele>
        <time>2023-07-05T03:16:28Z</time>
      </trkpt>
      <trkpt lat="47.12092" lon="0.447">
        <ele>32</ele>
        <time>2023-07-05T03:16:31Z</time>
      </trkpt>
      <trkpt lat="47.12101" lon="0.44658">
        <ele>33</ele>
        <time>2023-07-05T03:16:46Z</time>
      </trkpt>
      <trkpt lat="47.12115" lon="0.4462">
        <ele>34</ele>
        <time>2023-07-05T03:17:01Z</time>
      </trkpt>
      <trkpt lat="47.12114" lon="0.4455">
        <ele>35</ele>
        <time>2023-07-05T03:17:25Z</time>
      </trkpt>
      <trkpt lat="47.12104" lon="0.44474">
        <ele>35</ele>
        <time>2023-07-05T03:17:51Z</time>
      </trkpt>
      <trkpt lat="47.12076" lon="0.44156">
        <ele>35</ele>
        <time>2023-07-05T03:19:40Z</time>
      </trkpt>
      <trkpt lat="47.12078" lon="0.44028">
        <ele>35</ele>
        <time>2023-07-05T03:20:24Z</time>
      </trkpt>
      <trkpt lat="47.12074" lon="0.44021">
        <ele>35</ele>
        <time>2023-07-05T03:20:27Z</time>
      </trkpt>
      <trkpt lat="47.12066" lon="0.44015">
        <ele>35</ele>
        <time>2023-07-05T03:20:32Z</time>
      </trkpt>
      <trkpt lat="47.12033" lon="0.44013">
        <ele>34</ele>
        <time>2023-07-05T03:20:48Z</time>
      </trkpt>
      <trkpt lat="47.12026" lon="0.44007">
        <ele>34</ele>
        <time>2023-07-05T03:20:52Z</time>
      </trkpt>
      <trkpt lat="47.12021" lon="0.43982">
        <ele>34</ele>
        <time>2023-07-05T03:21:01Z</time>
      </trkpt>
      <trkpt lat="47.1201" lon="0.43865">
        <ele>35</ele>
        <time>2023-07-05T03:21:41Z</time>
      </trkpt>
      <trkpt lat="47.1201" lon="0.43788">
        <ele>35</ele>
        <time>2023-07-05T03:22:08Z</time>
      </trkpt>
      <trkpt lat="47.11999" lon="0.43708">
        <ele>35</ele>
        <time>2023-07-05T03:22:35Z</time>
      </trkpt>
      <trkpt lat="47.1199" lon="0.43591">
        <ele>35</ele>
        <time>2023-07-05T03:23:15Z</time>
      </trkpt>
      <trkpt lat="47.11981" lon="0.43544">
        <ele>34</ele>
        <time>2023-07-05T03:23:32Z</time>
      </trkpt>
      <trkpt lat="47.11981" lon="0.43529">
        <ele>34</ele>
        <time>2023-07-05T03:23:37Z</time>
      </trkpt>
      <trkpt lat="47.11991" lon="0.43499">
        <ele>33</ele>
        <time>2023-07-05T03:23:49Z</time>
      </trkpt>
      <trkpt lat="47.11993" lon="0.43486">
        <ele>33</ele>
        <time>2023-07-05T03:23:53Z</time>
      </trkpt>
      <trkpt lat="47.11998" lon="0.43408">
        <ele>33</ele>
        <time>2023-07-05T03:24:20Z</time>
      </trkpt>
      <trkpt lat="47.11999" lon="0.43308">
        <ele>32</ele>
        <time>2023-07-05T03:24:54Z</time>
      </trkpt>
      <trkpt lat="47.12001" lon="0.43299">
        <ele>32</ele>
        <time>2023-07-05T03:24:57Z</time>
      </trkpt>
      <trkpt lat="47.12007" lon="0.4329">
        <ele>33</ele>
        <time>2023-07-05T03:25:01Z</time>
      </trkpt>
      <trkpt lat="47.11998" lon="0.43278">
        <ele>33</ele>
        <time>2023-07-05T03:25:07Z</time>
      </trkpt>
      <trkpt lat="47.11995" lon="0.43267">
        <ele>32</ele>
        <time>2023-07-05T03:25:11Z</time>
      </trkpt>
      <trkpt lat="47.12005" lon="0.43127">
        <ele>30</ele>
        <time>2023-07-05T03:25:59Z</time>
      </trkpt>
      <trkpt lat="47.1202" lon="0.43007">
        <ele>29</ele>
        <time>2023-07-05T03:26:41Z</time>
      </trkpt>
      <trkpt lat="47.12061" lon="0.42833">
        <ele>36</ele>
        <time>2023-07-05T03:27:44Z</time>
      </trkpt>
      <trkpt lat="47.12078" lon="0.42794">
        <ele>36</ele>
        <time>2023-07-05T03:27:59Z</time>
      </trkpt>
      <trkpt lat="47.12087" lon="0.42765">
        <ele>36</ele>
        <time>2023-07-05T03:28:10Z</time>
      </trkpt>
      <trkpt lat="47.12089" lon="0.4275">
        <ele>36</ele>
        <time>2023-07-05T03:28:15Z</time>
      </trkpt>
      <trkpt lat="47.12087" lon="0.42727">
        <ele>35</ele>
        <time>2023-07-05T03:28:23Z</time>
      </trkpt>
      <trkpt lat="47.12107" lon="0.42644">
        <ele>33</ele>
        <time>2023-07-05T03:28:53Z</time>
      </trkpt>
      <trkpt lat="47.12118" lon="0.42611">
        <ele>34</ele>
        <time>2023-07-05T03:29:06Z</time>
      </trkpt>
      <trkpt lat="47.12129" lon="0.42589">
        <ele>34</ele>
        <time>2023-07-05T03:29:15Z</time>
      </trkpt>
      <trkpt lat="47.12136" lon="0.42587">
        <ele>35</ele>
        <time>2023-07-05T03:29:19Z</time>
      </trkpt>
      <trkpt lat="47.12139" lon="0.42598">
        <ele>35</ele>
        <time>2023-07-05T03:29:23Z</time>
      </trkpt>
      <trkpt lat="47.12142" lon="0.42596">
        <ele>36</ele>
        <time>2023-07-05T03:29:24Z</time>
      </trkpt>
      <trkpt lat="47.1216" lon="0.42608">
        <ele>37</ele>
        <time>2023-07-05T03:29:34Z</time>
      </trkpt>
      <trkpt lat="47.12178" lon="0.42633">
        <ele>37</ele>
        <time>2023-07-05T03:29:47Z</time>
      </trkpt>
      <trkpt lat="47.122" lon="0.42594">
        <ele>38</ele>
        <time>2023-07-05T03:30:04Z</time>
      </trkpt>
      <trkpt lat="47.1222" lon="0.42599">
        <ele>38</ele>
        <time>2023-07-05T03:30:14Z</time>
      </trkpt>
      <trkpt lat="47.12235" lon="0.426">
        <ele>38</ele>
        <time>2023-07-05T03:30:22Z</time>
      </trkpt>
      <trkpt lat="47.12246" lon="0.42597">
        <ele>38</ele>
        <time>2023-07-05T03:30:27Z</time>
      </trkpt>
      <trkpt lat="47.12255" lon="0.42599">
        <ele>38</ele>
        <time>2023-07-05T03:30:32Z</time>
      </trkpt>
      <trkpt lat="47.12271" lon="0.42605">
        <ele>38</ele>
        <time>2023-07-05T03:30:40Z</time>
      </trkpt>
      <trkpt lat="47.12297" lon="0.42625">
        <ele>38</ele>
        <time>2023-07-05T03:30:55Z</time>
      </trkpt>
      <trkpt lat="47.12326" lon="0.42652">
        <ele>39</ele>
        <time>2023-07-05T03:31:12Z</time>
      </trkpt>
      <trkpt lat="47.12385" lon="0.42684">
        <ele>38</ele>
        <time>2023-07-05T03:31:43Z</time>
      </trkpt>
      <trkpt lat="47.1241" lon="0.42691">
        <ele>37</ele>
        <time>2023-07-05T03:31:56Z</time>
      </trkpt>
      <trkpt lat="47.12422" lon="0.42585">
        <ele>39</ele>
        <time>2023-07-05T03:32:33Z</time>
      </trkpt>
      <trkpt lat="47.12434" lon="0.4239">
        <ele>37</ele>
        <time>2023-07-05T03:33:39Z</time>
      </trkpt>
      <trkpt lat="47.12463" lon="0.42214">
        <ele>37</ele>
        <time>2023-07-05T03:34:41Z</time>
      </trkpt>
      <trkpt lat="47.12451" lon="0.42105">
        <ele>37</ele>
        <time>2023-07-05T03:35:19Z</time>
      </trkpt>
      <trkpt lat="47.1246" lon="0.42023">
        <ele>36</ele>
        <time>2023-07-05T03:35:47Z</time>
      </trkpt>
      <trkpt lat="47.12505" lon="0.41759">
        <ele>35</ele>
        <time>2023-07-05T03:37:20Z</time>
      </trkpt>
      <trkpt lat="47.1255" lon="0.41524">
        <ele>35</ele>
        <time>2023-07-05T03:38:43Z</time>
      </trkpt>
      <trkpt lat="47.12564" lon="0.41472">
        <ele>36</ele>
        <time>2023-07-05T03:39:02Z</time>
      </trkpt>
      <trkpt lat="47.12576" lon="0.41441">
        <ele>37</ele>
        <time>2023-07-05T03:39:14Z</time>
      </trkpt>
      <trkpt lat="47.12597" lon="0.414">
        <ele>37</ele>
        <time>2023-07-05T03:39:31Z</time>
      </trkpt>
      <trkpt lat="47.12665" lon="0.41357">
        <ele>37</ele>
        <time>2023-07-05T03:40:08Z</time>
      </trkpt>
      <trkpt lat="47.1282" lon="0.41244">
        <ele>34</ele>
        <time>2023-07-05T03:41:35Z</time>
      </trkpt>
      <trkpt lat="47.12847" lon="0.41184">
        <ele>35</ele>
        <time>2023-07-05T03:41:59Z</time>
      </trkpt>
      <trkpt lat="47.12862" lon="0.41126">
        <ele>35</ele>
        <time>2023-07-05T03:42:21Z</time>
      </trkpt>
      <trkpt lat="47.12905" lon="0.41171">
        <ele>34</ele>
        <time>2023-07-05T03:42:47Z</time>
      </trkpt>
      <trkpt lat="47.1298" lon="0.41226">
        <ele>33</ele>
        <time>2023-07-05T03:43:29Z</time>
      </trkpt>
      <trkpt lat="47.1304" lon="0.41281">
        <ele>33</ele>
        <time>2023-07-05T03:44:04Z</time>
      </trkpt>
      <trkpt lat="47.13097" lon="0.41359">
        <ele>33</ele>
        <time>2023-07-05T03:44:43Z</time>
      </trkpt>
      <trkpt lat="47.13171" lon="0.41062">
        <ele>34</ele>
        <time>2023-07-05T03:46:31Z</time>
      </trkpt>
      <trkpt lat="47.13228" lon="0.40876">
        <ele>34</ele>
        <time>2023-07-05T03:47:40Z</time>
      </trkpt>
      <trkpt lat="47.13241" lon="0.40795">
        <ele>33</ele>
        <time>2023-07-05T03:48:09Z</time>
      </trkpt>
      <trkpt lat="47.1328" lon="0.40634">
        <ele>35</ele>
        <time>2023-07-05T03:49:07Z</time>
      </trkpt>
      <trkpt lat="47.13299" lon="0.40579">
        <ele>35</ele>
        <time>2023-07-05T03:49:28Z</time>
      </trkpt>
      <trkpt lat="47.13339" lon="0.40519">
        <ele>36</ele>
        <time>2023-07-05T03:49:57Z</time>
      </trkpt>
      <trkpt lat="47.13389" lon="0.40427">
        <ele>33</ele>
        <time>2023-07-05T03:50:37Z</time>
      </trkpt>
      <trkpt lat="47.13397" lon="0.4044">
        <ele>34</ele>
        <time>2023-07-05T03:50:43Z</time>
      </trkpt>
      <trkpt lat="47.13663" lon="0.40717">
        <ele>35</ele>
        <time>2023-07-05T03:53:26Z</time>
      </trkpt>
      <trkpt lat="47.13714" lon="0.40626">
        <ele>33</ele>
        <time>2023-07-05T03:54:06Z</time>
      </trkpt>
      <trkpt lat="47.13749" lon="0.40571">
        <ele>34</ele>
        <time>2023-07-05T03:54:32Z</time>
      </trkpt>
      <trkpt lat="47.13761" lon="0.40546">
        <ele>35</ele>
        <time>2023-07-05T03:54:42Z</time>
      </trkpt>
      <trkpt lat="47.13773" lon="0.40519">
        <ele>35</ele>
        <time>2023-07-05T03:54:53Z</time>
      </trkpt>
      <trkpt lat="47.13817" lon="0.40376">
        <ele>37</ele>
        <time>2023-07-05T03:55:46Z</time>
      </trkpt>
      <trkpt lat="47.1388" lon="0.4024">
        <ele>37</ele>
        <time>2023-07-05T03:56:42Z</time>
      </trkpt>
      <trkpt lat="47.1392" lon="0.40176">
        <ele>37</ele>
        <time>2023-07-05T03:57:12Z</time>
      </trkpt>
      <trkpt lat="47.14088" lon="0.39952">
        <ele>33</ele>
        <time>2023-07-05T03:59:05Z</time>
      </trkpt>
      <trkpt lat="47.14119" lon="0.39865">
        <ele>34</ele>
        <time>2023-07-05T03:59:39Z</time>
      </trkpt>
      <trkpt lat="47.14137" lon="0.39863">
        <ele>33</ele>
        <time>2023-07-05T03:59:48Z</time>
      </trkpt>
      <trkpt lat="47.14165" lon="0.39864">
        <ele>33</ele>
        <time>2023-07-05T04:00:02Z</time>
      </trkpt>
      <trkpt lat="47.14202" lon="0.39874">
        <ele>33</ele>
        <time>2023-07-05T04:00:21Z</time>
      </trkpt>
      <trkpt lat="47.14277" lon="0.39908">
        <ele>34</ele>
        <time>2023-07-05T04:01:00Z</time>
      </trkpt>
      <trkpt lat="47.14331" lon="0.39936">
        <ele>35</ele>
        <time>2023-07-05T04:01:29Z</time>
      </trkpt>
      <trkpt lat="47.14382" lon="0.39958">
        <ele>35</ele>
        <time>2023-07-05T04:01:55Z</time>
      </trkpt>
      <trkpt lat="47.14468" lon="0.40027">
        <ele>36</ele>
        <time>2023-07-05T04:02:44Z</time>
      </trkpt>
      <trkpt lat="47.14548" lon="0.4008">
        <ele>39</ele>
        <time>2023-07-05T04:03:28Z</time>
      </trkpt>
      <trkpt lat="47.14589" lon="0.40121">
        <ele>39</ele>
        <time>2023-07-05T04:03:53Z</time>
      </trkpt>
      <trkpt lat="47.14596" lon="0.40114">
        <ele>39</ele>
        <time>2023-07-05T04:03:57Z</time>
      </trkpt>
      <trkpt lat="47.14611" lon="0.40108">
        <ele>39</ele>
        <time>2023-07-05T04:04:05Z</time>
      </trkpt>
      <trkpt lat="47.14634" lon="0.40103">
        <ele>39</ele>
        <time>2023-07-05T04:04:17Z</time>
      </trkpt>
      <trkpt lat="47.14645" lon="0.40095">
        <ele>39</ele>
        <time>2023-07-05T04:04:23Z</time>
      </trkpt>
      <trkpt lat="47.14655" lon="0.40075">
        <ele>39</ele>
        <time>2023-07-05T04:04:31Z</time>
      </trkpt>
      <trkpt lat="47.14666" lon="0.40039">
        <ele>40</ele>
        <time>2023-07-05T04:04:45Z</time>
      </trkpt>
      <trkpt lat="47.14687" lon="0.40039">
        <ele>39</ele>
        <time>2023-07-05T04:04:55Z</time>
      </trkpt>
      <trkpt lat="47.14707" lon="0.40042">
        <ele>39</ele>
        <time>2023-07-05T04:05:05Z</time>
      </trkpt>
      <trkpt lat="47.14781" lon="0.40062">
        <ele>39</ele>
        <time>2023-07-05T04:05:43Z</time>
      </trkpt>
      <trkpt lat="47.14874" lon="0.40071">
        <ele>41</ele>
        <time>2023-07-05T04:06:30Z</time>
      </trkpt>
      <trkpt lat="47.14905" lon="0.40051">
        <ele>41</ele>
        <time>2023-07-05T04:06:46Z</time>
      </trkpt>
      <trkpt lat="47.14961" lon="0.39981">
        <ele>40</ele>
        <time>2023-07-05T04:07:23Z</time>
      </trkpt>
      <trkpt lat="47.15011" lon="0.40085">
        <ele>45</ele>
        <time>2023-07-05T04:08:07Z</time>
      </trkpt>
      <trkpt lat="47.15018" lon="0.40117">
        <ele>49</ele>
        <time>2023-07-05T04:08:18Z</time>
      </trkpt>
      <trkpt lat="47.15074" lon="0.40123">
        <ele>53</ele>
        <time>2023-07-05T04:08:46Z</time>
      </trkpt>
      <trkpt lat="47.15098" lon="0.40121">
        <ele>55</ele>
        <time>2023-07-05T04:08:58Z</time>
      </trkpt>
      <trkpt lat="47.1514" lon="0.40107">
        <ele>54</ele>
        <time>2023-07-05T04:09:20Z</time>
      </trkpt>
      <trkpt lat="47.1518" lon="0.4008">
        <ele>50</ele>
        <time>2023-07-05T04:09:42Z</time>
      </trkpt>
      <trkpt lat="47.15213" lon="0.40068">
        <ele>51</ele>
        <time>2023-07-05T04:09:59Z</time>
      </trkpt>
      <trkpt lat="47.15214" lon="0.40027">
        <ele>47</ele>
        <time>2023-07-05T04:10:13Z</time>
      </trkpt>
      <trkpt lat="47.15243" lon="0.40011">
        <ele>47</ele>
        <time>2023-07-05T04:10:28Z</time>
      </trkpt>
      <trkpt lat="47.1526" lon="0.40005">
        <ele>47</ele>
        <time>2023-07-05T04:10:37Z</time>
      </trkpt>
      <trkpt lat="47.15262" lon="0.39969">
        <ele>46</ele>
        <time>2023-07-05T04:10:49Z</time>
      </trkpt>
      <trkpt lat="47.15256" lon="0.39811">
        <ele>53</ele>
        <time>2023-07-05T04:11:43Z</time>
      </trkpt>
      <trkpt lat="47.15233" lon="0.39795">
        <ele>54</ele>
        <time>2023-07-05T04:11:56Z</time>
      </trkpt>
      <trkpt lat="47.15238" lon="0.39773">
        <ele>57</ele>
        <time>2023-07-05T04:12:04Z</time>
      </trkpt>
      <trkpt lat="47.15236" lon="0.39765">
        <ele>58</ele>
        <time>2023-07-05T04:12:07Z</time>
      </trkpt>
      <trkpt lat="47.15171" lon="0.39674">
        <ele>63</ele>
        <time>2023-07-05T04:12:52Z</time>
      </trkpt>
      <trkpt lat="47.15151" lon="0.39621">
        <ele>64</ele>
        <time>2023-07-05T04:13:12Z</time>
      </trkpt>
      <trkpt lat="47.15114" lon="0.39486">
        <ele>65</ele>
        <time>2023-07-05T04:14:02Z</time>
      </trkpt>
      <trkpt lat="47.1511" lon="0.39416">
        <ele>68</ele>
        <time>2023-07-05T04:14:26Z</time>
      </trkpt>
      <trkpt lat="47.15105" lon="0.39379">
        <ele>67</ele>
        <time>2023-07-05T04:14:38Z</time>
      </trkpt>
      <trkpt lat="47.15105" lon="0.3935">
        <ele>67</ele>
        <time>2023-07-05T04:14:48Z</time>
      </trkpt>
      <trkpt lat="47.1511" lon="0.39257">
        <ele>68</ele>
        <time>2023-07-05T04:15:20Z</time>
      </trkpt>
      <trkpt lat="47.15127" lon="0.39084">
        <ele>67</ele>
        <time>2023-07-05T04:16:20Z</time>
      </trkpt>
      <trkpt lat="47.15127" lon="0.38976">
        <ele>64</ele>
        <time>2023-07-05T04:16:56Z</time>
      </trkpt>
      <trkpt lat="47.15123" lon="0.38939">
        <ele>62</ele>
        <time>2023-07-05T04:17:09Z</time>
      </trkpt>
      <trkpt lat="47.15136" lon="0.38925">
        <ele>63</ele>
        <time>2023-07-05T04:17:17Z</time>
      </trkpt>
      <trkpt lat="47.15169" lon="0.3891">
        <ele>68</ele>
        <time>2023-07-05T04:17:34Z</time>
      </trkpt>
      <trkpt lat="47.15174" lon="0.38905">
        <ele>68</ele>
        <time>2023-07-05T04:17:37Z</time>
      </trkpt>
      <trkpt lat="47.15193" lon="0.38865">
        <ele>66</ele>
        <time>2023-07-05T04:17:54Z</time>
      </trkpt>
      <trkpt lat="47.15201" lon="0.38853">
        <ele>66</ele>
        <time>2023-07-05T04:18:00Z</time>
      </trkpt>
      <trkpt lat="47.15248" lon="0.38813">
        <ele>67</ele>
        <time>2023-07-05T04:18:27Z</time>
      </trkpt>
      <trkpt lat="47.15278" lon="0.38802">
        <ele>68</ele>
        <time>2023-07-05T04:18:42Z</time>
      </trkpt>
      <trkpt lat="47.15274" lon="0.38716">
        <ele>64</ele>
        <time>2023-07-05T04:19:12Z</time>
      </trkpt>
      <trkpt lat="47.15387" lon="0.38706">
        <ele>76</ele>
        <time>2023-07-05T04:20:08Z</time>
      </trkpt>
      <trkpt lat="47.15434" lon="0.38686">
        <ele>83</ele>
        <time>2023-07-05T04:20:33Z</time>
      </trkpt>
      <trkpt lat="47.15467" lon="0.38666">
        <ele>88</ele>
        <time>2023-07-05T04:20:51Z</time>
      </trkpt>
      <trkpt lat="47.15475" lon="0.38649">
        <ele>89</ele>
        <time>2023-07-05T04:20:58Z</time>
      </trkpt>
      <trkpt lat="47.15505" lon="0.38412">
        <ele>103</ele>
        <time>2023-07-05T04:22:20Z</time>
      </trkpt>
      <trkpt lat="47.15517" lon="0.38377">
        <ele>104</ele>
        <time>2023-07-05T04:22:33Z</time>
      </trkpt>
      <trkpt lat="47.15521" lon="0.38357">
        <ele>105</ele>
        <time>2023-07-05T04:22:40Z</time>
      </trkpt>
      <trkpt lat="47.1555" lon="0.38308">
        <ele>107</ele>
        <time>2023-07-05T04:23:02Z</time>
      </trkpt>
      <trkpt lat="47.15606" lon="0.38256">
        <ele>111</ele>
        <time>2023-07-05T04:23:36Z</time>
      </trkpt>
      <trkpt lat="47.1572" lon="0.38169">
        <ele>116</ele>
        <time>2023-07-05T04:24:40Z</time>
      </trkpt>
      <trkpt lat="47.15808" lon="0.3812">
        <ele>118</ele>
        <time>2023-07-05T04:25:27Z</time>
      </trkpt>
      <trkpt lat="47.15827" lon="0.38105">
        <ele>118</ele>
        <time>2023-07-05T04:25:38Z</time>
      </trkpt>
      <trkpt lat="47.15866" lon="0.38038">
        <ele>117</ele>
        <time>2023-07-05T04:26:08Z</time>
      </trkpt>
      <trkpt lat="47.15878" lon="0.38">
        <ele>116</ele>
        <time>2023-07-05T04:26:22Z</time>
      </trkpt>
      <trkpt lat="47.16081" lon="0.37628">
        <ele>111</ele>
        <time>2023-07-05T04:29:04Z</time>
      </trkpt>
      <trkpt lat="47.16087" lon="0.37595">
        <ele>112</ele>
        <time>2023-07-05T04:29:16Z</time>
      </trkpt>
      <trkpt lat="47.16087" lon="0.37536">
        <ele>113</ele>
        <time>2023-07-05T04:29:36Z</time>
      </trkpt>
      <trkpt lat="47.161" lon="0.37416">
        <ele>112</ele>
        <time>2023-07-05T04:30:17Z</time>
      </trkpt>
      <trkpt lat="47.16115" lon="0.37313">
        <ele>110</ele>
        <time>2023-07-05T04:30:53Z</time>
      </trkpt>
      <trkpt lat="47.16132" lon="0.37167">
        <ele>110</ele>
        <time>2023-07-05T04:31:44Z</time>
      </trkpt>
      <trkpt lat="47.16129" lon="0.37142">
        <ele>109</ele>
        <time>2023-07-05T04:31:52Z</time>
      </trkpt>
      <trkpt lat="47.1612" lon="0.37112">
        <ele>109</ele>
        <time>2023-07-05T04:32:03Z</time>
      </trkpt>
      <trkpt lat="47.16064" lon="0.36991">
        <ele>106</ele>
        <time>2023-07-05T04:32:53Z</time>
      </trkpt>
      <trkpt lat="47.16032" lon="0.36908">
        <ele>106</ele>
        <time>2023-07-05T04:33:26Z</time>
      </trkpt>
      <trkpt lat="47.16031" lon="0.3687">
        <ele>108</ele>
        <time>2023-07-05T04:33:39Z</time>
      </trkpt>
      <trkpt lat="47.16044" lon="0.36783">
        <ele>112</ele>
        <time>2023-07-05T04:34:09Z</time>
      </trkpt>
      <trkpt lat="47.16045" lon="0.36719">
        <ele>112</ele>
        <time>2023-07-05T04:34:31Z</time>
      </trkpt>
      <trkpt lat="47.16035" lon="0.36674">
        <ele>111</ele>
        <time>2023-07-05T04:34:47Z</time>
      </trkpt>
      <trkpt lat="47.16018" lon="0.36619">
        <ele>111</ele>
        <time>2023-07-05T04:35:07Z</time>
      </trkpt>
      <trkpt lat="47.15995" lon="0.36559">
        <ele>111</ele>
        <time>2023-07-05T04:35:31Z</time>
      </trkpt>
      <trkpt lat="47.16007" lon="0.36541">
        <ele>111</ele>
        <time>2023-07-05T04:35:39Z</time>
      </trkpt>
      <trkpt lat="47.16052" lon="0.36487">
        <ele>108</ele>
        <time>2023-07-05T04:36:08Z</time>
      </trkpt>
      <trkpt lat="47.16069" lon="0.3646">
        <ele>107</ele>
        <time>2023-07-05T04:36:21Z</time>
      </trkpt>
      <trkpt lat="47.16079" lon="0.3646">
        <ele>107</ele>
        <time>2023-07-05T04:36:26Z</time>
      </trkpt>
      <trkpt lat="47.16098" lon="0.36469">
        <ele>107</ele>
        <time>2023-07-05T04:36:36Z</time>
      </trkpt>
      <trkpt lat="47.16112" lon="0.36468">
        <ele>107</ele>
        <time>2023-07-05T04:36:43Z</time>
      </trkpt>
      <trkpt lat="47.16175" lon="0.36435">
        <ele>106</ele>
        <time>2023-07-05T04:37:16Z</time>
      </trkpt>
      <trkpt lat="47.16216" lon="0.36419">
        <ele>106</ele>
        <time>2023-07-05T04:37:38Z</time>
      </trkpt>
      <trkpt lat="47.16276" lon="0.364">
        <ele>105</ele>
        <time>2023-07-05T04:38:08Z</time>
      </trkpt>
      <trkpt lat="47.16272" lon="0.36362">
        <ele>104</ele>
        <time>2023-07-05T04:38:21Z</time>
      </trkpt>
      <trkpt lat="47.16276" lon="0.36264">
        <ele>100</ele>
        <time>2023-07-05T04:38:55Z</time>
      </trkpt>
      <trkpt lat="47.16275" lon="0.3624">
        <ele>99</ele>
        <time>2023-07-05T04:39:03Z</time>
      </trkpt>
      <trkpt lat="47.1626" lon="0.36212">
        <ele>97</ele>
        <time>2023-07-05T04:39:15Z</time>
      </trkpt>
      <trkpt lat="47.16255" lon="0.36196">
        <ele>96</ele>
        <time>2023-07-05T04:39:21Z</time>
      </trkpt>
      <trkpt lat="47.16236" lon="0.36076">
        <ele>94</ele>
        <time>2023-07-05T04:40:03Z</time>
      </trkpt>
      <trkpt lat="47.16226" lon="0.35922">
        <ele>88</ele>
        <time>2023-07-05T04:40:56Z</time>
      </trkpt>
      <trkpt lat="47.16221" lon="0.35883">
        <ele>88</ele>
        <time>2023-07-05T04:41:09Z</time>
      </trkpt>
      <trkpt lat="47.16205" lon="0.35816">
        <ele>86</ele>
        <time>2023-07-05T04:41:33Z</time>
      </trkpt>
      <trkpt lat="47.16199" lon="0.35703">
        <ele>79</ele>
        <time>2023-07-05T04:42:12Z</time>
      </trkpt>
      <trkpt lat="47.16201" lon="0.35674">
        <ele>77</ele>
        <time>2023-07-05T04:42:22Z</time>
      </trkpt>
      <trkpt lat="47.1623" lon="0.35563">
        <ele>71</ele>
        <time>2023-07-05T04:43:02Z</time>
      </trkpt>
      <trkpt lat="47.16232" lon="0.355">
        <ele>73</ele>
        <time>2023-07-05T04:43:24Z</time>
      </trkpt>
      <trkpt lat="47.16228" lon="0.35276">
        <ele>77</ele>
        <time>2023-07-05T04:44:40Z</time>
      </trkpt>
      <trkpt lat="47.16218" lon="0.35216">
        <ele>73</ele>
        <time>2023-07-05T04:45:01Z</time>
      </trkpt>
      <trkpt lat="47.16206" lon="0.35175">
        <ele>69</ele>
        <time>2023-07-05T04:45:16Z</time>
      </trkpt>
      <trkpt lat="47.16207" lon="0.35028">
        <ele>59</ele>
        <time>2023-07-05T04:46:06Z</time>
      </trkpt>
      <trkpt lat="47.16213" lon="0.35003">
        <ele>58</ele>
        <time>2023-07-05T04:46:15Z</time>
      </trkpt>
      <trkpt lat="47.16237" lon="0.35002">
        <ele>59</ele>
        <time>2023-07-05T04:46:27Z</time>
      </trkpt>
      <trkpt lat="47.16255" lon="0.35005">
        <ele>61</ele>
        <time>2023-07-05T04:46:36Z</time>
      </trkpt>
      <trkpt lat="47.16341" lon="0.35041">
        <ele>67</ele>
        <time>2023-07-05T04:47:21Z</time>
      </trkpt>
      <trkpt lat="47.16404" lon="0.35045">
        <ele>67</ele>
        <time>2023-07-05T04:47:53Z</time>
      </trkpt>
      <trkpt lat="47.16463" lon="0.35055">
        <ele>68</ele>
        <time>2023-07-05T04:48:22Z</time>
      </trkpt>
      <trkpt lat="47.16508" lon="0.35055">
        <ele>66</ele>
        <time>2023-07-05T04:48:45Z</time>
      </trkpt>
      <trkpt lat="47.16525" lon="0.35059">
        <ele>65</ele>
        <time>2023-07-05T04:48:53Z</time>
      </trkpt>
      <trkpt lat="47.16575" lon="0.35064">
        <ele>61</ele>
        <time>2023-07-05T04:49:19Z</time>
      </trkpt>
      <trkpt lat="47.16606" lon="0.35">
        <ele>52</ele>
        <time>2023-07-05T04:49:45Z</time>
      </trkpt>
      <trkpt lat="47.16632" lon="0.34973">
        <ele>51</ele>
        <time>2023-07-05T04:50:01Z</time>
      </trkpt>
      <trkpt lat="47.1662" lon="0.34938">
        <ele>50</ele>
        <time>2023-07-05T04:50:15Z</time>
      </trkpt>
      <trkpt lat="47.16639" lon="0.34915">
        <ele>50</ele>
        <time>2023-07-05T04:50:27Z</time>
      </trkpt>
      <trkpt lat="47.16652" lon="0.34906">
        <ele>50</ele>
        <time>2023-07-05T04:50:34Z</time>
      </trkpt>
      <trkpt lat="47.16657" lon="0.34897">
        <ele>51</ele>
        <time>2023-07-05T04:50:38Z</time>
      </trkpt>
      <trkpt lat="47.16659" lon="0.34867">
        <ele>52</ele>
        <time>2023-07-05T04:50:48Z</time>
      </trkpt>
      <trkpt lat="47.16654" lon="0.34853">
        <ele>52</ele>
        <time>2023-07-05T04:50:54Z</time>
      </trkpt>
      <trkpt lat="47.16659" lon="0.34793">
        <ele>57</ele>
        <time>2023-07-05T04:51:14Z</time>
      </trkpt>
      <trkpt lat="47.16656" lon="0.34726">
        <ele>64</ele>
        <time>2023-07-05T04:51:37Z</time>
      </trkpt>
      <trkpt lat="47.16674" lon="0.34727">
        <ele>64</ele>
        <time>2023-07-05T04:51:46Z</time>
      </trkpt>
      <trkpt lat="47.16766" lon="0.34748">
        <ele>67</ele>
        <time>2023-07-05T04:52:33Z</time>
      </trkpt>
      <trkpt lat="47.16785" lon="0.34748">
        <ele>68</ele>
        <time>2023-07-05T04:52:42Z</time>
      </trkpt>
      <trkpt lat="47.16842" lon="0.34732">
        <ele>73</ele>
        <time>2023-07-05T04:53:11Z</time>
      </trkpt>
      <trkpt lat="47.16884" lon="0.34715">
        <ele>75</ele>
        <time>2023-07-05T04:53:33Z</time>
      </trkpt>
      <trkpt lat="47.16944" lon="0.34702">
        <ele>73</ele>
        <time>2023-07-05T04:54:03Z</time>
      </trkpt>
      <trkpt lat="47.16969" lon="0.34692">
        <ele>72</ele>
        <time>2023-07-05T04:54:16Z</time>
      </trkpt>
      <trkpt lat="47.16988" lon="0.34681">
        <ele>71</ele>
        <time>2023-07-05T04:54:26Z</time>
      </trkpt>
      <trkpt lat="47.16998" lon="0.34666">
        <ele>71</ele>
        <time>2023-07-05T04:54:34Z</time>
      </trkpt>
      <trkpt lat="47.17037" lon="0.34566">
        <ele>71</ele>
        <time>2023-07-05T04:55:13Z</time>
      </trkpt>
      <trkpt lat="47.17059" lon="0.34471">
        <ele>71</ele>
        <time>2023-07-05T04:55:47Z</time>
      </trkpt>
      <trkpt lat="47.17096" lon="0.34371">
        <ele>74</ele>
        <time>2023-07-05T04:56:26Z</time>
      </trkpt>
      <trkpt lat="47.17119" lon="0.34323">
        <ele>73</ele>
        <time>2023-07-05T04:56:46Z</time>
      </trkpt>
      <trkpt lat="47.17146" lon="0.34281">
        <ele>70</ele>
        <time>2023-07-05T04:57:05Z</time>
      </trkpt>
      <trkpt lat="47.17157" lon="0.34269">
        <ele>68</ele>
        <time>2023-07-05T04:57:12Z</time>
      </trkpt>
      <trkpt lat="47.17173" lon="0.34213">
        <ele>69</ele>
        <time>2023-07-05T04:57:33Z</time>
      </trkpt>
      <trkpt lat="47.17201" lon="0.34075">
        <ele>76</ele>
        <time>2023-07-05T04:58:22Z</time>
      </trkpt>
      <trkpt lat="47.17208" lon="0.3406">
        <ele>76</ele>
        <time>2023-07-05T04:58:28Z</time>
      </trkpt>
      <trkpt lat="47.1722" lon="0.34049">
        <ele>77</ele>
        <time>2023-07-05T04:58:35Z</time>
      </trkpt>
      <trkpt lat="47.17228" lon="0.34024">
        <ele>78</ele>
        <time>2023-07-05T04:58:45Z</time>
      </trkpt>
      <trkpt lat="47.17232" lon="0.34005">
        <ele>78</ele>
        <time>2023-07-05T04:58:51Z</time>
      </trkpt>
      <trkpt lat="47.17235" lon="0.33965">
        <ele>79</ele>
        <time>2023-07-05T04:59:05Z</time>
      </trkpt>
      <trkpt lat="47.17228" lon="0.33765">
        <ele>83</ele>
        <time>2023-07-05T05:00:13Z</time>
      </trkpt>
      <trkpt lat="47.17229" lon="0.33701">
        <ele>83</ele>
        <time>2023-07-05T05:00:35Z</time>
      </trkpt>
      <trkpt lat="47.17231" lon="0.33685">
        <ele>82</ele>
        <time>2023-07-05T05:00:40Z</time>
      </trkpt>
      <trkpt lat="47.17245" lon="0.33637">
        <ele>82</ele>
        <time>2023-07-05T05:00:58Z</time>
      </trkpt>
      <trkpt lat="47.17251" lon="0.33605">
        <ele>82</ele>
        <time>2023-07-05T05:01:10Z</time>
      </trkpt>
      <trkpt lat="47.17277" lon="0.33294">
        <ele>86</ele>
        <time>2023-07-05T05:02:56Z</time>
      </trkpt>
      <trkpt lat="47.17287" lon="0.33243">
        <ele>86</ele>
        <time>2023-07-05T05:03:14Z</time>
      </trkpt>
      <trkpt lat="47.17344" lon="0.33025">
        <ele>87</ele>
        <time>2023-07-05T05:04:34Z</time>
      </trkpt>
      <trkpt lat="47.17354" lon="0.33001">
        <ele>88</ele>
        <time>2023-07-05T05:04:43Z</time>
      </trkpt>
      <trkpt lat="47.17362" lon="0.32988">
        <ele>89</ele>
        <time>2023-07-05T05:04:49Z</time>
      </trkpt>
      <trkpt lat="47.1741" lon="0.32921">
        <ele>91</ele>
        <time>2023-07-05T05:05:22Z</time>
      </trkpt>
      <trkpt lat="47.17419" lon="0.32898">
        <ele>91</ele>
        <time>2023-07-05T05:05:31Z</time>
      </trkpt>
      <trkpt lat="47.17527" lon="0.32067">
        <ele>103</ele>
        <time>2023-07-05T05:10:19Z</time>
      </trkpt>
      <trkpt lat="47.17526" lon="0.31922">
        <ele>107</ele>
        <time>2023-07-05T05:11:08Z</time>
      </trkpt>
      <trkpt lat="47.17506" lon="0.3165">
        <ele>106</ele>
        <time>2023-07-05T05:12:41Z</time>
      </trkpt>
      <trkpt lat="47.17506" lon="0.31532">
        <ele>108</ele>
        <time>2023-07-05T05:13:22Z</time>
      </trkpt>
      <trkpt lat="47.17512" lon="0.3142">
        <ele>107</ele>
        <time>2023-07-05T05:14:00Z</time>
      </trkpt>
      <trkpt lat="47.17511" lon="0.31344">
        <ele>106</ele>
        <time>2023-07-05T05:14:26Z</time>
      </trkpt>
      <trkpt lat="47.17508" lon="0.31311">
        <ele>106</ele>
        <time>2023-07-05T05:14:37Z</time>
      </trkpt>
      <trkpt lat="47.17451" lon="0.31295">
        <ele>108</ele>
        <time>2023-07-05T05:15:06Z</time>
      </trkpt>
      <trkpt lat="47.17384" lon="0.31262">
        <ele>110</ele>
        <time>2023-07-05T05:15:41Z</time>
      </trkpt>
      <trkpt lat="47.1737" lon="0.31247">
        <ele>109</ele>
        <time>2023-07-05T05:15:50Z</time>
      </trkpt>
      <trkpt lat="47.17343" lon="0.31161">
        <ele>106</ele>
        <time>2023-07-05T05:16:22Z</time>
      </trkpt>
      <trkpt lat="47.17335" lon="0.31143">
        <ele>106</ele>
        <time>2023-07-05T05:16:30Z</time>
      </trkpt>
      <trkpt lat="47.17293" lon="0.31069">
        <ele>107</ele>
        <time>2023-07-05T05:17:02Z</time>
      </trkpt>
      <trkpt lat="47.17238" lon="0.30949">
        <ele>107</ele>
        <time>2023-07-05T05:17:52Z</time>
      </trkpt>
      <trkpt lat="47.17222" lon="0.30905">
        <ele>108</ele>
        <time>2023-07-05T05:18:09Z</time>
      </trkpt>
      <trkpt lat="47.17186" lon="0.30759">
        <ele>108</ele>
        <time>2023-07-05T05:19:01Z</time>
      </trkpt>
      <trkpt lat="47.17169" lon="0.30714">
        <ele>108</ele>
        <time>2023-07-05T05:19:19Z</time>
      </trkpt>
      <trkpt lat="47.17149" lon="0.30668">
        <ele>108</ele>
        <time>2023-07-05T05:19:38Z</time>
      </trkpt>
      <trkpt lat="47.17079" lon="0.30531">
        <ele>107</ele>
        <time>2023-07-05T05:20:36Z</time>
      </trkpt>
      <trkpt lat="47.17001" lon="0.30368">
        <ele>104</ele>
        <time>2023-07-05T05:21:44Z</time>
      </trkpt>
      <trkpt lat="47.17019" lon="0.30343">
        <ele>104</ele>
        <time>2023-07-05T05:21:56Z</time>
      </trkpt>
      <trkpt lat="47.1711" lon="0.30196">
        <ele>97</ele>
        <time>2023-07-05T05:23:04Z</time>
      </trkpt>
      <trkpt lat="47.17203" lon="0.30083">
        <ele>86</ele>
        <time>2023-07-05T05:24:04Z</time>
      </trkpt>
      <trkpt lat="47.17284" lon="0.29991">
        <ele>79</ele>
        <time>2023-07-05T05:24:55Z</time>
      </trkpt>
      <trkpt lat="47.17364" lon="0.2994">
        <ele>69</ele>
        <time>2023-07-05T05:25:39Z</time>
      </trkpt>
      <trkpt lat="47.17377" lon="0.29935">
        <ele>68</ele>
        <time>2023-07-05T05:25:46Z</time>
      </trkpt>
      <trkpt lat="47.17504" lon="0.29914">
        <ele>68</ele>
        <time>2023-07-05T05:26:50Z</time>
      </trkpt>
      <trkpt lat="47.17526" lon="0.29833">
        <ele>71</ele>
        <time>2023-07-05T05:27:19Z</time>
      </trkpt>
      <trkpt lat="47.17529" lon="0.29726">
        <ele>66</ele>
        <time>2023-07-05T05:27:56Z</time>
      </trkpt>
      <trkpt lat="47.17521" lon="0.297">
        <ele>64</ele>
        <time>2023-07-05T05:28:05Z</time>
      </trkpt>
      <trkpt lat="47.17484" lon="0.29634">
        <ele>62</ele>
        <time>2023-07-05T05:28:35Z</time>
      </trkpt>
      <trkpt lat="47.17468" lon="0.29592">
        <ele>63</ele>
        <time>2023-07-05T05:28:51Z</time>
      </trkpt>
      <trkpt lat="47.17417" lon="0.29358">
        <ele>67</ele>
        <time>2023-07-05T05:30:14Z</time>
      </trkpt>
      <trkpt lat="47.17409" lon="0.29303">
        <ele>68</ele>
        <time>2023-07-05T05:30:34Z</time>
      </trkpt>
      <trkpt lat="47.17409" lon="0.29049">
        <ele>66</ele>
        <time>2023-07-05T05:32:00Z</time>
      </trkpt>
      <trkpt lat="47.17407" lon="0.29026">
        <ele>66</ele>
        <time>2023-07-05T05:32:08Z</time>
      </trkpt>
      <trkpt lat="47.17392" lon="0.28938">
        <ele>68</ele>
        <time>2023-07-05T05:32:39Z</time>
      </trkpt>
      <trkpt lat="47.1737" lon="0.28774">
        <ele>69</ele>
        <time>2023-07-05T05:33:36Z</time>
      </trkpt>
      <trkpt lat="47.17358" lon="0.28722">
        <ele>70</ele>
        <time>2023-07-05T05:33:54Z</time>
      </trkpt>
      <trkpt lat="47.17361" lon="0.28707">
        <ele>70</ele>
        <time>2023-07-05T05:34:00Z</time>
      </trkpt>
      <trkpt lat="47.17362" lon="0.28639">
        <ele>72</ele>
        <time>2023-07-05T05:34:23Z</time>
      </trkpt>
      <trkpt lat="47.1736" lon="0.28452">
        <ele>75</ele>
        <time>2023-07-05T05:35:26Z</time>
      </trkpt>
      <trkpt lat="47.17379" lon="0.28302">
        <ele>79</ele>
        <time>2023-07-05T05:36:18Z</time>
      </trkpt>
      <trkpt lat="47.17387" lon="0.27912">
        <ele>93</ele>
        <time>2023-07-05T05:38:31Z</time>
      </trkpt>
      <trkpt lat="47.17385" lon="0.27814">
        <ele>97</ele>
        <time>2023-07-05T05:39:04Z</time>
      </trkpt>
      <trkpt lat="47.17393" lon="0.27685">
        <ele>102</ele>
        <time>2023-07-05T05:39:48Z</time>
      </trkpt>
      <trkpt lat="47.17387" lon="0.2766">
        <ele>102</ele>
        <time>2023-07-05T05:39:57Z</time>
      </trkpt>
      <trkpt lat="47.17376" lon="0.2763">
        <ele>102</ele>
        <time>2023-07-05T05:40:09Z</time>
      </trkpt>
      <trkpt lat="47.17313" lon="0.27467">
        <ele>98</ele>
        <time>2023-07-05T05:41:13Z</time>
      </trkpt>
      <trkpt lat="47.173" lon="0.2741">
        <ele>96</ele>
        <time>2023-07-05T05:41:33Z</time>
      </trkpt>
      <trkpt lat="47.17273" lon="0.2747">
        <ele>96</ele>
        <time>2023-07-05T05:41:58Z</time>
      </trkpt>
      <trkpt lat="47.17249" lon="0.27453">
        <ele>95</ele>
        <time>2023-07-05T05:42:11Z</time>
      </trkpt>
      <trkpt lat="47.17232" lon="0.27436">
        <ele>95</ele>
        <time>2023-07-05T05:42:21Z</time>
      </trkpt>
      <trkpt lat="47.17199" lon="0.27396">
        <ele>94</ele>
        <time>2023-07-05T05:42:43Z</time>
      </trkpt>
      <trkpt lat="47.17154" lon="0.27325">
        <ele>91</ele>
        <time>2023-07-05T05:43:16Z</time>
      </trkpt>
      <trkpt lat="47.17134" lon="0.27284">
        <ele>87</ele>
        <time>2023-07-05T05:43:33Z</time>
      </trkpt>
      <trkpt lat="47.17111" lon="0.27265">
        <ele>83</ele>
        <time>2023-07-05T05:43:46Z</time>
      </trkpt>
      <trkpt lat="47.17073" lon="0.27227">
        <ele>78</ele>
        <time>2023-07-05T05:44:09Z</time>
      </trkpt>
      <trkpt lat="47.17045" lon="0.27207">
        <ele>74</ele>
        <time>2023-07-05T05:44:25Z</time>
      </trkpt>
      <trkpt lat="47.16992" lon="0.2719">
        <ele>67</ele>
        <time>2023-07-05T05:44:52Z</time>
      </trkpt>
      <trkpt lat="47.1698" lon="0.27184">
        <ele>66</ele>
        <time>2023-07-05T05:44:58Z</time>
      </trkpt>
      <trkpt lat="47.16973" lon="0.27177">
        <ele>65</ele>
        <time>2023-07-05T05:45:02Z</time>
      </trkpt>
      <trkpt lat="47.16943" lon="0.27106">
        <ele>61</ele>
        <time>2023-07-05T05:45:31Z</time>
      </trkpt>
      <trkpt lat="47.16933" lon="0.27067">
        <ele>58</ele>
        <time>2023-07-05T05:45:45Z</time>
      </trkpt>
      <trkpt lat="47.16925" lon="0.27023">
        <ele>57</ele>
        <time>2023-07-05T05:46:01Z</time>
      </trkpt>
      <trkpt lat="47.1692" lon="0.27007">
        <ele>56</ele>
        <time>2023-07-05T05:46:07Z</time>
      </trkpt>
      <trkpt lat="47.16913" lon="0.26995">
        <ele>55</ele>
        <time>2023-07-05T05:46:12Z</time>
      </trkpt>
      <trkpt lat="47.16924" lon="0.26966">
        <ele>54</ele>
        <time>2023-07-05T05:46:23Z</time>
      </trkpt>
      <trkpt lat="47.16937" lon="0.26899">
        <ele>54</ele>
        <time>2023-07-05T05:46:47Z</time>
      </trkpt>
      <trkpt lat="47.1696" lon="0.26697">
        <ele>67</ele>
        <time>2023-07-05T05:47:57Z</time>
      </trkpt>
      <trkpt lat="47.16958" lon="0.26692">
        <ele>67</ele>
        <time>2023-07-05T05:47:59Z</time>
      </trkpt>
      <trkpt lat="47.16937" lon="0.26675">
        <ele>66</ele>
        <time>2023-07-05T05:48:11Z</time>
      </trkpt>
      <trkpt lat="47.16933" lon="0.26663">
        <ele>67</ele>
        <time>2023-07-05T05:48:15Z</time>
      </trkpt>
      <trkpt lat="47.16932" lon="0.26632">
        <ele>69</ele>
        <time>2023-07-05T05:48:26Z</time>
      </trkpt>
      <trkpt lat="47.16935" lon="0.26607">
        <ele>71</ele>
        <time>2023-07-05T05:48:34Z</time>
      </trkpt>
      <trkpt lat="47.16929" lon="0.26578">
        <ele>72</ele>
        <time>2023-07-05T05:48:45Z</time>
      </trkpt>
      <trkpt lat="47.16911" lon="0.26534">
        <ele>71</ele>
        <time>2023-07-05T05:49:02Z</time>
      </trkpt>
      <trkpt lat="47.16906" lon="0.26477">
        <ele>72</ele>
        <time>2023-07-05T05:49:22Z</time>
      </trkpt>
      <trkpt lat="47.16907" lon="0.2646">
        <ele>73</ele>
        <time>2023-07-05T05:49:27Z</time>
      </trkpt>
      <trkpt lat="47.16902" lon="0.26435">
        <ele>72</ele>
        <time>2023-07-05T05:49:36Z</time>
      </trkpt>
      <trkpt lat="47.1689" lon="0.26417">
        <ele>70</ele>
        <time>2023-07-05T05:49:45Z</time>
      </trkpt>
      <trkpt lat="47.16882" lon="0.26396">
        <ele>70</ele>
        <time>2023-07-05T05:49:53Z</time>
      </trkpt>
      <trkpt lat="47.16869" lon="0.26383">
        <ele>67</ele>
        <time>2023-07-05T05:50:01Z</time>
      </trkpt>
      <trkpt lat="47.16853" lon="0.26344">
        <ele>66</ele>
        <time>2023-07-05T05:50:16Z</time>
      </trkpt>
      <trkpt lat="47.16846" lon="0.2632">
        <ele>65</ele>
        <time>2023-07-05T05:50:25Z</time>
      </trkpt>
      <trkpt lat="47.16846" lon="0.26291">
        <ele>66</ele>
        <time>2023-07-05T05:50:35Z</time>
      </trkpt>
      <trkpt lat="47.16856" lon="0.2625">
        <ele>69</ele>
        <time>2023-07-05T05:50:50Z</time>
      </trkpt>
      <trkpt lat="47.16861" lon="0.2618">
        <ele>71</ele>
        <time>2023-07-05T05:51:14Z</time>
      </trkpt>
      <trkpt lat="47.1686" lon="0.26107">
        <ele>71</ele>
        <time>2023-07-05T05:51:39Z</time>
      </trkpt>
      <trkpt lat="47.16851" lon="0.2608">
        <ele>69</ele>
        <time>2023-07-05T05:51:49Z</time>
      </trkpt>
      <trkpt lat="47.16849" lon="0.26056">
        <ele>69</ele>
        <time>2023-07-05T05:51:57Z</time>
      </trkpt>
      <trkpt lat="47.16855" lon="0.26034">
        <ele>70</ele>
        <time>2023-07-05T05:52:05Z</time>
      </trkpt>
      <trkpt lat="47.16869" lon="0.26013">
        <ele>74</ele>
        <time>2023-07-05T05:52:15Z</time>
      </trkpt>
      <trkpt lat="47.16875" lon="0.25993">
        <ele>75</ele>
        <time>2023-07-05T05:52:23Z</time>
      </trkpt>
      <trkpt lat="47.16877" lon="0.2598">
        <ele>75</ele>
        <time>2023-07-05T05:52:27Z</time>
      </trkpt>
      <trkpt lat="47.16877" lon="0.25935">
        <ele>74</ele>
        <time>2023-07-05T05:52:43Z</time>
      </trkpt>
      <trkpt lat="47.16883" lon="0.25909">
        <ele>74</ele>
        <time>2023-07-05T05:52:52Z</time>
      </trkpt>
      <trkpt lat="47.16903" lon="0.2587">
        <ele>75</ele>
        <time>2023-07-05T05:53:09Z</time>
      </trkpt>
      <trkpt lat="47.16923" lon="0.25855">
        <ele>77</ele>
        <time>2023-07-05T05:53:20Z</time>
      </trkpt>
      <trkpt lat="47.16938" lon="0.25851">
        <ele>78</ele>
        <time>2023-07-05T05:53:27Z</time>
      </trkpt>
      <trkpt lat="47.1693" lon="0.25842">
        <ele>77</ele>
        <time>2023-07-05T05:53:33Z</time>
      </trkpt>
      <trkpt lat="47.1693" lon="0.25834">
        <ele>76</ele>
        <time>2023-07-05T05:53:35Z</time>
      </trkpt>
      <trkpt lat="47.16935" lon="0.25824">
        <ele>76</ele>
        <time>2023-07-05T05:53:39Z</time>
      </trkpt>
      <trkpt lat="47.16936" lon="0.25774">
        <ele>70</ele>
        <time>2023-07-05T05:53:56Z</time>
      </trkpt>
      <trkpt lat="47.16943" lon="0.25746">
        <ele>69</ele>
        <time>2023-07-05T05:54:07Z</time>
      </trkpt>
      <trkpt lat="47.16941" lon="0.25713">
        <ele>68</ele>
        <time>2023-07-05T05:54:18Z</time>
      </trkpt>
      <trkpt lat="47.16947" lon="0.25708">
        <ele>69</ele>
        <time>2023-07-05T05:54:21Z</time>
      </trkpt>
      <trkpt lat="47.16961" lon="0.25683">
        <ele>71</ele>
        <time>2023-07-05T05:54:32Z</time>
      </trkpt>
      <trkpt lat="47.16943" lon="0.25657">
        <ele>70</ele>
        <time>2023-07-05T05:54:45Z</time>
      </trkpt>
      <trkpt lat="47.16938" lon="0.25653">
        <ele>69</ele>
        <time>2023-07-05T05:54:48Z</time>
      </trkpt>
      <trkpt lat="47.16908" lon="0.25646">
        <ele>67</ele>
        <time>2023-07-05T05:55:03Z</time>
      </trkpt>
      <trkpt lat="47.16878" lon="0.25643">
        <ele>64</ele>
        <time>2023-07-05T05:55:18Z</time>
      </trkpt>
      <trkpt lat="47.16867" lon="0.25639">
        <ele>63</ele>
        <time>2023-07-05T05:55:24Z</time>
      </trkpt>
      <trkpt lat="47.16857" lon="0.25627">
        <ele>63</ele>
        <time>2023-07-05T05:55:30Z</time>
      </trkpt>
      <trkpt lat="47.16853" lon="0.25617">
        <ele>63</ele>
        <time>2023-07-05T05:55:34Z</time>
      </trkpt>
      <trkpt lat="47.16845" lon="0.25573">
        <ele>65</ele>
        <time>2023-07-05T05:55:50Z</time>
      </trkpt>
      <trkpt lat="47.16843" lon="0.25523">
        <ele>67</ele>
        <time>2023-07-05T05:56:07Z</time>
      </trkpt>
      <trkpt lat="47.16847" lon="0.25486">
        <ele>68</ele>
        <time>2023-07-05T05:56:19Z</time>
      </trkpt>
      <trkpt lat="47.16848" lon="0.25438">
        <ele>68</ele>
        <time>2023-07-05T05:56:36Z</time>
      </trkpt>
      <trkpt lat="47.16846" lon="0.25407">
        <ele>68</ele>
        <time>2023-07-05T05:56:46Z</time>
      </trkpt>
      <trkpt lat="47.16841" lon="0.25382">
        <ele>66</ele>
        <time>2023-07-05T05:56:55Z</time>
      </trkpt>
      <trkpt lat="47.16841" lon="0.25359">
        <ele>66</ele>
        <time>2023-07-05T05:57:03Z</time>
      </trkpt>
      <trkpt lat="47.1685" lon="0.25328">
        <ele>69</ele>
        <time>2023-07-05T05:57:15Z</time>
      </trkpt>
      <trkpt lat="47.16851" lon="0.25303">
        <ele>68</ele>
        <time>2023-07-05T05:57:23Z</time>
      </trkpt>
      <trkpt lat="47.16848" lon="0.25275">
        <ele>67</ele>
        <time>2023-07-05T05:57:33Z</time>
      </trkpt>
      <trkpt lat="47.16855" lon="0.25165">
        <ele>67</ele>
        <time>2023-07-05T05:58:10Z</time>
      </trkpt>
      <trkpt lat="47.16853" lon="0.25132">
        <ele>68</ele>
        <time>2023-07-05T05:58:22Z</time>
      </trkpt>
      <trkpt lat="47.16842" lon="0.25089">
        <ele>67</ele>
        <time>2023-07-05T05:58:37Z</time>
      </trkpt>
      <trkpt lat="47.1684" lon="0.25054">
        <ele>67</ele>
        <time>2023-07-05T05:58:49Z</time>
      </trkpt>
      <trkpt lat="47.16821" lon="0.24972">
        <ele>60</ele>
        <time>2023-07-05T05:59:19Z</time>
      </trkpt>
      <trkpt lat="47.16824" lon="0.24954">
        <ele>60</ele>
        <time>2023-07-05T05:59:25Z</time>
      </trkpt>
      <trkpt lat="47.1683" lon="0.24942">
        <ele>60</ele>
        <time>2023-07-05T05:59:30Z</time>
      </trkpt>
      <trkpt lat="47.16845" lon="0.24922">
        <ele>64</ele>
        <time>2023-07-05T05:59:40Z</time>
      </trkpt>
      <trkpt lat="47.1685" lon="0.24905">
        <ele>65</ele>
        <time>2023-07-05T05:59:46Z</time>
      </trkpt>
      <trkpt lat="47.16846" lon="0.24851">
        <ele>66</ele>
        <time>2023-07-05T06:00:05Z</time>
      </trkpt>
      <trkpt lat="47.16834" lon="0.24824">
        <ele>63</ele>
        <time>2023-07-05T06:00:16Z</time>
      </trkpt>
      <trkpt lat="47.1683" lon="0.24793">
        <ele>64</ele>
        <time>2023-07-05T06:00:27Z</time>
      </trkpt>
      <trkpt lat="47.16837" lon="0.24712">
        <ele>68</ele>
        <time>2023-07-05T06:00:54Z</time>
      </trkpt>
      <trkpt lat="47.16832" lon="0.24696">
        <ele>66</ele>
        <time>2023-07-05T06:01:00Z</time>
      </trkpt>
    </trkseg>
  </trk>
</gpx>